[[{"header":{"parameterUnit":"m.s-1","parameterCategory":1,"la1":30.6,"la2":28.766,"lo1":-90.7593,"lo2":-88.6598,"dy":0.0162,"dx":0.0183,"nx":116,"ny":114,"refTime":"2023-05-16T12:00:00:Z","depth":0,"parameterNumber":2,"parameterNumberName":"U-component_of_WINDS"},"data":[0.0,0.0,0.0,0.0,0.0,0.0,0.0,0.0,0.0,0.0,0.0,0.0,0.0,0.0,0.0,0.0,0.0,0.0,0.0,0.0,0.0,0.0,0.0,0.0,0.0,0.0,0.0,0.0,0.0,0.0,0.0,0.0,0.0,0.0,0.0,0.0,0.0,0.0,0.0,0.0,0.0,0.0,0.0,0.0,0.0,0.0,0.0,0.0,0.0,0.0,0.0,0.0,0.0,0.0,0.0,0.0,0.0,0.0,0.0,0.0,0.0,0.0,0.0,0.0,0.0,0.0,0.0,0.0,0.0,0.0,0.0,0.0,0.0,0.0,0.0,0.0,0.0,0.0,0.0,0.0,0.0,0.0,0.0,0.0,0.0,0.0,0.0,0.0,0.0,0.0,0.0,0.0,0.0,0.0,0.0,0.0,0.0,0.0,0.0,0.0,0.0,0.0,0.0,0.0,0.0,0.0,0.0,0.0,0.0,0.0,0.0,0.0,0.0,0.0,0.0,0.0,0.0,0.0,0.0,0.0,0.0,0.0,0.0,0.0,0.0,0.0,0.0,0.0,0.0,0.0,0.0,0.0,0.0,0.0,0.0,0.0,0.0,0.0,0.0,0.0,0.0,0.0,0.0,0.0,0.0,0.0,0.0,0.0,0.0,0.0,0.0,0.0,0.0,0.0,0.0,0.0,0.0,0.0,0.0,0.0,0.0,0.0,0.0,0.0,0.0,0.0,0.0,0.0,0.0,0.0,0.0,0.0,0.0,0.0,0.0,0.0,0.0,0.0,0.0,0.0,0.0,0.0,0.0,0.0,0.0,0.0,0.0,0.0,0.0,0.0,0.0,0.0,0.0,0.0,0.0,0.0,0.0,0.0,0.0,0.0,0.0,0.0,0.0,0.0,0.0,0.0,0.0,0.0,0.0,0.0,0.0,0.0,0.0,0.0,0.0,0.0,0.0,0.0,0.0,0.0,0.0,0.0,0.0,0.0,0.0,0.0,0.0,0.0,0.0,0.0,0.0,0.0,0.0,0.0,0.0,0.0,0.0,0.0,0.0,0.0,0.0,0.0,0.0,0.0,0.0,0.0,0.0,0.0,0.0,0.0,0.0,0.0,0.0,0.0,0.0,0.0,0.0,0.0,0.0,0.0,0.0,0.0,0.0,0.0,0.0,0.0,0.0,0.0,0.0,0.0,0.0,0.0,0.0,0.0,0.0,0.0,0.0,0.0,0.0,0.0,0.0,0.0,0.0,0.0,0.0,0.0,0.0,0.0,0.0,0.0,0.0,0.0,0.0,0.0,0.0,0.0,0.0,0.0,0.0,0.0,0.0,0.0,0.0,0.0,0.0,0.0,0.0,0.0,0.0,0.0,0.0,0.0,0.0,0.0,0.0,0.0,0.0,0.0,0.0,0.0,0.0,0.0,0.0,0.0,0.0,0.0,0.0,0.0,0.0,0.0,0.0,0.0,0.0,0.0,0.0,0.0,0.0,0.0,0.0,0.0,0.0,0.0,0.0,0.0,0.0,0.0,0.0,0.0,0.0,0.0,0.0,0.0,0.0,0.0,0.0,0.0,0.0,0.0,0.0,0.0,0.0,0.0,0.0,0.0,0.0,0.0,0.0,0.0,0.0,0.0,0.0,0.0,0.0,0.0,0.0,0.0,0.0,0.0,0.0,0.0,0.0,0.0,0.0,0.0,0.0,0.0,0.0,0.0,0.0,0.0,0.0,0.0,0.0,0.0,0.0,0.0,0.0,0.0,0.0,0.0,0.0,0.0,0.0,0.0,0.0,0.0,0.0,0.0,0.0,0.0,0.0,0.0,0.0,0.0,0.0,0.0,0.0,0.0,0.0,0.0,0.0,0.0,0.0,0.0,0.0,0.0,0.0,0.0,0.0,0.0,0.0,0.0,0.0,0.0,0.0,0.0,0.0,0.0,0.0,0.0,0.0,0.0,0.0,0.0,0.0,0.0,0.0,0.0,0.0,0.0,0.0,0.0,0.0,0.0,0.0,0.0,0.0,0.0,0.0,0.0,0.0,0.0,0.0,0.0,0.0,0.0,0.0,0.0,0.0,0.0,0.0,0.0,0.0,0.0,0.0,0.0,0.0,0.0,0.0,0.0,0.0,0.0,0.0,0.0,0.0,0.0,0.0,0.0,0.0,0.0,0.0,0.0,0.0,0.0,0.0,0.0,0.0,0.0,0.0,0.0,0.0,0.0,0.0,0.0,0.0,0.0,0.0,0.0,0.0,0.0,0.0,0.0,0.0,0.0,0.0,0.0,0.0,0.0,0.0,0.0,0.0,0.0,0.0,0.0,0.0,0.0,0.0,0.0,0.0,0.0,0.0,0.0,0.0,0.0,0.0,0.0,0.0,0.0,0.0,0.0,0.0,0.0,0.0,0.0,0.0,0.0,0.0,0.0,0.0,0.0,0.0,0.0,0.0,0.0,0.0,0.0,0.0,0.0,0.0,0.0,0.0,0.0,0.0,0.0,0.0,0.0,0.0,0.0,0.0,0.0,0.0,0.0,0.0,0.0,0.0,0.0,0.0,0.0,0.0,0.0,0.0,0.0,0.0,0.0,0.0,0.0,0.0,0.0,0.0,0.0,0.0,0.0,0.0,0.0,0.0,0.0,0.0,0.0,0.0,0.0,0.0,0.0,0.0,0.0,0.0,0.0,0.0,0.0,0.0,0.0,0.0,0.0,0.0,0.0,0.0,0.0,0.0,0.0,0.0,0.0,0.0,0.0,0.0,0.0,0.0,0.0,0.0,0.0,0.0,0.0,0.0,0.0,0.0,0.0,0.0,0.0,0.0,0.0,0.0,0.0,0.0,0.0,0.0,0.0,0.0,0.0,0.0,0.0,0.0,0.0,0.0,0.0,0.0,0.0,0.0,0.0,0.0,0.0,0.0,0.0,0.0,0.0,0.0,0.0,0.0,0.0,0.0,0.0,0.0,0.0,0.0,0.0,0.0,0.0,0.0,0.0,0.0,0.0,0.0,0.0,0.0,0.0,0.0,0.0,0.0,0.0,0.0,0.0,0.0,0.0,0.0,0.0,0.0,0.0,0.0,0.0,0.0,0.0,0.0,0.0,0.0,0.0,0.0,0.0,0.0,0.0,0.0,0.0,0.0,0.0,0.0,0.0,0.0,0.0,0.0,0.0,0.0,0.0,0.0,0.0,0.0,0.0,0.0,0.0,0.0,0.0,0.0,0.0,0.0,0.0,0.0,0.0,0.0,0.0,0.0,0.0,0.0,0.0,0.0,0.0,0.0,0.0,0.0,0.0,0.0,0.0,0.0,0.0,0.0,0.0,0.0,0.0,0.0,0.0,0.0,0.0,0.0,0.0,0.0,0.0,0.0,0.0,0.0,0.0,0.0,0.0,0.0,0.0,0.0,0.0,0.0,0.0,0.0,0.0,0.0,0.0,0.0,0.0,0.0,0.0,0.0,0.0,0.0,0.0,0.0,0.0,0.0,0.0,0.0,0.0,0.0,0.0,0.0,0.0,0.0,0.0,0.0,0.0,0.0,0.0,0.0,0.0,0.0,0.0,0.0,0.0,0.0,0.0,0.0,0.0,0.0,0.0,0.0,0.0,0.0,0.0,0.0,0.0,0.0,0.0,0.0,0.0,0.0,0.0,0.0,0.0,0.0,0.0,0.0,0.0,0.0,0.0,0.0,0.0,0.0,0.0,0.0,0.0,0.0,0.0,0.0,0.0,0.0,0.0,0.0,0.0,0.0,0.0,0.0,0.0,0.0,0.0,0.0,0.0,0.0,0.0,0.0,0.0,0.0,0.0,0.0,0.0,0.0,0.0,0.0,0.0,0.0,0.0,0.0,0.0,0.0,0.0,0.0,0.0,0.0,0.0,0.0,0.0,0.0,0.0,0.0,0.0,0.0,0.0,0.0,0.0,0.0,0.0,0.0,0.0,0.0,0.0,0.0,0.0,0.0,0.0,0.0,0.0,0.0,0.0,0.0,0.0,0.0,0.0,0.0,0.0,0.0,0.0,0.0,0.0,0.0,0.0,0.0,0.0,0.0,0.0,0.0,0.0,0.0,0.0,0.0,0.0,0.0,0.0,0.0,0.0,0.0,0.0,0.0,0.0,0.0,0.0,0.0,0.0,0.0,0.0,0.0,0.0,0.0,0.0,0.0,0.0,0.0,0.0,0.0,0.0,0.0,0.0,0.0,0.0,0.0,0.0,0.0,0.0,0.0,0.0,0.0,0.0,0.0,0.0,0.0,0.0,0.0,0.0,0.0,0.0,0.0,0.0,0.0,0.0,0.0,0.0,0.0,0.0,0.0,0.0,0.0,0.0,0.0,0.0,0.0,0.0,0.0,0.0,0.0,0.0,0.0,0.0,0.0,0.0,0.0,0.0,0.0,0.0,0.0,0.0,0.0,0.0,0.0,0.0,0.0,0.0,0.0,0.0,0.0,0.0,0.0,0.0,0.0,0.0,0.0,0.0,0.0,0.0,0.0,0.0,0.0,0.0,0.0,0.0,0.0,0.0,0.0,0.0,0.0,0.0,0.0,0.0,0.0,0.0,0.0,0.0,0.0,0.0,0.0,0.0,0.0,0.0,0.0,0.0,0.0,0.0,0.0,0.0,0.0,0.0,0.0,0.0,0.0,0.0,0.0,0.0,0.0,0.0,0.0,0.0,0.0,0.0,0.0,0.0,0.0,0.0,0.0,0.0,0.0,0.0,0.0,0.0,0.0,0.0,0.0,0.0,0.0,0.0,0.0,0.0,0.0,0.0,0.0,0.0,0.0,0.0,0.0,0.0,0.0,0.0,0.0,0.0,0.0,0.0,0.0,0.0,0.0,0.0,0.0,0.0,0.0,0.0,0.0,0.0,0.0,0.0,0.0,0.0,0.0,0.0,0.0,0.0,0.0,0.0,0.0,0.0,0.0,0.0,0.0,0.0,0.0,0.0,0.0,0.0,0.0,0.0,0.0,0.0,0.0,0.0,0.0,0.0,0.0,0.0,0.0,0.0,0.0,0.0,0.0,0.0,0.0,0.0,0.0,0.0,0.0,0.0,0.0,0.0,0.0,0.0,0.0,0.0,0.0,0.0,0.0,0.0,0.0,0.0,0.0,0.0,0.0,0.0,0.0,0.0,0.0,0.0,0.0,0.0,0.0,0.0,0.0,0.0,0.0,0.0,0.0,0.0,0.0,0.0,0.0,0.0,0.0,0.0,0.0,0.0,0.0,0.0,0.0,0.0,0.0,0.0,0.0,0.0,0.0,0.0,0.0,0.0,0.0,0.0,0.0,0.0,0.0,0.0,0.0,0.0,0.0,0.0,0.0,0.0,0.0,0.0,0.0,0.0,0.0,0.0,0.0,0.0,0.0,0.0,0.0,0.0,0.0,0.0,0.0,0.0,0.0,0.0,0.0,0.0,0.0,0.0,0.0,0.0,0.0,0.0,0.0,0.0,0.0,0.0,0.0,0.0,0.0,0.0,0.0,0.0,0.0,0.0,0.0,0.0,0.0,0.0,0.0,0.0,0.0,0.0,0.0,0.0,0.0,0.0,0.0,0.0,0.0,0.0,0.0,0.0,0.0,0.0,0.0,0.0,0.0,0.0,0.0,0.0,0.0,0.0,0.0,0.0,0.0,0.0,0.0,0.0,0.0,0.0,0.0,0.0,0.0,0.0,0.0,0.0,0.0,0.0,0.0,0.0,0.0,0.0,0.0,0.0,0.0,0.0,0.0,0.0,0.0,0.0,0.0,0.0,0.0,0.0,0.0,0.0,0.0,0.0,0.0,0.0,0.0,0.0,0.0,0.0,0.0,0.0,0.0,0.0,0.0,0.0,0.0,0.0,0.0,0.0,0.0,0.0,0.0,0.0,0.0,0.0,0.0,0.0,0.0,0.0,0.0,0.0,0.0,0.0,0.0,0.0,0.0,0.0,0.0,0.0,0.0,0.0,0.0,0.0,0.0,0.0,0.0,0.0,0.0,0.0,0.0,0.0,0.0,0.0,0.0,0.0,0.0,0.0,0.0,0.0,0.0,0.0,0.0,0.0,0.0,0.0,0.0,0.0,0.0,0.0,0.0,0.0,0.0,0.0,0.0,0.0,0.0,0.0,0.8563,0.8536,0.0,0.0,0.0,0.0,0.0,0.0,0.0,0.0,0.0,0.0,0.0,0.0,0.0,0.0,0.0,0.0,0.0,0.0,0.0,0.0,0.0,0.0,0.0,0.0,0.0,0.0,0.0,0.0,0.0,0.0,0.0,0.0,0.0,0.0,0.0,0.0,0.0,0.0,0.0,0.0,0.0,0.0,0.0,0.0,0.0,0.0,0.0,0.0,0.0,0.0,0.0,0.0,0.0,0.0,0.0,0.0,0.0,0.0,0.0,0.0,0.0,0.0,0.0,0.0,0.0,0.0,0.0,0.0,0.0,0.0,0.0,0.0,0.0,0.0,0.0,0.0,0.0,0.0,0.0,0.0,0.0,0.0,0.0,0.0,0.0,0.0,0.0,0.0,0.0,0.0,0.0,0.0,0.0,0.0,0.0,0.0,0.0,0.0,0.0,0.0,0.0,0.0,0.0,0.0,0.0,0.0,0.0,0.0,0.0,0.0,0.0,0.0,0.0,0.0,0.8624,0.8746,0.0,0.0,0.0,0.0,0.0,0.0,0.0,0.0,0.0,0.0,0.0,0.0,0.0,0.0,0.0,0.0,0.0,0.0,0.0,0.0,0.0,0.0,0.0,0.0,0.0,0.0,0.0,0.0,0.0,0.0,0.0,0.0,0.0,0.0,0.0,0.0,0.0,0.0,0.0,0.0,0.0,0.0,0.0,0.0,0.0,0.0,0.0,0.0,0.0,0.0,0.0,0.0,0.0,0.0,0.0,0.0,0.0,0.0,0.0,0.0,0.0,0.0,0.0,0.0,0.0,0.0,0.0,0.0,0.0,0.0,0.0,0.0,0.0,0.0,0.0,0.0,0.0,0.0,0.0,0.0,0.0,0.0,0.0,0.0,0.0,0.0,0.0,0.0,0.0,0.0,0.0,0.0,0.0,0.0,0.0,0.0,0.0,0.0,0.0,0.0,0.0,0.0,0.0,0.0,0.0,0.0,0.0,0.0,0.8277,0.8193,0.8044,0.8076,0.8018,0.7865,0.8493,0.8693,0.8603,0.8304,0.0,0.0,0.0,0.0,0.0,0.0,0.0,0.0,0.0,0.0,0.0,0.0,0.0,0.0,0.0,0.0,0.0,0.0,0.0,0.0,0.0,0.0,0.0,0.0,0.0,0.0,0.0,0.0,0.0,0.0,0.0,0.0,0.0,0.0,0.0,0.0,0.0,0.0,0.6698,0.7061,0.7399,0.7688,0.0,0.0,0.0,0.0,0.0,0.0,0.0,0.0,0.0,0.0,0.0,0.0,0.0,0.0,0.0,0.0,0.0,0.0,0.0,0.0,0.0,0.0,0.0,0.0,0.0,0.0,0.0,0.0,0.0,0.0,0.0,0.0,0.0,0.0,0.0,0.0,0.0,0.0,0.0,0.0,0.0,0.0,0.0,0.0,0.5214,0.5194,0.0,0.0,0.0,0.0,0.0,0.0,0.0,0.0,0.0,0.0,0.0,0.0,0.0,0.7763,0.7567,0.7899,0.7981,0.7783,0.8148,0.827,0.8173,0.8411,0.8456,0.8415,0.8505,0.0,0.7832,0.7791,0.0,0.0,0.0,0.0,0.0,0.0,0.0,0.0,0.0,0.0,0.0,0.0,0.0,0.0,0.0,0.0,0.0,0.0,0.0,0.0,0.0,0.0,0.0,0.0,0.0,0.0,0.0,0.0,0.0,0.0,0.0,0.0,0.0,0.0,0.0,0.0,0.5951,0.6354,0.6648,0.6955,0.72,0.7277,0.7273,0.768,0.8419,0.8776,0.0,0.0,0.0,0.0,0.0,0.0,0.0,0.0,0.0,0.0,0.0,0.0,0.0,0.0,0.0,0.0,0.0,0.0,0.0,0.0,0.0,0.0,0.0,0.0,0.0,0.0,0.0,0.0,0.0,0.0,0.0,0.0,0.0,0.0,0.0,0.0,0.0,0.0,0.0,0.5269,0.5219,0.5269,0.5512,0.5649,0.0,0.0,0.0,0.0,0.0,0.0,0.0,0.0,0.0,0.7371,0.7586,0.7701,0.7698,0.7799,0.7836,0.7838,0.7911,0.7908,0.7874,0.7985,0.8001,0.7893,0.7893,0.775,0.7546,0.7579,0.7536,0.7393,0.0,0.0,0.0,0.0,0.6146,0.572,0.0,0.0,0.0,0.0,0.0,0.0,0.0,0.0,0.0,0.0,0.0,0.0,0.0,0.0,0.0,0.2339,0.0,0.0,0.0,0.0,0.0,0.0,0.0,0.0,0.0,0.0,0.0,0.0,0.6129,0.6413,0.6563,0.689,0.7053,0.7098,0.7398,0.7931,0.8633,0.897,0.9179,0.0,0.0,0.0,0.0,0.0,0.0,0.0,0.0,0.0,0.0,0.0,0.0,0.0,0.0,0.0,0.0,0.0,0.0,0.0,0.0,0.0,0.0,0.0,0.0,0.0,0.0,0.0,0.0,0.0,0.0,0.0,0.0,0.0,0.0,0.0,0.0,0.0,0.0,0.5325,0.5246,0.528,0.5435,0.5468,0.0,0.0,0.0,0.0,0.0,0.0,0.629,0.6726,0.7011,0.7079,0.7376,0.7561,0.7607,0.7523,0.7491,0.7557,0.7463,0.7405,0.7358,0.7431,0.7419,0.7315,0.7334,0.7346,0.7345,0.7451,0.7423,0.7264,0.6913,0.6546,0.6253,0.6083,0.5728,0.5247,0.0,0.0,0.0,0.0,0.0,0.0,0.0,0.0,0.0,0.0,0.0,0.0,0.0,0.0,0.1991,0.2454,0.2498,0.262,0.0,0.0,0.0,0.0,0.0,0.0,0.0,0.0,0.0,0.5594,0.6148,0.6514,0.6794,0.7229,0.7549,0.7661,0.7832,0.7864,0.7868,0.836,0.8851,0.9402,0.0,0.0,0.0,0.0,0.0,0.0,0.0,0.0,0.0,0.0,0.0,0.0,0.0,0.0,0.0,0.0,0.0,0.0,0.0,0.0,0.0,0.0,0.0,0.0,0.0,0.0,0.0,0.0,0.0,0.0,0.0,0.0,0.0,0.0,0.0,0.0,0.0,0.0,0.0,0.4946,0.4973,0.0,0.0,0.0,0.0,0.4953,0.5392,0.5745,0.5987,0.6472,0.682,0.702,0.7038,0.6961,0.6834,0.6834,0.6792,0.6648,0.6684,0.6644,0.6667,0.6973,0.71,0.713,0.7098,0.7127,0.7109,0.7303,0.7412,0.737,0.7216,0.6963,0.6648,0.6321,0.5809,0.5199,0.0,0.0,0.0,0.0,0.0,0.0,0.0,0.0,0.0,0.0,0.0,0.0,0.0,0.1595,0.1845,0.2172,0.2354,0.2607,0.2868,0.0,0.0,0.0,0.0,0.0,0.0,0.0,0.5426,0.569,0.6192,0.6499,0.662,0.6894,0.7091,0.7146,0.7255,0.737,0.7422,0.789,0.8457,0.9019,0.8958,0.9156,0.0,0.0,0.0,0.0,0.0,0.0,0.0,0.0,0.0,0.0,0.0,0.0,0.0,0.0,0.0,0.0,0.0,0.0,0.0,0.0,0.0,0.0,0.0,0.0,0.0,0.0,0.0,0.0,0.0,0.0,0.0,0.0,0.0,0.0,0.0,0.0,0.0,0.4492,0.4461,0.0,0.4486,0.4525,0.4604,0.4677,0.502,0.5273,0.5349,0.5671,0.5904,0.5975,0.598,0.6051,0.6142,0.6087,0.6156,0.6348,0.624,0.6263,0.6329,0.6493,0.6538,0.6549,0.6506,0.6511,0.6506,0.6577,0.6683,0.6809,0.6761,0.6518,0.6192,0.6028,0.5564,0.487,0.0,0.0,0.0,0.0,0.0,0.0,0.0,0.0,0.0,0.0,0.0,0.0878,0.1042,0.1382,0.1675,0.1934,0.223,0.2513,0.2743,0.0,0.0,0.0,0.0,0.0,0.0,0.5097,0.5358,0.564,0.6062,0.6332,0.6393,0.6595,0.6719,0.6724,0.6976,0.7089,0.725,0.748,0.8016,0.853,0.8424,0.8672,0.9111,0.0,0.0,0.0,0.0,0.0,0.0,0.0,0.0,0.0,0.0,0.0,0.0,0.0,0.0,0.0,0.0,0.0,0.0,0.0,0.0,0.0,0.0,0.0,0.0,0.0,0.0,0.0,0.0,0.0,0.0,0.0,0.0,0.0,0.0,0.0,0.4404,0.4079,0.4045,0.401,0.3985,0.395,0.4,0.4147,0.4348,0.4523,0.463,0.4893,0.5107,0.5228,0.5288,0.54,0.5573,0.5462,0.5579,0.5814,0.581,0.5819,0.5956,0.6061,0.6054,0.6089,0.6149,0.6178,0.6178,0.6239,0.6263,0.6365,0.6385,0.6147,0.5829,0.5724,0.5211,0.4506,0.0,0.0,0.0,0.0,0.0,0.0,0.0,0.0,0.0,0.0,0.0382,0.0561,0.0756,0.1138,0.1479,0.1753,0.2092,0.233,0.2476,0.282,0.0,0.0,0.0,0.0,0.4691,0.4988,0.524,0.5582,0.5825,0.5974,0.6101,0.6451,0.6611,0.6619,0.7004,0.7197,0.7155,0.7101,0.7429,0.8021,0.7952,0.8109,0.8469,0.0,0.0,0.0,0.0,0.0,0.0,0.0,0.0,0.0,0.0,0.0,0.0,0.0,0.0,0.0,0.0,0.0,0.0,0.0,0.0,0.0,0.0,0.0,0.0,0.0,0.0,0.0,0.0,0.0,0.0,0.0,0.0,0.0,0.45,0.444,0.4204,0.3759,0.3646,0.3565,0.3324,0.3076,0.3079,0.3235,0.3332,0.3538,0.3937,0.4207,0.4497,0.485,0.498,0.5042,0.5042,0.5042,0.5042,0.5042,0.5208,0.5347,0.5463,0.5652,0.577,0.5814,0.6002,0.6073,0.6073,0.6203,0.6215,0.6076,0.6179,0.5964,0.5671,0.5404,0.4879,0.4161,0.0,0.0,0.0,0.0,0.0,0.0,0.0,0.0,0.0,0.0,-0.0201,-0.0,0.0528,0.0669,0.0954,0.1403,0.1608,0.1831,0.2033,0.0,0.0,0.0,0.0,0.0,0.4606,0.4955,0.5216,0.5454,0.5862,0.6071,0.6075,0.6278,0.6376,0.6376,0.6493,0.6635,0.6734,0.6756,0.6873,0.7064,0.7305,0.7638,0.8046,0.0,0.0,0.0,0.0,0.0,0.0,0.0,0.0,0.0,0.0,0.0,0.0,0.0,0.0,0.0,0.0,0.0,0.0,0.0,0.0,0.0,0.0,0.0,0.0,0.0,0.0,0.0,0.0,0.0,0.0,0.0,0.0,0.4299,0.4093,0.3883,0.3646,0.3311,0.2928,0.2695,0.2717,0.2519,0.2419,0.2537,0.2709,0.293,0.3134,0.3313,0.3517,0.3703,0.3942,0.3999,0.3999,0.4122,0.4246,0.4369,0.4483,0.467,0.487,0.503,0.5158,0.5321,0.5371,0.5485,0.561,0.5614,0.5653,0.5631,0.5822,0.5733,0.5391,0.5109,0.446,0.3539,0.0,0.0,0.0,0.0,0.0,0.0,0.0,0.0,0.0,0.0,-0.0695,-0.0471,0.0045,0.0135,0.041,0.0902,0.1208,0.1439,0.165,0.0,0.0,0.0,0.0,0.3887,0.4382,0.4702,0.4997,0.5262,0.5562,0.5748,0.5751,0.5827,0.5895,0.5898,0.6033,0.6177,0.6262,0.6339,0.6312,0.6271,0.6506,0.6872,0.7285,0.7104,0.7253,0.7577,0.7189,0.717,0.7195,0.662,0.0,0.0,0.0,0.0,0.0,0.0,0.0,0.0,0.0,0.0,0.0,0.0,0.0,0.0,0.0,0.0,0.0,0.0,0.0,0.0,0.0,0.0,0.0,0.0,0.4143,0.3849,0.3497,0.3305,0.3154,0.2949,0.2543,0.2221,0.2208,0.1963,0.1824,0.1917,0.201,0.2153,0.2277,0.2461,0.2664,0.2886,0.3134,0.3257,0.3257,0.3384,0.3573,0.3763,0.3944,0.4159,0.4339,0.458,0.4797,0.4871,0.5042,0.5153,0.5282,0.5415,0.5377,0.5288,0.0,0.0,0.0,0.0,0.3971,0.3088,0.0,0.0,0.0,0.0,0.0,0.0,0.0,0.0,0.0,0.0,0.0,-0.0896,-0.0626,-0.0403,-0.0091,0.0334,0.0791,0.1129,0.0,0.0,0.0,0.2724,0.3168,0.3578,0.4006,0.4317,0.4639,0.4896,0.5107,0.5177,0.518,0.5315,0.5379,0.5385,0.5653,0.5714,0.5598,0.5826,0.5744,0.5607,0.5607,0.5906,0.643,0.6546,0.6703,0.6818,0.6651,0.6614,0.6549,0.6101,0.0,0.0,0.0,0.0,0.0,0.0,0.0,0.0,0.0,0.0,0.0,0.0,0.0,0.0,0.0,0.0,0.0,0.0,0.0,0.0,0.0,0.0,0.0,0.0,0.3753,0.3365,0.2821,0.2715,0.2669,0.2608,0.2206,0.1911,0.1664,0.1362,0.1178,0.1238,0.1242,0.1306,0.1431,0.168,0.0,0.0,0.0,0.2652,0.2716,0.2845,0.2976,0.3172,0.3425,0.3666,0.3894,0.4295,0.4492,0.4558,0.4891,0.5024,0.5087,0.5352,0.5339,0.5075,0.5225,0.5161,0.4891,0.4171,0.346,0.2776,0.0,0.0,0.0,0.0,0.0,0.0,0.0,0.0,0.0,-0.1596,-0.151,-0.1367,-0.1115,-0.0895,-0.0645,-0.0347,0.0201,0.0726,0.0,0.0,0.2141,0.2565,0.2955,0.3301,0.36,0.4041,0.4314,0.4338,0.4692,0.4872,0.4875,0.4994,0.5046,0.5049,0.5148,0.5146,0.5123,0.52,0.5132,0.4947,0.4947,0.5356,0.5947,0.5982,0.6089,0.6245,0.6143,0.6184,0.6249,0.58,0.5614,0.55,0.5052,0.0,0.0,0.0,0.0,0.0,0.0,0.0,0.0,0.0,0.0,0.0,0.0,0.0,0.0,0.0,0.0,0.0,0.0,0.0,0.0,0.3553,0.3254,0.2907,0.2625,0.1799,0.1492,0.2003,0.1163,0.0555,0.0494,0.0379,0.0256,0.0256,0.0261,0.033,0.0529,0.0793,0.1061,0.1333,0.1534,0.1801,0.2,0.2202,0.2403,0.2604,0.2799,0.0,0.336,0.3629,0.383,0.4161,0.4364,0.4561,0.4691,0.4894,0.4945,0.4829,0.4771,0.4485,0.4053,0.3646,0.3088,0.2345,0.0,0.0,0.0,0.0,0.0,0.0,0.0,0.0,0.0,0.0,-0.1956,-0.1876,-0.169,-0.1477,-0.1195,-0.0878,-0.0355,0.0,0.0,0.1115,0.1578,0.2094,0.2445,0.2783,0.309,0.3567,0.3923,0.3996,0.443,0.4614,0.4614,0.4668,0.4693,0.4693,0.4693,0.4693,0.4693,0.4693,0.4663,0.4614,0.4614,0.4737,0.5063,0.5274,0.5483,0.5519,0.5538,0.5574,0.5601,0.5295,0.5094,0.4867,0.4573,0.4289,0.4114,0.0,0.0,0.0,0.0,0.0,0.0,0.0,0.0,0.0,0.0,0.0,0.0,0.0,0.0,0.4123,0.0,0.0,0.3579,0.3124,0.2872,0.254,0.1876,0.1157,0.0743,0.1036,0.0392,-0.0331,-0.074,-0.0887,-0.0893,-0.0893,-0.0904,-0.07,-0.035,-0.014,0.014,0.07,0.0911,0.1191,0.1471,0.166,0.1855,0.1923,0.2301,0.2555,0.2825,0.3161,0.3429,0.3627,0.3894,0.4095,0.4225,0.4292,0.4361,0.4417,0.4226,0.4179,0.4046,0.3484,0.2963,0.2445,0.0,0.0,0.0,0.0,0.0,0.0,0.0,0.0,0.0,0.0,-0.2412,-0.2354,-0.224,-0.2049,-0.1778,0.0,0.0,0.0,0.0,0.0473,0.092,0.1478,0.1882,0.2207,0.2619,0.3044,0.3419,0.3638,0.3978,0.4151,0.4151,0.4151,0.4151,0.4151,0.4151,0.4151,0.4151,0.4151,0.4151,0.4151,0.4151,0.4106,0.4018,0.4477,0.4719,0.4855,0.4907,0.4942,0.4897,0.4696,0.4511,0.4268,0.4056,0.3877,0.3601,0.343,0.3377,0.0,0.0,0.0,0.0,0.0,0.0,0.0,0.0,0.0,0.3526,0.3739,0.3682,0.362,0.3547,0.3398,0.3153,0.2778,0.2461,0.2014,0.1087,0.051,0.0072,-0.0069,-0.0489,-0.1068,-0.182,-0.1897,-0.1896,-0.1896,-0.1896,-0.1677,-0.1166,-0.1093,-0.0729,-0.0,0.0291,0.051,0.0875,0.107,0.1271,0.1341,0.1787,0.2103,0.2375,0.2833,0.3025,0.3092,0.3491,0.3758,0.3825,0.3825,0.3828,0.3894,0.3758,0.3828,0.3885,0.3272,0.286,0.2528,0.0,0.0,0.0,0.0,0.0,0.0,0.0,0.0,0.0,0.0,0.0,0.0,0.0,0.0,0.0,0.0,0.0,0.0,-0.0643,-0.0057,0.042,0.0801,0.1273,0.1704,0.222,0.2553,0.2766,0.2985,0.3142,0.3219,0.3219,0.3219,0.3219,0.3219,0.3219,0.3219,0.3219,0.3219,0.3219,0.3219,0.3219,0.3212,0.3274,0.3413,0.3792,0.4333,0.4439,0.4425,0.438,0.4199,0.4022,0.3843,0.3512,0.3263,0.3058,0.3014,0.0,0.2803,0.2956,0.2899,0.2922,0.3016,0.3109,0.3203,0.0,0.0,0.3153,0.3166,0.3119,0.3021,0.2779,0.2715,0.2581,0.2303,0.1735,0.1086,0.0583,-0.0219,-0.0953,-0.1418,-0.147,-0.1745,-0.2335,-0.2189,-0.2115,-0.233,-0.2187,-0.2042,-0.197,-0.1677,-0.1386,-0.1021,-0.0802,-0.051,-0.0,0.0291,0.0653,0.1161,0.1201,0.1605,0.2233,0.2314,0.2488,0.2753,0.309,0.3493,0.3825,0.3825,0.3694,0.3565,0.3362,0.309,0.2887,0.2811,0.2542,0.2075,0.0,0.0,0.0,0.0,0.0,0.0,0.0,0.0,0.0,0.0,0.0,0.0,0.0,0.0,0.0,0.0,0.0,0.0,-0.1382,-0.0725,-0.0232,-0.0,0.0692,0.1167,0.1443,0.1871,0.2208,0.2352,0.2625,0.2766,0.2766,0.2728,0.2746,0.2746,0.2746,0.2746,0.2746,0.2746,0.2826,0.2904,0.2904,0.2982,0.3059,0.3027,0.3147,0.3287,0.3659,0.3712,0.0,0.0,0.3394,0.3202,0.2937,0.2757,0.2531,0.2378,0.2289,0.0,0.2439,0.2553,0.2563,0.0,0.2634,0.2668,0.2518,0.2531,0.2531,0.2531,0.2554,0.2502,0.2393,0.2349,0.217,0.0,0.0969,0.0449,-0.0228,-0.0914,-0.1529,-0.2086,-0.2145,-0.2208,-0.2513,-0.2589,-0.2741,-0.2817,-0.2741,-0.2589,-0.236,-0.2208,-0.198,-0.1754,-0.1372,-0.099,-0.0838,-0.0225,0.0149,0.0373,0.0944,0.1291,0.1577,0.2057,0.2448,0.2749,0.2842,0.3021,0.3155,0.3155,0.3088,0.3023,0.2824,0.2624,0.2421,0.2421,0.2287,0.2018,0.0,0.0,0.0,0.0,0.0,0.0,0.0,0.0,0.0,0.0,0.0,0.0,0.0,0.0,0.0,0.0,0.0,0.0,0.0,-0.1349,-0.0898,-0.0696,0.0061,0.0,0.0708,0.1284,0.1669,0.1893,0.2126,0.2246,0.2247,0.2304,0.2331,0.2333,0.2348,0.2354,0.2354,0.2354,0.2434,0.2591,0.2591,0.2671,0.2746,0.2572,0.2422,0.2397,0.2851,0.2979,0.0,0.0,0.2784,0.2536,0.2386,0.2221,0.1993,0.1792,0.1788,0.1788,0.1913,0.0,0.0,0.2081,0.2099,0.2116,0.1875,0.1939,0.2066,0.2066,0.207,0.1987,0.1843,0.1706,0.1424,0.061,0.0229,-0.0231,-0.1028,-0.1586,-0.2067,-0.2479,-0.2704,-0.2852,-0.2852,-0.3071,-0.3217,-0.3295,-0.3217,-0.3059,-0.2823,-0.2668,-0.2433,-0.22,-0.1806,-0.1492,-0.1335,-0.0694,-0.0306,-0.0076,0.0522,0.0958,0.1179,0.1829,0.2309,0.2547,0.2564,0.2599,0.2649,0.2649,0.2637,0.2554,0.2354,0.2154,0.1951,0.1951,0.1884,0.1614,0.0,0.0,0.0,0.0,0.0,0.0,0.0,0.0,0.0,0.0,0.0,0.0,0.0,0.0,0.0,0.0,0.0,0.0,0.0,-0.1949,-0.1573,-0.1178,-0.0696,-0.0243,0.0193,0.0663,0.1159,0.1612,0.1658,0.1606,0.1607,0.1724,0.1821,0.1823,0.1867,0.1887,0.1887,0.1887,0.1887,0.1965,0.1965,0.1965,0.196,0.1838,0.1791,0.1749,0.2182,0.0,0.0,0.0,0.2085,0.1939,0.1821,0.1674,0.0,0.1433,0.1421,0.1421,0.0,0.0,0.1555,0.1599,0.1644,0.1688,0.1732,0.1816,0.1892,0.1892,0.1784,0.1513,0.0832,0.0617,0.0392,0.0078,-0.0471,-0.1108,-0.1703,-0.2194,-0.2621,-0.268,-0.3208,-0.3651,0.0,-0.3655,-0.3604,-0.3763,-0.3604,-0.3448,-0.3448,-0.3059,-0.2668,-0.2511,-0.2275,-0.1883,-0.1335,-0.1256,-0.0863,-0.0,-0.0077,0.0378,0.1285,0.1623,0.1823,0.204,0.2253,0.2362,0.2515,0.2515,0.2409,0.2221,0.2018,0.1681,0.1412,0.1412,0.1143,0.0605,0.0,0.0,0.0,0.0,0.0,0.0,0.0,0.0,0.0,0.0,0.0,0.0,0.0,0.0,0.0,0.0,0.0,0.0,0.0,-0.2242,-0.1983,-0.1783,-0.14,-0.0989,-0.0546,-0.0188,0.0258,0.0797,0.082,0.0978,0.1279,0.1386,0.1403,0.1478,0.1491,0.1496,0.1496,0.1496,0.1496,0.1496,0.1421,0.1571,0.1719,0.1631,0.1527,0.1491,0.0,0.0,0.0,0.0,0.0,0.0,0.1597,0.1524,0.1522,0.1248,0.118,0.1184,0.1205,0.0,0.1304,0.1552,0.1645,0.1659,0.1455,0.1404,0.1271,0.0673,0.061,0.0466,0.031,-0.0078,-0.055,-0.1021,-0.1512,-0.1934,-0.2275,-0.2554,-0.2836,-0.3275,-0.3673,0.0,0.0,0.0,0.0,-0.3999,-0.3921,-0.3763,-0.3526,-0.337,-0.3057,-0.2746,-0.2511,-0.2275,-0.1883,-0.1492,-0.1178,-0.0864,-0.0312,0.0466,0.1318,0.1362,0.1571,0.1869,0.191,0.1958,0.1939,0.1976,0.1952,0.1864,0.1626,0.148,0.1345,0.0673,0.0269,-0.0134,0.0,0.0,0.0,0.0,0.0,0.0,0.0,0.0,0.0,0.0,0.0,0.0,0.0,0.0,0.0,0.0,0.0,0.0,0.0,0.0,-0.2334,-0.2194,-0.1856,-0.1494,-0.1216,-0.0886,-0.0549,-0.0064,0.0065,0.033,0.0671,0.0766,0.085,0.0851,0.0939,0.1021,0.1021,0.1021,0.1021,0.1021,0.1021,0.1166,0.1457,0.1443,0.1352,0.0,0.0,0.0,0.0,0.0,0.0,0.0,0.1144,0.1144,0.1146,0.0954,0.0889,0.0894,0.0917,0.0853,0.093,0.1175,0.1257,0.1185,0.0823,0.0758,0.0614,0.0077,-0.0388,-0.0629,-0.0628,-0.0943,-0.1414,-0.1806,-0.2147,-0.2421,-0.2707,-0.2916,-0.3298,-0.3863,-0.4102,-0.4335,0.0,0.0,0.0,-0.4291,-0.4175,-0.3999,-0.3763,-0.3604,-0.337,-0.3059,-0.2746,-0.2511,-0.2275,-0.1884,-0.1492,-0.1257,-0.0393,0.0314,0.0864,0.1159,0.1382,0.1611,0.1585,0.1565,0.155,0.1743,0.1712,0.161,0.1374,0.1154,0.0808,0.0067,-0.0404,-0.0807,0.0,0.0,0.0,0.0,0.0,0.0,0.0,0.0,0.0,0.0,0.0,0.0,0.0,0.0,0.0,0.0,0.0,0.0,0.0,0.0,0.0,-0.2425,-0.2122,-0.1874,-0.184,-0.1452,-0.1154,-0.0922,-0.0676,-0.0431,-0.0247,-0.0065,0.0067,0.0067,0.0283,0.0434,0.0506,0.0507,0.058,0.058,0.058,0.0799,0.1159,0.1129,0.0,0.0,0.0,0.0,0.0,0.0,0.0,0.0,0.0,0.0472,0.0475,0.0487,0.0491,0.0494,0.0508,0.0438,0.0441,0.0377,0.0455,0.0382,0.0078,-0.0079,-0.0079,-0.0079,-0.1021,-0.1887,0.0,0.0,-0.2121,-0.2196,-0.2434,-0.2636,-0.3004,-0.3448,-0.3848,0.0,0.0,0.0,0.0,0.0,0.0,-0.4649,-0.4307,-0.4093,-0.4086,-0.3769,-0.353,-0.3526,-0.3059,-0.2746,-0.2511,-0.2275,-0.1883,-0.1257,-0.0471,-0.0079,-0.0,0.0864,0.1257,0.1257,0.1257,0.1241,0.129,0.1668,0.1694,0.1477,0.1192,0.0621,-0.0068,-0.0404,-0.0941,-0.1547,0.0,0.0,0.0,0.0,0.0,0.0,0.0,0.0,0.0,0.0,0.0,0.0,0.0,0.0,0.0,0.0,0.0,0.0,0.0,0.0,0.0,0.0,0.0,0.0,0.0,0.0,0.0,0.0,0.0,-0.0944,-0.0741,-0.069,-0.0695,-0.0695,-0.0642,-0.0323,0.0129,0.0132,0.0133,0.0134,0.0,0.0206,0.0344,0.0,0.0,0.0,0.0,0.0,0.0,0.0,0.0,0.0,0.0,0.0137,0.0139,0.014,0.0142,0.0145,0.0149,-0.0375,-0.083,-0.0851,-0.0545,-0.0312,-0.0392,-0.0707,-0.1021,-0.1257,-0.1493,-0.1807,0.0,0.0,0.0,-0.2431,-0.2788,0.0,-0.3515,-0.3666,0.0,-0.4285,0.0,-0.4882,-0.5058,-0.5224,0.0,0.0,-0.4848,-0.4424,-0.4266,-0.3943,-0.3673,-0.3528,-0.337,-0.3136,-0.2746,-0.2353,-0.1883,-0.1335,-0.11,-0.0628,-0.0,0.0236,0.0471,0.0786,0.0786,0.0783,0.0777,0.0916,0.0752,0.037,0.0285,0.014,-0.0069,-0.0881,-0.1547,-0.2018,0.0,0.0,0.0,0.0,0.0,0.0,0.0,0.0,0.0,0.0,0.0,0.0,0.0,0.0,0.0,0.0,0.0,0.0,0.0,0.0,0.0,0.0,0.0,0.0,0.0,0.0,0.0,0.0,0.0,0.0,0.0,-0.0994,-0.0948,-0.095,-0.0976,-0.0803,-0.0433,0.0,0.0,0.0,0.0,0.0,0.0,0.0,0.0,0.0,0.0,0.0,0.0,0.0,0.0,0.0472,-0.027,-0.0549,-0.0562,-0.0356,0.0,-0.0298,-0.0229,-0.0616,-0.1004,-0.1253,-0.11,-0.0943,-0.1021,-0.1257,-0.1572,-0.1729,-0.1964,0.0,-0.212,0.0,0.0,0.0,0.0,0.0,-0.3714,-0.3884,-0.397,0.0,-0.463,0.0,-0.501,-0.5134,-0.5275,0.0,-0.4957,-0.4594,-0.4451,-0.4082,-0.3794,-0.3665,-0.3545,-0.3292,-0.2826,-0.251,-0.2041,-0.1572,-0.1415,-0.1021,-0.055,-0.0393,-0.0157,0.0079,0.0079,0.0079,0.0078,0.0077,-0.0076,-0.0302,-0.0514,-0.0648,-0.0782,-0.1522,-0.1918,-0.2258,0.0,0.0,0.0,0.0,0.0,0.0,0.0,0.0,0.0,0.0,0.0,0.0,0.0,0.0,0.0,0.0,0.0,0.0,0.0,0.0,0.0,0.0,0.0,0.0,0.0,0.0,0.0,0.0,0.0,0.0,0.0,0.0,0.0,0.0,0.0,0.0,0.0,0.0,0.0,0.0,0.0,0.0,0.0,0.0,0.0,0.0,0.0,0.0,0.0,0.0,-0.0659,-0.0202,-0.0809,-0.117,-0.1203,-0.0796,-0.067,-0.0688,-0.0703,-0.0707,-0.0786,-0.1178,-0.1335,-0.1415,-0.165,-0.1725,-0.1721,-0.1878,0.0,-0.2488,-0.2486,-0.2876,-0.3191,-0.3431,0.0,-0.3622,-0.3885,-0.3967,-0.4139,-0.4413,-0.4588,-0.4734,-0.4921,-0.501,-0.501,-0.501,-0.4844,-0.4653,-0.4641,-0.4225,-0.3924,-0.3901,-0.3649,-0.3292,-0.2904,-0.2668,-0.2356,-0.1964,-0.1572,-0.1335,-0.1257,-0.0864,-0.0707,-0.0707,-0.0707,-0.0707,-0.0707,-0.0707,-0.0698,-0.0761,-0.1137,-0.142,-0.1608,-0.2063,-0.2256,-0.2317,0.0,0.0,0.0,0.0,0.0,0.0,0.0,0.0,0.0,0.0,-0.3737,-0.3667,0.0,0.0,0.0,0.0,0.0,0.0,0.0,0.0,0.0,0.0,0.0,0.0,0.0,0.0,0.0,0.0,0.0,0.0,0.0,0.0,0.0,0.0,0.0,0.0,0.0,0.0,0.0,0.0,0.0,0.0,0.0,0.0,0.0,0.0,0.0,0.0,0.0,0.0,-0.079,-0.0404,-0.0539,-0.0906,-0.1232,-0.1165,-0.1206,-0.1172,-0.1177,-0.1178,-0.1178,-0.1257,-0.1415,-0.1572,-0.1572,-0.1703,0.0,0.0,-0.2176,-0.2365,-0.2582,-0.2878,-0.3198,-0.334,0.0,0.0,0.0,0.0,-0.3985,0.0,0.0,0.0,0.0,-0.4924,0.0,0.0,-0.4802,-0.466,-0.4577,-0.4304,-0.4057,-0.3906,-0.3649,-0.3448,-0.337,-0.2981,-0.2591,-0.2354,-0.1963,-0.165,-0.1335,-0.1178,-0.1178,-0.1178,-0.1178,-0.1178,-0.1178,-0.1178,-0.1176,-0.1169,-0.1451,-0.1511,-0.1575,-0.2191,-0.2459,-0.2594,0.0,0.0,0.0,0.0,0.0,0.0,0.0,-0.379,-0.3765,-0.3672,-0.3574,-0.3475,-0.3405,-0.3344,-0.3278,0.0,0.0,0.0,0.0,0.0,0.0,0.0,0.0,0.0,0.0,0.0,0.0,0.0,0.0,0.0,0.0,0.0,0.0,0.0,0.0,0.0,0.0,0.0,0.0,0.0,0.0,0.0,0.0,0.0,0.0,0.0,0.0,0.0,0.0,0.0,-0.089,-0.0793,-0.0805,-0.097,-0.1146,-0.1235,-0.1273,-0.1237,-0.1253,-0.1335,-0.1335,-0.1415,-0.1479,-0.1619,-0.1774,0.0,0.0,0.0,-0.25,-0.2696,-0.2842,0.0,0.0,0.0,0.0,0.0,0.0,0.0,0.0,0.0,0.0,0.0,0.0,-0.4539,-0.4654,-0.4654,-0.4567,-0.455,-0.4592,-0.4323,-0.4038,-0.3903,-0.373,-0.3604,-0.3526,-0.3139,-0.2826,-0.2511,-0.2198,-0.1885,-0.1572,-0.1493,-0.1493,-0.1415,-0.1335,-0.1335,-0.1335,-0.1335,-0.1335,-0.1334,-0.1551,-0.1622,-0.1771,-0.2324,-0.2674,-0.2886,0.0,0.0,0.0,0.0,0.0,0.0,0.0,-0.3632,-0.3667,-0.3602,-0.341,-0.3278,-0.3278,-0.3278,-0.3245,0.0,0.0,0.0,0.0,0.0,0.0,0.0,0.0,0.0,0.0,0.0,0.0,0.0,0.0,0.0,0.0,0.0,0.0,0.0,0.0,0.0,0.0,0.0,0.0,0.0,0.0,0.0,0.0,0.0,0.0,0.0,0.0,0.0,0.0,0.0,-0.0975,-0.102,-0.1116,-0.1088,-0.1125,-0.115,-0.1179,-0.1283,-0.1309,-0.1315,-0.1392,-0.1547,-0.1601,-0.1653,-0.2029,-0.2064,0.0,0.0,-0.2732,-0.2936,-0.3081,0.0,0.0,0.0,0.0,0.0,0.0,0.0,0.0,0.0,0.0,0.0,0.0,-0.4132,0.0,-0.4271,-0.4287,-0.4389,-0.4569,-0.4218,-0.4004,-0.393,-0.382,-0.3763,-0.3604,-0.3294,-0.2982,-0.2589,-0.2353,-0.2198,-0.1964,-0.1729,-0.165,-0.165,-0.1415,-0.1336,-0.1336,-0.1335,-0.1335,-0.1335,-0.1572,-0.1729,-0.196,-0.2536,-0.2822,-0.3116,0.0,0.0,0.0,0.0,0.0,0.0,0.0,-0.3533,-0.3602,-0.3532,-0.3372,-0.3278,-0.3208,-0.3208,-0.3208,0.0,0.0,0.0,0.0,0.0,0.0,0.0,0.0,0.0,0.0,0.0,0.0,-0.1683,-0.15,0.0,0.0,0.0,0.0,0.0,0.0,-0.0603,0.0,0.0,0.0,0.0,0.0,0.0,0.0,0.0,0.0,0.0,0.0,0.0,0.0,0.0,0.0,-0.0956,-0.111,-0.112,-0.1122,-0.1125,0.0,0.0,-0.1395,-0.1542,-0.1689,-0.169,-0.1833,-0.1977,-0.1977,0.0,0.0,-0.2252,-0.2481,-0.2707,-0.2774,-0.298,-0.3279,0.0,0.0,-0.3373,0.0,0.0,0.0,0.0,0.0,0.0,0.0,-0.3871,-0.4009,-0.4185,-0.4257,-0.43,-0.43,-0.4132,-0.4032,-0.4024,-0.3854,-0.3763,-0.3763,-0.3606,-0.3294,-0.3062,-0.2668,-0.2353,-0.2196,-0.1963,-0.1887,-0.1887,-0.165,-0.1572,-0.1572,-0.1336,-0.1335,-0.1335,-0.1729,-0.1887,-0.1964,-0.2584,-0.2895,-0.3196,0.0,0.0,0.0,0.0,0.0,0.0,-0.3222,-0.3392,-0.3532,-0.3499,-0.334,-0.3245,-0.3208,-0.3208,-0.3208,-0.3208,0.0,0.0,0.0,0.0,0.0,0.0,0.0,0.0,0.0,0.0,0.0,-0.1564,-0.1429,0.0,0.0,0.0,0.0,0.0,0.0,-0.0665,-0.0553,0.0,0.0,0.0,0.0,0.0,0.0,0.0,0.0,0.0,0.0,0.0,0.0,0.0,0.0,0.0,-0.1137,-0.1185,0.0,0.0,-0.1464,-0.1572,-0.1598,-0.1604,-0.175,-0.1824,-0.1875,-0.1995,-0.2067,0.0,-0.2136,-0.227,-0.2346,-0.2439,-0.2615,-0.2754,-0.2847,0.0,0.0,0.0,0.0,0.0,0.0,0.0,0.0,0.0,0.0,0.0,-0.3833,-0.4091,-0.4122,-0.414,-0.414,-0.4073,-0.4036,-0.4036,-0.3859,-0.3763,-0.3763,-0.3604,-0.3448,-0.3372,-0.2902,-0.2668,-0.2589,-0.2198,-0.2119,-0.2041,-0.1886,-0.1729,-0.1572,-0.1493,-0.1415,-0.1335,-0.1572,-0.1807,-0.1964,-0.2433,-0.2826,-0.3136,0.0,0.0,0.0,0.0,0.0,-0.3087,-0.3087,-0.3342,-0.3499,-0.3499,-0.334,-0.3208,-0.3208,-0.3208,-0.3175,-0.3175,-0.3175,0.0,0.0,0.0,0.0,0.0,0.0,0.0,0.0,0.0,0.0,-0.1516,-0.1295,-0.1069,0.0,0.0,-0.0749,-0.0661,0.0,0.0,0.0,0.0,0.0,0.0,0.0,0.0,0.0,0.0,0.0,0.0,0.0,0.0,0.0,0.0,0.0,0.0,0.0,0.0,0.0,0.0,-0.1598,-0.17,-0.1747,-0.1761,-0.1831,-0.1972,-0.2014,-0.1981,0.0,0.0,-0.21,-0.2164,-0.219,-0.2234,-0.2473,-0.2565,-0.2598,0.0,0.0,-0.2793,0.0,0.0,0.0,0.0,0.0,-0.3054,0.0,-0.3447,-0.3754,-0.3865,-0.3952,-0.4036,-0.4036,-0.401,-0.3995,-0.3995,-0.3844,-0.3763,-0.3763,-0.3684,-0.3526,-0.3526,-0.3137,-0.2981,-0.2904,-0.2511,-0.2353,-0.2353,-0.212,-0.1885,-0.1806,-0.165,-0.1493,-0.1415,-0.1572,-0.1729,-0.1964,-0.2276,-0.2668,-0.3061,0.0,0.0,0.0,0.0,0.0,0.0,-0.3087,-0.3342,-0.3499,-0.3499,-0.334,-0.3208,-0.3208,-0.3208,-0.3175,-0.3105,-0.3105,0.0,0.0,0.0,0.0,0.0,0.0,0.0,0.0,0.0,0.0,-0.1516,-0.1111,-0.0908,-0.091,-0.0712,-0.0562,-0.0512,0.0,0.0,0.0,0.0,0.0,0.0,0.0,0.0,0.0,0.0,0.0,0.0,0.0,0.0,0.0,0.0,0.0,0.0,0.0,0.0,0.0,0.0,-0.1545,-0.1738,-0.1792,-0.1937,-0.2065,-0.2065,-0.213,-0.2113,0.0,0.0,-0.1973,-0.1973,-0.2096,-0.2219,-0.222,-0.2403,-0.2581,-0.2582,-0.2642,0.0,0.0,0.0,0.0,0.0,0.0,-0.2589,-0.2747,-0.3287,-0.3607,-0.3692,-0.3867,-0.4036,-0.4036,-0.395,-0.3901,-0.3901,-0.3812,-0.3763,-0.3763,-0.3763,-0.3684,-0.3526,-0.3526,-0.3372,-0.3062,-0.2904,-0.2826,-0.2747,-0.2353,-0.2196,-0.2196,-0.1728,-0.1572,-0.1572,-0.1572,-0.1729,-0.1886,-0.2118,-0.2431,-0.2824,0.0,0.0,0.0,0.0,0.0,0.0,0.0,-0.319,-0.3377,-0.3377,-0.3278,-0.3208,-0.3208,-0.3208,-0.3175,-0.3105,-0.3105,0.0,0.0,0.0,0.0,0.0,0.0,0.0,0.0,0.0,-0.1577,-0.1279,-0.1043,-0.0841,-0.0774,-0.0513,-0.032,-0.015,0.0118,0.0,0.0,0.0,0.0,0.0,0.0,0.0,0.0,0.0,0.0,0.0,0.0,0.0,0.0,0.0,0.0,0.0,0.0,0.0,0.0,0.0,0.0,0.0,-0.1746,-0.175,-0.1813,-0.1687,-0.1687,-0.1683,-0.1666,0.0,-0.1614,-0.1614,-0.1587,-0.1573,-0.1668,-0.1779,-0.1892,-0.1928,-0.1914,0.0,0.0,0.0,0.0,0.0,0.0,-0.2589,0.0,0.0,-0.3344,-0.3525,-0.3768,-0.3848,-0.3848,-0.3822,-0.3834,-0.3897,-0.381,-0.3763,-0.3763,-0.3763,-0.3763,-0.3684,-0.3604,-0.3448,-0.3372,-0.3139,-0.2984,-0.2982,-0.2746,-0.2511,-0.2353,-0.2118,-0.1885,-0.1572,-0.1572,-0.165,-0.1729,-0.1886,-0.2277,-0.2668,0.0,0.0,0.0,0.0,0.0,0.0,0.0,-0.3099,-0.3231,-0.3303,-0.3245,-0.3208,-0.3208,-0.3175,-0.3142,-0.3039,-0.3006,0.0,0.0,0.0,0.0,0.0,0.0,0.0,0.0,-0.1744,-0.1479,-0.1212,-0.0976,-0.0808,-0.0739,-0.0437,-0.0139,0.0219,0.0538,0.0,0.0,0.0,0.0,0.0,0.0,0.0,-0.0,0.0,0.0,0.0,0.0,0.0,0.0,0.0,0.0,0.0,0.0,0.0,0.0,0.0,-0.1446,0.0,0.0,-0.1576,-0.1576,-0.1455,-0.1455,0.0,0.0,0.0,-0.1389,-0.1389,-0.131,-0.1299,-0.1326,-0.1427,-0.1472,-0.1578,-0.156,0.0,0.0,0.0,0.0,0.0,0.0,0.0,0.0,-0.2982,-0.3217,-0.3448,-0.3684,-0.3763,-0.3763,-0.3763,-0.3789,-0.3846,-0.3793,-0.3763,-0.3763,-0.3763,-0.3763,-0.3763,-0.3684,-0.3604,-0.3604,-0.3372,-0.3217,-0.3217,-0.2982,-0.2826,0.0,-0.2431,-0.2118,-0.1806,-0.1729,-0.1728,-0.1806,-0.1963,-0.2199,-0.2511,0.0,0.0,0.0,0.0,0.0,0.0,0.0,-0.2974,-0.3107,-0.3252,-0.3216,-0.3155,-0.3155,-0.3101,-0.3039,-0.2904,0.0,0.0,0.0,0.0,0.0,0.0,0.0,0.0,0.0,-0.1648,-0.1415,-0.1179,-0.0942,-0.0808,-0.0773,-0.0437,-0.0,0.0511,0.0653,0.0,0.0,0.0,0.0,0.0,0.0,0.0,0.0,0.0,0.0,0.0,0.0,0.0,0.0,0.0,0.0,0.0,0.0,0.0,0.0,0.0,0.0,0.0,0.0,0.0,0.0,0.0,0.0,0.0,0.0,0.0,0.0,0.0,0.0,0.0,-0.129,-0.1328,-0.1374,-0.1476,-0.1521,0.0,0.0,0.0,0.0,0.0,-0.2353,0.0,-0.2747,-0.2982,-0.3217,-0.3448,-0.3684,-0.3841,-0.3841,-0.3841,-0.3841,-0.3841,-0.3841,-0.3841,-0.3763,-0.3763,-0.3841,-0.3841,-0.3841,-0.3841,-0.3841,-0.3682,-0.3526,-0.3526,-0.3295,-0.3061,-0.2824,-0.2589,-0.2431,-0.2196,-0.2043,-0.2042,-0.2196,-0.2196,-0.2353,-0.2511,0.0,0.0,0.0,0.0,0.0,0.0,0.0,0.0,0.0,0.0,-0.2834,-0.2885,-0.282,-0.2898,-0.2904,0.0,0.0,0.0,0.0,0.0,0.0,0.0,0.0,0.0,0.0,-0.1648,-0.1382,-0.1111,-0.0908,-0.0706,-0.0571,-0.037,-0.0,0.0585,0.0615,0.0,0.0,0.0,0.0,0.0,0.0,0.0,0.0,0.0,0.0,0.0,-0.009,-0.036,0.0,0.0,0.0,0.0,0.0,0.0,0.0,0.0,-0.0857,-0.0912,-0.0937,0.0,-0.1154,-0.1015,-0.1022,0.0,0.0,0.0,0.0,0.0,0.0,0.0,0.0,0.0,0.0,-0.1111,0.0,-0.1201,0.0,0.0,0.0,0.0,-0.2276,-0.2589,-0.2747,-0.2982,-0.3217,-0.3448,-0.3684,-0.3843,-0.3999,-0.4001,-0.4077,-0.4229,-0.4229,-0.4073,-0.3841,-0.3763,-0.3843,-0.4001,-0.4001,-0.4075,-0.4229,-0.4229,-0.4073,-0.3921,-0.3765,-0.3528,-0.3292,-0.3061,-0.2746,-0.2431,-0.2354,-0.2199,-0.1963,-0.2118,-0.2196,-0.2275,0.0,0.0,0.0,0.0,0.0,0.0,0.0,0.0,0.0,0.0,0.0,-0.2679,-0.2694,-0.2745,0.0,0.0,0.0,0.0,0.0,0.0,0.0,0.0,0.0,0.0,-0.1911,-0.1581,-0.1313,-0.111,-0.0908,-0.0706,-0.0504,-0.038,-0.0071,0.0329,0.0512,0.0,0.0,0.0,0.0,0.0,0.0405,0.0,0.0,0.0,0.0,0.0,-0.0,-0.018,0.0,-0.0539,-0.0629,-0.0722,0.0,0.0,0.0,0.0,-0.0767,-0.077,-0.0735,-0.086,-0.094,-0.0905,-0.092,-0.0877,0.0,0.0,0.0,0.0,0.0,0.0,0.0,0.0,0.0,0.0,-0.1027,0.0,0.0,0.0,0.0,0.0,-0.2354,-0.2746,0.0,-0.3139,-0.345,-0.3763,-0.3843,-0.3999,-0.4233,-0.4231,-0.4309,-0.4384,-0.4384,-0.4307,-0.4073,-0.4073,-0.4153,-0.4231,-0.4231,-0.4309,-0.4384,-0.4384,-0.4307,-0.4231,-0.4153,-0.3997,-0.3763,-0.353,-0.3215,-0.2901,-0.2824,-0.2591,-0.2356,-0.2433,-0.2431,-0.2353,0.0,0.0,0.0,0.0,0.0,0.0,0.0,0.0,0.0,0.0,0.0,0.0,0.0,0.0,0.0,0.0,0.0,0.0,0.0,0.0,0.0,0.0,0.0,-0.1911,-0.1911,-0.1514,-0.1246,-0.1111,-0.0916,-0.0716,-0.0511,-0.036,-0.0185,-0.0,0.0369,0.0565,0.0,0.0,0.0719,0.0674,0.0629,0.0,0.0,0.0,0.0,0.0,0.0,0.0,0.0,-0.027,-0.045,-0.0584,-0.0629,0.0,0.0,0.0,0.0,0.0,-0.0704,-0.0678,-0.0697,-0.081,-0.0885,-0.08,0.0,0.0,0.0,0.0,0.0,0.0,0.0,0.0,0.0,0.0,0.0,0.0,0.0,0.0,0.0,-0.2184,-0.2589,0.0,-0.3141,-0.3372,-0.3684,-0.4079,-0.4157,-0.4233,-0.4462,-0.4462,-0.4462,-0.4462,-0.4462,-0.4462,-0.4462,-0.4462,-0.4384,-0.4462,-0.4462,-0.4462,-0.4462,-0.454,-0.454,-0.4462,-0.4462,-0.4384,-0.4155,-0.3997,-0.3761,-0.3448,-0.3295,-0.3061,-0.2904,-0.2826,-0.2746,-0.2589,0.0,0.0,0.0,0.0,0.0,0.0,0.0,0.0,0.0,0.0,0.0,0.0,0.0,0.0,0.0,0.0,0.0,0.0,0.0,0.0,0.0,0.0,-0.1981,-0.1911,-0.1911,-0.1514,-0.1246,-0.1179,-0.0987,-0.0793,-0.0577,-0.038,-0.0198,-0.0,0.0044,0.0223,0.045,0.0629,0.0719,0.0674,0.027,0.0,0.0,0.0,0.0,0.0,0.0,0.0,0.0,-0.0045,-0.009,-0.0135,-0.036,0.0,0.0,0.0,0.0,0.0,-0.0634,-0.041,-0.0188,-0.0413,-0.069,-0.0913,0.0,0.0,0.0,0.0,0.0,0.0,0.0,0.0,0.0,0.0,0.0,0.0,0.0,0.0,-0.1979,-0.2425,0.0,-0.2981,-0.337,-0.3606,-0.3843,-0.4079,-0.4231,-0.4462,-0.4621,-0.4621,-0.4701,-0.4937,-0.4937,-0.4937,-0.4937,-0.4543,-0.4462,-0.4621,-0.4621,-0.4779,-0.4937,-0.5087,-0.501,-0.4698,-0.4849,-0.4693,-0.4384,-0.4307,-0.4153,-0.3999,-0.3765,-0.3528,-0.3292,-0.3139,-0.3062,-0.3061,0.0,0.0,0.0,0.0,0.0,0.0,0.0,0.0,0.0,0.0,0.0,0.0,0.0,0.0,0.0,0.0,0.0,0.0,0.0,0.0,0.0,-0.222,-0.2047,-0.1947,-0.1911,-0.1514,-0.1299,-0.1267,-0.1046,-0.085,-0.0647,-0.0319,-0.0084,-0.0,-0.0,0.0087,0.0173,0.0296,0.034,0.0304,0.0,0.0,0.0,0.0,0.0,0.0,0.0,0.0,0.0,0.0,-0.0,0.0045,0.0135,0.0,0.0,0.0,0.0,0.0,-0.009,0.0137,0.0426,0.0254,-0.0,0.0,0.0,0.0,0.0,0.0,0.0,0.0,0.0,0.0,0.0,0.0,0.0,-0.1351,-0.1629,-0.1954,-0.2292,0.0,0.0,-0.3292,-0.3604,-0.3841,-0.4077,-0.4389,-0.4618,-0.4774,-0.501,-0.509,-0.5249,-0.5326,-0.5329,-0.5329,-0.5329,-0.5168,-0.501,-0.501,-0.501,-0.5168,-0.5326,-0.5401,-0.5323,-0.5168,-0.5321,-0.5243,-0.501,-0.4932,-0.4774,-0.4543,-0.4387,-0.4075,-0.3763,-0.3372,-0.3294,-0.3372,0.0,0.0,0.0,0.0,0.0,0.0,0.0,0.0,0.0,0.0,0.0,0.0,0.0,0.0,0.0,0.0,0.0,0.0,0.0,0.0,-0.2377,-0.2286,-0.2117,-0.1981,-0.1911,-0.1565,-0.1366,-0.1315,-0.1158,-0.093,-0.0691,-0.0337,-0.0087,-0.0,-0.0,-0.0,-0.0,-0.0,-0.0,-0.0,0.0,0.0,0.0,0.0,0.0,0.0,0.0,0.0,0.0,0.0,0.0,0.0,0.0,0.0,0.0,0.0494,0.045,0.045,0.045,0.0649,0.082,0.08,0.0,0.0,0.0,0.0,0.0,0.0,0.0,0.0,0.0,0.0,0.0,0.0,-0.1351,-0.1522,-0.1733,-0.2205,-0.2613,-0.282,-0.3294,-0.3682,-0.3843,-0.4077,-0.4389,-0.4776,-0.4929,-0.5162,-0.5321,-0.5479,-0.5637,-0.5637,-0.5637,-0.5637,-0.5637,-0.5637,-0.5559,-0.5398,-0.5398,-0.5479,-0.5637,-0.5637,-0.5637,-0.5637,-0.5637,-0.5637,-0.5559,-0.5401,-0.5243,-0.5085,-0.4932,-0.4623,-0.4155,-0.3761,-0.3682,-0.3761,0.0,0.0,0.0,0.0,0.0,0.0,0.0,0.0,0.0,0.0,0.0,0.0,0.0,0.0,0.0,0.0,0.0,0.0,0.0,0.0,-0.2377,-0.2286,-0.2117,-0.1981,-0.1911,-0.1763,-0.1595,-0.1388,-0.1316,-0.1065,-0.0713,-0.067,-0.0439,-0.0,-0.0,-0.0,-0.0,-0.0,-0.0,-0.0,-0.0,0.0,0.0,0.0,0.0,0.0,0.0,0.0,0.0,0.0,0.0,0.0,0.0,0.0,0.0719,0.0674,0.0674,0.0674,0.0674,0.0742,0.082,0.08,0.0,0.0,0.0,0.0,0.0,0.0,0.0,0.0,0.0,0.0,0.0,0.0,-0.1336,-0.1584,-0.1742,0.0,-0.2662,-0.3061,-0.353,-0.3843,-0.4079,-0.4467,-0.4776,-0.4927,-0.5162,-0.5398,-0.5559,-0.5559,-0.5637,-0.5637,-0.5637,-0.5637,-0.5637,-0.5637,-0.5559,-0.5559,-0.5559,-0.5559,-0.5637,-0.5789,-0.5789,-0.5637,-0.5786,-0.5786,-0.5637,-0.5559,-0.5559,-0.5559,-0.5323,-0.501,-0.4623,-0.4384,-0.4307,-0.4307,0.0,0.0,0.0,0.0,0.0,0.0,0.0,0.0,0.0,0.0,0.0,0.0,0.0,0.0,0.0,0.0,0.0,0.0,0.0,0.0,-0.2444,-0.238,-0.225,-0.2117,-0.1981,-0.1804,-0.1662,-0.1603,-0.1424,-0.1219,-0.0864,-0.0778,-0.059,-0.0403,-0.0117,-0.0,-0.0,-0.0,-0.0,-0.0,0.023,0.036,0.0,0.0,0.0,0.0,0.0,0.0,0.0,0.0,0.0584,0.0629,0.0719,0.081,0.0899,0.0942,0.0942,0.0947,0.1019,0.1008,0.1047,0.1087,0.0,0.0,0.0,0.0,0.0,0.0,0.0,0.0,0.0,0.0,0.0,-0.1189,-0.1505,-0.1753,-0.1856,-0.2421,-0.2981,-0.3294,-0.3686,-0.4077,-0.4467,-0.4698,-0.5007,-0.5162,-0.5473,-0.5709,-0.5789,-0.5948,-0.6028,-0.6028,-0.6028,-0.6028,-0.6028,-0.6028,-0.6028,-0.6028,-0.5867,-0.5867,-0.6028,-0.6103,-0.6103,-0.6025,-0.6254,-0.6328,-0.6254,-0.6254,-0.618,-0.6025,-0.5634,-0.5323,-0.5087,-0.501,-0.4851,-0.4771,0.0,0.0,0.0,0.0,0.0,0.0,0.0,0.0,0.0,0.0,0.0,0.0,0.0,0.0,0.0,0.0,0.0,0.0,0.0,-0.2577,-0.2477,-0.2441,-0.2347,-0.222,-0.2047,-0.1875,-0.179,-0.1724,-0.1482,-0.1247,-0.0948,-0.0825,-0.0724,-0.0652,-0.0296,-0.0072,-0.0,0.0102,0.0172,0.0178,0.0362,0.0532,0.0,0.0,0.0,0.0,0.0,0.0,0.0,0.0,0.0808,0.0853,0.0,0.1034,0.1033,0.1075,0.1119,0.113,0.1178,0.1177,0.1222,0.0,0.0,0.0,0.0,0.0,0.0,0.0,0.0,0.0,0.0,0.0,0.0,0.0,-0.1619,-0.1871,-0.1981,-0.2717,-0.3289,-0.3607,-0.4008,-0.4475,-0.4833,-0.5064,-0.5283,-0.5479,-0.5786,-0.6018,-0.6096,-0.6331,-0.649,-0.649,-0.6412,-0.6412,-0.6412,-0.6338,-0.6338,-0.6261,-0.6099,-0.6099,-0.6338,-0.6338,-0.6412,-0.6412,-0.6641,-0.6714,-0.6714,-0.6714,-0.6641,-0.6486,-0.6099,-0.5867,-0.5709,-0.5628,-0.547,-0.5392,0.0,0.0,0.0,0.0,0.0,0.0,0.0,0.0,0.0,0.0,0.0,0.0,0.0,0.0,0.0,0.0,0.0,0.0,0.0,-0.2577,-0.251,-0.251,-0.2383,-0.2253,-0.2117,-0.2018,-0.1941,-0.1802,-0.1476,-0.1148,-0.0903,-0.0825,-0.0727,-0.0583,-0.0474,-0.0248,0.0034,0.037,0.0504,0.0473,0.0357,0.0401,0.0516,0.0,0.0,0.0,0.0,0.0,0.0,0.0,0.1119,0.1119,0.1119,0.0,0.1119,0.1119,0.1119,0.113,0.1178,0.1226,0.0,0.0,0.0,0.0,0.0,0.0,0.0,0.0,0.0,0.0,0.0,0.0,0.0,-0.1253,-0.1683,-0.2032,-0.2276,-0.2899,-0.3613,-0.4036,-0.4453,-0.4826,-0.5197,-0.535,-0.5618,-0.5873,-0.618,-0.6412,-0.6563,-0.6791,-0.6865,-0.6865,-0.6714,-0.6641,-0.6641,-0.6412,-0.6338,-0.6335,-0.6335,-0.6335,-0.6338,-0.6486,-0.6563,-0.6641,-0.6788,-0.6942,-0.6942,-0.6942,-0.6942,-0.6865,-0.6714,-0.6641,-0.656,-0.6321,-0.624,-0.624,0.0,0.0,0.0,0.0,0.0,0.0,0.0,0.0,0.0,0.0,0.0,0.0,0.0,0.0,0.0,0.0,0.0,0.0,0.0,-0.2679,-0.2613,-0.251,-0.2411,-0.2314,-0.2253,-0.2091,-0.1902,-0.1644,-0.1549,-0.1288,-0.0895,-0.0895,-0.0762,-0.0517,-0.0379,-0.0068,0.037,0.0471,0.0504,0.0505,0.0547,0.0635,0.0734,0.0,0.0,0.0,0.0,0.0,0.0,0.0,0.0,0.0,0.1208,0.0,0.1344,0.1433,0.1523,0.1638,0.1756,0.1702,0.0,0.0,0.0,0.0,0.0,0.0,0.0,0.0,0.0,0.0,0.0604,0.0,0.0,-0.1207,-0.1724,-0.208,-0.2331,-0.2929,-0.3612,-0.4199,-0.4699,-0.5072,-0.5364,-0.5755,-0.6019,-0.619,-0.6412,-0.6563,-0.6788,-0.6865,-0.6865,-0.6865,-0.6865,-0.6788,-0.6788,-0.6641,-0.643,-0.6321,-0.617,-0.6156,-0.6338,-0.6486,-0.6563,-0.6641,-0.6949,-0.7103,-0.7103,-0.7103,-0.7022,-0.6865,-0.6865,-0.6788,-0.6788,-0.6707,-0.6707,-0.6707,0.0,0.0,0.0,0.0,0.0,0.0,0.0,0.0,0.0,0.0,0.0,0.0,0.0,0.0,0.0,0.0,0.0,0.0,0.0,0.0,-0.2679,-0.251,-0.2441,-0.2311,-0.215,-0.1977,-0.1755,-0.1479,-0.1471,-0.1264,-0.0848,-0.0848,-0.0694,-0.0504,-0.0269,0.0067,0.0504,0.0571,0.0571,0.0605,0.0706,0.0765,0.0843,0.0,0.0,0.0,0.0,0.0,0.0,0.0,0.0,0.0,0.0,0.0,0.0,0.1658,0.1769,0.1866,0.1988,0.0,0.0,0.0,0.0,0.0,0.0,0.0,0.0,0.0,0.0,0.1066,0.0622,-0.016,0.0,-0.1236,-0.1765,-0.2129,-0.247,-0.3088,-0.3793,-0.4565,-0.4994,-0.5357,-0.5688,-0.6159,-0.6401,-0.643,-0.6641,-0.6868,-0.7022,-0.7096,-0.7173,-0.7173,-0.7099,-0.6988,-0.692,-0.6695,-0.6464,-0.6298,-0.6155,-0.6208,-0.6303,-0.645,-0.6525,-0.6603,-0.6978,-0.7127,-0.7127,-0.7198,-0.7119,-0.7041,-0.7119,-0.7159,-0.7295,-0.7295,-0.7343,-0.7407,0.0,0.0,0.0,0.0,0.0,0.0,0.0,0.0,0.0,0.0,0.0,0.0,0.0,0.0,0.0,0.0,0.0,0.0,0.0,0.0,-0.2712,-0.251,-0.2411,-0.2211,-0.1911,-0.1778,-0.1544,-0.1279,-0.1275,-0.1131,-0.0808,-0.0739,-0.0605,-0.0437,0.0,0.0202,0.0538,0.0639,0.0706,0.0707,0.0812,0.0873,0.0954,0.1086,0.0,0.0,0.0,0.0,0.0,0.0,0.0,0.0,0.1794,0.1794,0.1839,0.1839,0.1893,0.1972,0.0,0.0,0.0,0.0,0.0,0.0,0.0,0.0,0.0,0.0,0.0,0.108,0.0646,-0.0082,-0.0823,-0.1347,-0.1806,-0.2265,-0.2785,-0.3276,-0.3942,-0.4921,-0.528,-0.5545,-0.5978,-0.645,-0.6739,-0.6662,-0.6949,-0.7184,-0.7257,-0.7407,-0.7484,-0.7484,-0.7318,-0.7083,-0.6919,-0.6685,-0.6518,-0.6279,-0.6279,-0.6272,-0.6257,-0.6362,-0.6523,-0.667,-0.6881,-0.7023,-0.7023,-0.7162,-0.7229,-0.7229,-0.7451,-0.7627,-0.7777,-0.7777,-0.7891,-0.8049,0.0,0.0,0.0,0.0,0.0,0.0,0.0,0.0,0.0,0.0,0.0,0.0,0.0,0.0,0.0,0.0,0.0,0.0,0.0,0.0,-0.2646,-0.251,-0.2281,-0.2081,-0.1911,-0.1709,-0.1477,-0.1212,-0.1158,-0.1056,0.0,0.0,0.0,-0.0101,0.0,0.0235,0.0672,0.0672,0.0739,0.0811,0.1022,0.1119,0.1179,0.1447,0.1583,0.0,0.0,0.0,0.0,0.0,0.0,0.0,0.1794,0.1884,0.1973,0.1973,0.2077,0.2207,0.0,0.0,0.0,0.0,0.0,0.0,0.0,0.0,0.0,0.0,0.1385,0.1101,0.0648,-0.0083,-0.0842,-0.1293,-0.1848,-0.2316,-0.2847,-0.3307,-0.3942,-0.4921,-0.5364,-0.5714,-0.5975,-0.6529,-0.6894,-0.6813,-0.7026,-0.7257,-0.7407,-0.7484,-0.7484,-0.7484,-0.7279,-0.719,-0.715,-0.6791,-0.6493,-0.6395,-0.619,-0.6188,-0.6198,-0.6472,-0.6666,-0.6952,-0.7091,-0.7158,-0.7158,-0.738,-0.7451,-0.7451,-0.7455,-0.7553,-0.7583,-0.7651,-0.7749,-0.7857,0.0,0.0,0.0,0.0,0.0,0.0,0.0,0.0,0.0,0.0,0.0,0.0,0.0,0.0,0.0,0.0,0.0,0.0,0.0,0.0,0.0,-0.2314,-0.2147,-0.1947,-0.1778,-0.1611,-0.1412,-0.1145,-0.1043,0.0,0.0,0.0,0.0,-0.0,0.0,0.0471,0.0708,0.0796,0.091,0.102,0.1222,0.1341,0.1455,0.1692,0.1831,0.187,0.1958,0.0,0.0,0.0,0.0,0.0,0.0,0.0,0.2109,0.2109,0.2199,0.2356,0.0,0.0,0.0,0.0,0.0,0.0,0.0,0.0,0.0,0.0,0.1402,0.1191,0.0658,-0.0084,-0.0851,-0.1318,-0.1872,-0.2333,-0.2868,-0.3405,-0.403,-0.4919,-0.5494,-0.5912,-0.6139,-0.6713,-0.7057,-0.7042,-0.7334,-0.7569,-0.7642,-0.7718,-0.7677,-0.7509,-0.7418,-0.7216,-0.6972,-0.6738,-0.6529,-0.6423,-0.6289,-0.6242,-0.6288,-0.6407,-0.6627,-0.6829,-0.6962,-0.6962,-0.7104,-0.7245,-0.7382,-0.7382,-0.7519,-0.7647,-0.7729,-0.7938,-0.8069,-0.815,0.0,0.0,0.0,0.0,0.0,0.0,0.0,0.0,0.0,0.0,0.0,0.0,0.0,0.0,0.0,0.0,0.0,0.0,0.0,0.0,0.0,0.0,-0.1981,-0.1811,-0.1609,-0.1494,-0.1333,-0.1093,0.0,0.0,0.0,0.0,0.0,0.017,0.0,0.0761,0.0798,0.098,0.1109,0.1262,0.1401,0.1583,0.1766,0.1907,0.2,0.2064,0.2154,0.2201,0.2201,0.2201,0.0,0.0,0.0,0.0,0.2201,0.2201,0.228,0.2417,0.0,0.0,0.0,0.0,0.0,0.0,0.0,0.0,0.0,0.1634,0.1415,0.1196,0.0668,-0.0084,-0.0854,-0.1426,-0.1885,-0.2333,-0.2868,-0.3492,-0.42,-0.4896,-0.5515,-0.6002,-0.6268,-0.6792,-0.7126,-0.7273,-0.7569,-0.7804,-0.788,-0.7995,-0.7903,-0.759,-0.7453,-0.7204,-0.6765,-0.6664,-0.657,-0.642,-0.642,-0.642,-0.642,-0.6416,-0.6548,-0.6675,-0.6741,-0.6811,-0.6946,-0.7204,-0.7269,-0.7335,-0.7596,-0.7834,-0.8053,-0.8198,-0.8381,-0.8607,0.0,0.0,0.0,0.0,0.0,0.0,0.0,0.0,0.0,0.0,0.0,0.0,0.0,0.0,0.0,0.0,0.0,0.0,0.0,0.0,0.0,-0.2117,-0.1811,-0.1642,-0.1609,-0.1304,-0.1119,0.0,0.0,0.0,0.0,0.0,0.0,0.0687,0.0,0.0,0.1042,0.1204,0.1322,0.1402,0.1716,0.1838,0.1899,0.2107,0.2144,0.2154,0.2201,0.2201,0.2201,0.2201,0.2201,0.0,0.0,0.0,0.2201,0.2201,0.228,0.2417,0.0,0.0,0.0,0.0,0.0,0.0,0.0,0.0,0.0,0.0,0.1493,0.1196,0.0668,-0.0084,-0.1025,-0.1961,-0.2154,-0.2423,-0.3048,-0.3582,-0.4176,-0.4971,-0.5553,-0.6048,-0.6367,-0.6805,-0.7202,-0.7419,-0.7646,-0.7876,-0.803,-0.7939,-0.7829,-0.7734,-0.727,-0.694,-0.6894,-0.6601,-0.6444,-0.642,-0.642,-0.642,-0.642,-0.6613,-0.6675,-0.6675,-0.6811,-0.7012,-0.7204,-0.7531,-0.7661,-0.7666,-0.7857,-0.8002,-0.8027,-0.8153,-0.8309,-0.8543,0.0,0.0,0.0,0.0,0.0,0.0,0.0,0.0,0.0,0.0,0.0,0.0,0.0,0.0,0.0,0.0,0.0,0.0,0.0,0.0,0.0,-0.1811,-0.1727,-0.1546,-0.1336,-0.1224,-0.1066,0.0,0.0,0.0,0.0,0.0435,0.0703,0.0,0.0,0.0,0.0,0.0,0.1468,0.1595,0.1842,0.2008,0.2099,0.2184,0.2201,0.2201,0.2201,0.2201,0.2201,0.2201,0.2201,0.2201,0.2201,0.0,0.0,0.0,0.2223,0.0,0.0,0.0,0.0,0.0,0.0,0.0,0.0,0.0,0.1547,0.1452,0.0934,0.0476,0.0328,-0.025,-0.1021,-0.1929,-0.2226,-0.2592,-0.3087,-0.3784,-0.4448,-0.4947,-0.5635,-0.6128,-0.6568,-0.6953,-0.7262,-0.765,-0.7774,-0.7864,-0.8094,-0.8043,-0.7879,-0.7633,-0.7393,-0.7116,-0.6802,-0.6651,-0.6482,-0.642,-0.6548,-0.6544,-0.6544,-0.6745,-0.6811,-0.6811,-0.7007,-0.7204,-0.7466,-0.7666,-0.7797,-0.7857,-0.8047,-0.8107,-0.8112,-0.8306,-0.8511,-0.8705,0.0,0.0,0.0,0.0,0.0,0.0,0.0,0.0,0.0,0.0,0.0,0.0,0.0,0.0,0.0,0.0,0.0,0.0,0.0,0.0,0.0,-0.1573,-0.1531,-0.1393,-0.1078,-0.1093,0.0,0.0,0.0,0.0,0.0244,0.0759,0.0968,0.0,0.0977,0.0,0.0,0.0,0.0,0.0,0.1949,0.2109,0.2201,0.2201,0.2201,0.2201,0.2201,0.2201,0.2201,0.2201,0.2156,0.2158,0.2182,0.2143,0.0,0.0,0.0,0.0,0.0,0.0,0.0,0.0,0.0,0.0,0.0,0.0,0.1385,0.0,0.0384,-0.0078,-0.0402,-0.074,-0.1177,-0.1976,-0.2359,-0.2722,-0.328,-0.4044,-0.4692,-0.5085,-0.5728,-0.6301,-0.6741,-0.7099,-0.7391,-0.7808,-0.7821,-0.7937,-0.8111,-0.8051,-0.7864,-0.7582,-0.7464,-0.7225,-0.6806,-0.6806,-0.6679,-0.6548,-0.6679,-0.6741,-0.6741,-0.6876,-0.7012,-0.7073,-0.7204,-0.7466,-0.7731,-0.7792,-0.7922,-0.8047,-0.8242,-0.8306,-0.8306,-0.8447,-0.8646,-0.8835,0.0,0.0,0.0,0.0,0.0,0.0,0.0,0.0,0.0,0.0,0.0,0.0,0.0,0.0,0.0,-0.251,-0.2383,-0.2217,-0.1914,-0.1742,-0.1543,-0.1408,-0.1236,0.0,-0.1016,-0.0902,0.0,0.0,0.0,0.0,0.067,0.0895,0.1028,0.1112,0.1202,0.1335,0.1379,0.0,0.0,0.0,0.0,0.2201,0.0,0.0,0.2201,0.2201,0.2201,0.2201,0.2201,0.2201,0.2109,0.2033,0.2067,0.1996,0.1917,0.0,0.0,0.0,0.0,0.0,0.0,0.0,0.0,0.0,0.0,0.0,0.1283,0.03,-0.0,-0.0306,-0.1411,-0.1606,-0.189,-0.2435,-0.2615,-0.2953,-0.379,-0.4376,-0.4921,-0.5378,-0.5996,-0.6493,-0.6891,-0.7257,-0.7563,-0.776,-0.7968,-0.8098,-0.8108,-0.7905,-0.7792,-0.7782,-0.7389,-0.7213,-0.7204,-0.7012,-0.6881,-0.6881,-0.6881,-0.6881,-0.6881,-0.7073,-0.7265,-0.7456,-0.7461,-0.7591,-0.7731,-0.8042,-0.8172,-0.8236,-0.8376,-0.8511,-0.8511,-0.8517,-0.8646,-0.877,0.0,0.0,0.0,0.0,0.0,0.0,0.0,0.0,0.0,0.0,0.0,0.0,0.0,-0.2517,-0.2383,-0.2247,-0.2014,-0.1805,-0.1728,-0.1522,-0.1378,-0.1259,-0.1263,-0.1132,-0.0863,-0.0946,0.0,0.0,0.0,0.0315,0.09,0.0988,0.112,0.1208,0.1299,0.1344,0.1433,0.1614,0.0,0.0,0.0,0.0,0.0,0.0,0.0,0.0,0.0,0.0,0.0,0.2086,0.2037,0.1992,0.1873,0.183,0.1745,0.1655,0.161,0.0,0.0,0.0,0.0,0.0,0.0,0.0,0.0,0.0547,0.0423,-0.0144,-0.0657,-0.1192,-0.1988,-0.2062,-0.2119,-0.2549,-0.2999,-0.3428,-0.3874,-0.4517,-0.5125,-0.5477,-0.6172,-0.6659,-0.6874,-0.7234,-0.7533,-0.7568,-0.7655,-0.7766,-0.7891,-0.7688,-0.7574,-0.7574,-0.7499,-0.733,-0.7204,-0.7012,-0.6881,-0.6881,-0.7012,-0.7073,-0.7073,-0.74,-0.7531,-0.7661,-0.7847,-0.7977,-0.8047,-0.8172,-0.8306,-0.8376,-0.8447,-0.8517,-0.8517,-0.8517,-0.8646,-0.877,0.0,0.0,0.0,0.0,0.0,0.0,0.0,0.0,0.0,0.0,0.0,0.0,0.0,0.0,-0.2099,-0.1928,-0.169,-0.1517,-0.1451,-0.131,-0.1148,-0.1085,-0.112,-0.0933,-0.056,-0.0665,0.0,0.0,0.0,0.0,0.0,0.1121,0.1208,0.1299,0.1344,0.1344,0.0,0.0,0.0,0.1647,0.0,0.0,0.1946,0.0,0.0,0.0,0.0,0.0,0.0,0.0,0.1817,0.1772,0.1639,0.1608,0.1579,0.1401,0.1268,0.0,0.101,0.0,0.0,0.0,0.0,0.0,0.0,0.0,-0.0548,-0.0768,-0.1279,-0.1887,-0.2383,-0.2458,-0.2602,-0.2804,-0.3334,-0.383,-0.4139,-0.4831,-0.5407,-0.5657,-0.6249,-0.6663,-0.6845,-0.7273,-0.7492,-0.7513,-0.7587,-0.7618,-0.7673,-0.7602,-0.7521,-0.7521,-0.7521,-0.7461,-0.733,-0.7138,-0.7073,-0.7073,-0.7269,-0.7335,-0.74,-0.7601,-0.7731,-0.7857,-0.8107,-0.8172,-0.8236,-0.8306,-0.8376,-0.8517,-0.8517,-0.8517,-0.8517,-0.8517,-0.8576,-0.8705,0.0,0.0,0.0,0.0,0.0,0.0,0.0,0.0,0.0,0.0,0.0,0.0,0.0,0.0,0.0,-0.1595,-0.1455,-0.1341,-0.1218,-0.1064,-0.0926,-0.08,-0.0802,-0.0517,-0.0,-0.0,0.0,0.0,0.0,0.0,0.0,0.0,0.1299,0.0,0.139,0.1391,0.1391,0.0,0.1655,0.1719,0.0,0.1907,0.1974,0.0,0.0,0.0,0.1672,0.1621,0.0,0.1519,0.0,0.0,0.0,0.0,0.1403,0.1291,0.0,0.0,0.0,0.0,0.0,0.0,0.0,0.0,-0.0064,0.0,-0.1575,-0.1522,-0.1889,-0.2259,-0.2605,-0.2909,-0.318,-0.3413,-0.3832,-0.4269,-0.4771,-0.5346,-0.5741,-0.582,-0.6309,-0.6666,-0.6869,-0.7229,-0.7509,-0.7519,-0.7705,-0.7678,-0.7536,-0.7521,-0.7521,-0.7521,-0.7521,-0.7521,-0.7521,-0.7521,-0.7521,-0.7521,-0.7521,-0.7591,-0.7731,-0.7731,-0.7917,-0.8172,-0.8236,-0.8236,-0.8236,-0.8447,-0.8517,-0.8517,-0.8517,-0.8517,-0.8517,-0.8517,-0.8517,-0.8517,0.0,0.0,0.0,0.0,0.0,0.0,0.0,0.0,0.0,0.0,0.0,0.0,0.0,0.0,-0.1513,-0.1345,-0.1193,-0.1101,-0.1113,-0.0951,-0.0886,-0.1015,-0.0486,-0.0133,-0.0,0.0315,0.0,0.0,0.0,0.0,0.0,0.0,0.0,0.0,0.1433,0.1452,0.1452,0.1499,0.0,0.0,0.1689,0.1677,0.0,0.0,0.0,0.0,0.0,0.1364,0.1364,0.0,0.1473,0.1366,0.0,0.0,0.0,0.0,0.0,0.0,-0.0168,0.0,0.0,0.0,0.0,0.0,0.0,0.0,-0.1749,-0.1908,-0.2146,-0.2536,-0.31,-0.3468,-0.379,-0.421,-0.4382,-0.4591,-0.4994,-0.5425,-0.5847,-0.6162,-0.652,-0.6828,-0.6908,-0.7246,-0.7441,-0.7304,-0.7485,-0.7583,-0.7526,-0.7521,-0.7521,-0.7521,-0.7521,-0.7521,-0.7521,-0.7521,-0.7521,-0.7521,-0.7596,-0.7661,-0.7731,-0.7982,-0.8107,-0.8236,-0.8376,-0.8447,-0.8447,-0.8447,-0.8517,-0.8517,-0.8517,-0.8517,-0.8517,-0.8517,-0.8517,-0.8447,0.0,0.0,0.0,0.0,0.0,0.0,0.0,0.0,0.0,0.0,0.0,0.0,0.0,0.0,0.0,-0.1173,-0.1013,-0.0949,-0.1081,-0.0693,-0.0526,-0.0629,-0.0225,0.0135,0.0405,0.0674,0.0,0.0,0.0,0.0,0.0,0.0,0.0,0.0,0.0,0.0,0.0,0.0,0.0,0.0,0.1601,0.0,0.0,0.1495,0.1352,0.0,0.0,0.0,0.1169,0.1228,0.1101,0.0,0.0,0.0,0.0,0.0,0.0,0.0,0.0,0.0,0.0,0.0,0.0,0.0,-0.1527,-0.1694,-0.1869,0.0,-0.246,-0.285,-0.3439,-0.3891,-0.4351,-0.4839,-0.4945,-0.5017,-0.5268,-0.5775,-0.6176,-0.6318,-0.666,-0.6958,-0.6987,-0.7248,-0.7332,-0.7339,-0.7456,-0.7521,-0.7521,-0.7521,-0.7521,-0.7521,-0.7521,-0.7521,-0.7521,-0.7521,-0.7526,-0.7591,-0.7661,-0.7792,-0.7917,-0.8107,-0.8236,-0.8306,-0.8447,-0.8517,-0.8517,-0.8517,-0.8517,-0.8517,-0.8517,-0.8517,-0.8517,-0.8376,-0.8376,-0.8376,0.0,0.0,0.0,-0.208,-0.208,-0.2039,0.0,0.0,0.0,0.0,0.0,0.0,0.0,0.0,0.0,0.0,-0.0849,-0.0777,-0.0987,-0.036,0.0045,0.009,0.009,0.0405,0.099,0.0989,0.0,0.0,0.0,0.0,0.0,0.0,0.0,0.0,0.0,0.0,0.0,0.0,0.0,0.1672,0.1557,0.1533,0.0,0.0,0.13,0.119,0.1223,0.105,0.0865,0.0803,0.0364,0.0,0.0,0.0,0.0,0.0,-0.1238,0.0,0.0,0.0,0.0,0.0,-0.1347,0.0,-0.1626,-0.1818,-0.2075,-0.238,-0.2826,-0.3266,-0.3712,-0.4246,-0.4782,-0.5311,-0.5392,-0.5471,-0.5566,-0.6128,-0.6459,-0.6379,-0.6685,-0.6945,-0.7136,-0.7136,-0.7274,-0.7423,-0.7512,-0.7521,-0.7521,-0.7521,-0.7521,-0.7521,-0.7521,-0.7521,-0.7526,-0.7526,-0.7591,-0.7731,-0.7727,-0.7922,-0.8172,-0.8236,-0.8306,-0.8517,-0.8517,-0.8517,-0.8517,-0.8517,-0.8517,-0.8517,-0.8517,-0.8511,-0.8447,-0.8236,-0.8166,-0.8172,0.0,0.0,0.0,-0.2039,-0.1882,-0.1763,0.0,0.0,0.0,0.0,0.0,0.0,0.0,0.0,0.0,0.0,-0.0533,-0.0178,-0.0225,-0.009,0.018,0.0539,0.0719,0.0855,0.099,0.1033,0.1165,0.0,0.0,0.0,0.0,0.0,0.0,0.0,0.0,0.0,0.0,0.0,0.0,0.1617,0.1574,0.0,0.1286,0.1235,0.1138,0.098,0.0678,0.0556,0.0432,0.0185,-0.0369,-0.0857,0.0,0.0,0.0,-0.1168,0.0,0.0,0.0,0.0,0.0,0.0,-0.1685,0.0,-0.2033,-0.2252,-0.2536,-0.2671,-0.3162,-0.3596,-0.3845,-0.4423,-0.4941,-0.5123,-0.5467,-0.5763,-0.5962,-0.5939,-0.6026,-0.6301,-0.6537,-0.666,-0.6721,-0.6786,-0.6979,-0.7269,-0.7431,-0.7521,-0.7521,-0.7521,-0.7521,-0.7521,-0.7521,-0.7526,-0.7661,-0.7661,-0.7727,-0.7922,-0.8042,-0.8107,-0.8236,-0.8376,-0.8447,-0.8517,-0.8517,-0.8517,-0.8517,-0.8517,-0.8517,-0.8517,-0.8517,-0.8376,-0.8236,-0.8236,-0.8107,-0.7982,0.0,0.0,0.0,-0.1891,-0.1764,-0.1638,-0.1553,0.0,0.0,0.0,0.0,0.0,0.0,0.0,0.0,0.0,0.0,0.0,0.0,0.0381,0.0572,0.0906,0.0954,0.105,0.1193,0.1334,0.1477,0.0,0.0,0.0,0.0,0.0,0.0,0.0,0.0,0.0,0.0,0.0,0.1741,0.1471,0.1506,0.0,0.121,0.1105,0.0936,0.0696,0.0707,0.0258,-0.0388,-0.0517,-0.0831,0.0,-0.1136,-0.1236,-0.1328,0.0,-0.1474,-0.1496,0.0,0.0,0.0,-0.185,-0.1962,0.0,0.0,-0.2556,-0.2758,-0.3101,-0.3472,-0.3841,-0.4204,-0.4743,-0.5222,-0.5396,-0.5747,-0.6015,-0.6284,-0.6242,-0.6306,-0.6551,-0.6727,-0.6902,-0.6957,-0.6966,-0.6954,-0.6998,-0.7196,-0.7374,-0.7374,-0.7469,-0.7526,-0.7596,-0.7596,-0.7661,-0.7857,-0.7857,-0.7922,-0.8112,-0.8172,-0.8236,-0.8376,-0.8447,-0.8517,-0.8517,-0.8517,-0.8517,-0.8517,-0.8517,-0.8447,-0.8376,-0.8376,-0.8306,-0.8172,-0.7982,-0.7922,-0.7857,0.0,0.0,0.0,0.0,-0.1614,-0.1478,-0.1344,-0.1299,0.0,0.0,0.0,0.0,0.0,0.0,0.0,0.0,0.0,0.0,0.0,0.0,0.0908,0.1059,0.1059,0.116,0.1413,0.1616,0.1767,0.1817,0.0,0.0,0.0,0.0,0.0,0.0,0.0,0.0,0.0,0.0,0.0,0.144,0.0,0.128,0.1125,0.1024,0.078,0.0527,0.061,-0.0136,-0.1087,-0.1087,-0.1067,-0.1107,-0.1235,-0.1338,0.0,0.0,0.0,0.0,0.0,0.0,0.0,0.0,0.0,-0.2352,0.0,0.0,0.0,-0.3471,-0.3769,-0.401,-0.4589,-0.5042,-0.5485,-0.5723,-0.5947,-0.619,-0.6473,-0.6557,-0.6665,-0.6787,-0.6905,-0.7076,-0.7183,-0.7116,-0.7027,-0.679,-0.7045,-0.7178,-0.7216,-0.7374,-0.7548,-0.7731,-0.7731,-0.7857,-0.8047,-0.8047,-0.8112,-0.8236,-0.8236,-0.8371,-0.8517,-0.8517,-0.8517,-0.8517,-0.8517,-0.8517,-0.8517,-0.8447,-0.8376,-0.8172,-0.8172,-0.8172,-0.8042,-0.7792,-0.7666,-0.7661,-0.1825,-0.1743,0.0,0.0,-0.1389,-0.1299,-0.1164,-0.1077,0.0,0.0,0.0,0.0,0.0,0.0,0.0,0.0,0.0,0.0,0.0806,0.0,0.0,0.1009,0.121,0.1363,0.1413,0.1666,0.1869,0.197,0.0,0.0,0.0,0.0,0.0,0.0,0.2247,0.0,0.0,0.0,0.1619,0.0,0.1343,0.1217,0.0,0.1032,0.0999,0.0836,-0.0501,-0.1068,-0.1116,0.0,-0.1165,-0.1272,0.0,-0.151,-0.1732,-0.1794,0.0,0.0,0.0,0.0,0.0,0.0,-0.2296,-0.2521,-0.2805,0.0,-0.3132,-0.3527,0.0,-0.4216,-0.449,0.0,0.0,-0.5575,-0.5949,-0.6261,-0.6365,-0.6544,-0.6673,-0.6728,-0.6728,-0.6723,-0.6778,-0.691,-0.6969,-0.6793,-0.6998,-0.7203,-0.7389,-0.7418,-0.7585,-0.7982,-0.7987,-0.8047,-0.8172,-0.8172,-0.8242,-0.8447,-0.8447,-0.8447,-0.8517,-0.8517,-0.8517,-0.8517,-0.8517,-0.8517,-0.8511,-0.8306,-0.8236,-0.8172,-0.8172,-0.8047,-0.7731,-0.7731,-0.7596,-0.7526,-0.1719,-0.1569,0.0,0.0,-0.1211,-0.104,-0.1064,0.0,0.0,0.0,0.0,0.0,0.0,0.0,0.0,0.0,0.0,0.086,0.0,0.0,0.0,0.1182,0.1397,0.156,0.1613,0.1825,0.1932,0.1986,0.2177,0.0,0.0,0.0,0.0,0.0,0.2086,0.0,0.1937,0.0,0.153,0.0,0.0,0.0,0.0,0.1084,0.0486,-0.0359,-0.1016,-0.123,-0.1147,-0.1147,-0.1268,-0.1378,-0.1515,0.0,0.0,-0.1983,0.0,0.0,0.0,0.0,0.0,-0.2266,-0.2479,-0.2754,-0.2981,-0.3135,-0.3357,-0.3747,0.0,0.0,0.0,0.0,0.0,0.0,-0.6173,-0.6386,-0.6657,-0.6815,-0.6923,-0.682,-0.682,-0.682,-0.682,-0.6908,-0.691,-0.6734,-0.6944,-0.7056,-0.7146,-0.7389,-0.7636,-0.7917,-0.8045,-0.8177,-0.8376,-0.8376,-0.8447,-0.8517,-0.8517,-0.8517,-0.8517,-0.8517,-0.8517,-0.8517,-0.8517,-0.8517,-0.8511,-0.8306,-0.8172,-0.8047,-0.7982,-0.7792,-0.7666,-0.7596,-0.7526,-0.7521,0.0,0.0,0.0,0.0,0.0,0.0,0.0,0.0,0.0,0.0,0.0,0.0,0.0711,0.0885,0.0,0.0,0.0922,0.0922,0.0,0.0,0.1211,0.0,0.0,0.0,0.1845,0.1957,0.207,0.207,0.0,0.0,0.0,0.0,0.0,0.0,0.0,0.1809,0.1813,0.0,0.1442,0.1394,0.1311,0.099,0.043,0.043,-0.029,-0.1327,-0.1263,-0.1186,-0.1179,-0.1179,-0.1304,-0.1488,-0.163,-0.1809,-0.2043,0.0,0.0,0.0,-0.2131,-0.2286,-0.248,-0.2404,-0.2623,-0.2962,-0.3122,-0.3367,-0.3629,-0.3966,-0.4327,0.0,0.0,0.0,-0.5791,0.0,0.0,-0.6598,-0.6928,-0.7031,-0.6988,-0.6887,-0.6887,-0.6913,-0.6982,-0.6987,-0.6874,-0.6761,-0.6865,-0.6987,-0.7043,-0.742,-0.7716,-0.7964,-0.8249,-0.8436,-0.8576,-0.8641,-0.8641,-0.8641,-0.8641,-0.8641,-0.8576,-0.8576,-0.8576,-0.8517,-0.8517,-0.8517,-0.8511,-0.8242,-0.8112,-0.7987,-0.7727,-0.7661,-0.7661,-0.7526,-0.7521,-0.7521,-0.1408,-0.1408,0.0,0.0,0.0,0.0,0.0,0.0,0.0,0.0,0.0,0.0,0.0,0.0,0.0,0.0,0.0,0.0986,0.0986,0.0,0.1293,0.0,0.0,0.1782,0.0,0.2151,0.2213,0.2213,0.0,0.0,0.0,0.0,0.0,0.0,0.0,0.1609,0.1676,0.146,0.1501,0.1538,0.1261,0.0144,-0.1209,0.0,-0.1285,-0.129,-0.1321,-0.1235,-0.1211,-0.1211,-0.1413,-0.1675,-0.1675,-0.1932,-0.2171,-0.2171,-0.2199,-0.2204,-0.2144,-0.232,-0.2558,-0.2484,-0.2831,-0.3197,-0.3378,-0.3595,-0.3865,-0.4161,-0.4455,-0.4798,-0.5069,-0.5462,-0.5905,0.0,0.0,0.0,0.0,-0.699,-0.6888,-0.6888,-0.6888,-0.6987,-0.7235,-0.7144,-0.7031,-0.6879,-0.6885,-0.6984,-0.7198,-0.7448,-0.7804,-0.8202,-0.8573,-0.877,-0.877,-0.8894,-0.8952,-0.8952,-0.8952,-0.8894,-0.877,-0.877,-0.8705,-0.8517,-0.8517,-0.8517,-0.8452,-0.8117,-0.7987,-0.7987,-0.7657,-0.7521,-0.7521,-0.7521,-0.7521,-0.7521,0.0,0.0,0.0,0.0,0.0,0.0,0.0,-0.044,0.0,0.0,0.0,0.0,0.0,0.0736,0.105,0.0,0.0,0.0988,0.0988,0.1112,0.0,0.0,0.0,0.1544,0.0,0.0,0.1667,0.1667,0.0,0.0,0.0,0.0,0.0,0.0,0.0,0.1524,0.0,0.0,0.0,0.0,0.0,-0.0527,-0.132,-0.132,-0.132,-0.1321,-0.1332,-0.1251,-0.1242,-0.1242,-0.1451,-0.1795,-0.1795,-0.1985,-0.2225,-0.2186,-0.223,-0.22,-0.2274,-0.2454,-0.2697,-0.2684,-0.3046,-0.3346,-0.3404,-0.3724,-0.4117,-0.4294,-0.4656,-0.5068,-0.5352,-0.5703,0.0,0.0,0.0,0.0,0.0,-0.7059,-0.6942,-0.7089,-0.6881,-0.6834,-0.7034,-0.7004,-0.6965,-0.702,-0.7031,-0.7068,-0.7143,-0.7491,-0.7794,-0.8149,-0.846,-0.873,-0.8958,-0.8952,-0.9017,-0.9017,-0.9017,-0.8952,-0.8958,-0.8835,-0.877,-0.8705,-0.8582,-0.8603,-0.8748,-0.8482,-0.843,-0.8432,-0.8226,-0.8014,-0.7834,-0.7626,-0.7617,-0.7692,-0.1347,0.0,0.0,0.0,0.0,0.0,0.0,0.0,0.0,0.0,-0.0,0.0,-0.0,0.0,0.0723,0.0,0.0985,0.1052,0.1052,0.1117,0.0,0.1249,0.138,0.1446,0.0,0.0,0.0,0.0,0.0,0.1546,0.0,0.0,0.0,0.0,0.0,0.0887,0.0957,0.0,0.0071,0.0,0.0,-0.1007,0.0,-0.1335,-0.1335,-0.1335,-0.1335,-0.1335,-0.1335,-0.1335,-0.1556,-0.1843,-0.1843,-0.2037,-0.2358,-0.2317,-0.2221,-0.2263,-0.2409,-0.2593,-0.2776,-0.283,-0.3203,-0.3512,-0.3512,-0.3969,-0.4374,-0.4429,-0.487,-0.528,-0.5566,-0.5858,0.0,0.0,0.0,0.0,0.0,-0.7078,-0.699,-0.6945,-0.6766,-0.6761,-0.6997,-0.6985,-0.7034,-0.723,-0.7246,-0.7246,-0.7246,-0.7594,-0.7897,-0.8151,-0.852,-0.8828,-0.9204,-0.9274,-0.928,-0.928,-0.928,-0.9215,-0.9087,-0.9119,-0.9029,-0.8903,-0.8859,-0.8918,-0.8985,-0.8785,-0.8736,-0.8795,-0.8589,-0.8377,-0.8192,-0.785,-0.7768,-0.7905,0.0,0.0,0.0,0.0,-0.0868,0.0,0.0,0.0,-0.0,0.0,-0.0,-0.0,-0.0,-0.0,0.0146,0.0437,0.0802,0.1021,0.1093,0.1093,0.0,0.0,0.1386,0.1459,0.1677,0.0,0.0,0.0,0.0,0.0,0.0,0.0,0.0,0.0,0.0416,0.0,-0.0141,-0.0144,-0.037,-0.0684,-0.1168,-0.1336,-0.1338,-0.1338,-0.1339,-0.134,-0.1337,-0.1335,-0.1335,-0.1335,-0.1572,-0.1887,-0.1887,-0.2164,-0.2424,-0.242,-0.2382,-0.2327,-0.2479,-0.2669,-0.2858,-0.2982,-0.3431,-0.383,-0.3825,-0.4205,-0.4635,-0.4635,-0.503,-0.5423,-0.5603,-0.597,-0.6412,0.0,0.0,0.0,0.0,-0.7068,-0.7012,-0.6495,-0.647,-0.6719,0.0,-0.7177,-0.7189,-0.7503,-0.7521,-0.7521,-0.7521,-0.7743,-0.7995,-0.8333,-0.869,-0.9122,-0.9518,-0.9728,-0.9804,-0.9804,-0.9804,-0.9612,-0.9367,-0.9561,-0.9478,-0.9153,-0.9402,-0.9368,-0.9222,-0.9087,-0.9027,-0.9038,-0.8831,-0.8624,-0.8411,-0.8174,-0.8094,-0.8099,-0.1448,-0.1214,-0.1035,0.0,-0.0546,-0.0183,0.0,0.0,0.0,0.0,-0.0,-0.0,-0.0,-0.0,-0.0,0.0146,0.0219,0.0,0.0,0.0,0.0,0.1239,0.1239,0.1312,0.1312,0.1312,0.1308,0.13,0.0,0.0,0.0857,0.0,0.0,0.0,0.0,0.0,-0.1012,-0.0965,-0.1141,-0.1402,-0.1647,-0.1747,-0.1852,-0.1852,-0.1873,-0.1811,-0.1432,-0.1335,-0.1335,-0.1493,-0.1729,-0.1964,-0.2041,-0.2266,-0.2478,-0.2433,-0.2409,-0.2384,-0.2542,-0.274,-0.2867,-0.2999,-0.3464,-0.3856,-0.3842,-0.427,-0.4779,-0.4779,-0.5179,-0.5589,-0.5727,-0.6061,-0.6412,0.0,0.0,0.0,0.0,0.0,-0.7079,-0.6744,-0.6548,-0.6591,-0.6964,-0.6962,-0.7097,-0.7486,-0.7521,-0.7521,-0.7521,-0.7686,-0.8034,-0.8675,-0.8865,-0.9242,-0.9849,-0.9919,-0.9926,-0.9926,-0.9868,-0.9839,-0.997,-0.9777,-0.9785,-0.9823,-0.962,-0.9608,-0.9697,-0.9553,-0.9442,-0.9447,-0.9373,-0.9155,-0.8842,-0.8451,-0.8321,-0.834,-0.1483,0.0,0.0,-0.1042,0.0,0.0,-0.0257,-0.0132,0.0,-0.0,-0.0,0.0,-0.0,-0.0,-0.0,-0.0,-0.0,0.0,0.0233,0.0,0.0,0.092,0.0919,0.0915,0.0904,0.0904,0.0,0.0964,0.0,0.0,0.0219,0.0,0.0,0.0,0.0,-0.1038,-0.1486,-0.1524,-0.163,-0.1809,-0.1906,-0.1929,0.0,-0.2054,-0.2078,-0.2095,-0.1798,-0.1609,-0.1592,-0.1735,-0.1886,-0.2042,-0.2196,-0.2353,-0.2503,-0.2469,-0.2459,-0.2446,-0.261,-0.2814,-0.2945,-0.3085,-0.3457,-0.376,-0.3842,-0.4198,-0.4631,-0.4764,-0.5222,-0.5631,-0.5782,-0.6092,-0.651,0.0,0.0,0.0,0.0,0.0,0.0,-0.7012,-0.6848,-0.6874,-0.7187,-0.7121,-0.7227,-0.7646,-0.7681,-0.7681,-0.7681,-0.7836,-0.8245,-0.8844,-0.9026,-0.9414,-1.0104,-1.0117,-1.0117,-1.0117,-1.0109,-1.0118,-1.0213,-1.0182,-1.016,-1.0231,-0.9984,-0.9969,-1.0018,-0.9802,-0.9729,-0.9695,-0.962,-0.9473,-0.9231,-0.8881,-0.8687,-0.8548,-0.1455,0.0,0.0,0.0,0.0,0.0,0.0,-0.0417,0.0,-0.0073,0.0,-0.0077,-0.0079,-0.0081,-0.0082,-0.0,-0.0,-0.0,-0.0,-0.0,0.0167,0.0491,0.0491,0.0486,0.0555,0.0395,0.0312,0.0,0.0,0.0,0.0,0.0,0.0,0.0,0.0,0.0,0.0,-0.187,-0.1968,-0.1977,-0.2016,-0.212,-0.2136,-0.2179,-0.22,-0.2205,-0.2198,-0.2077,-0.2025,-0.1987,-0.2046,-0.2196,-0.2196,-0.2353,-0.2511,-0.2511,-0.2511,-0.2499,-0.2676,-0.2813,-0.3023,-0.3169,-0.3381,-0.3666,-0.3853,-0.4122,-0.4384,-0.47,-0.5223,-0.5636,-0.5799,-0.6161,-0.6618,0.0,-0.7268,-0.7441,-0.7321,0.0,0.0,0.0,-0.7218,0.0,-0.7571,-0.7388,-0.7412,-0.7865,-0.7901,-0.7955,-0.7955,-0.8146,-0.8502,-0.9072,-0.9233,-0.9627,-1.0364,-1.0371,-1.0384,-1.036,-1.0411,-1.0438,-1.0325,-1.0655,-1.0665,-1.0495,-1.0496,-1.0438,-1.0218,-0.9992,-0.9916,-0.9846,-0.9695,-0.962,-0.9549,-0.9397,-0.9089,-0.878,0.0,0.0,0.0,0.0,0.0,-0.1166,-0.1111,-0.1098,-0.0957,-0.0617,-0.0545,-0.0556,-0.058,-0.0585,-0.0419,-0.0,-0.0,0.0,0.0,0.0,0.0,0.0084,0.0084,0.0084,0.0083,-0.0572,-0.0969,0.0,0.0,0.0,0.0,0.0,0.0,0.0,0.0,0.0,-0.1875,-0.2037,0.0,-0.2263,-0.2435,-0.2578,-0.2666,-0.2677,-0.2711,-0.2747,-0.2698,-0.2358,-0.2029,-0.2185,-0.2232,-0.2196,-0.2431,-0.251,-0.2511,-0.2511,-0.2511,-0.2508,-0.2497,-0.265,-0.2868,-0.3027,-0.3295,-0.3687,-0.3886,-0.4178,-0.448,-0.4718,-0.5163,-0.5512,-0.5736,-0.6181,-0.6616,-0.6946,-0.7109,-0.723,-0.7458,-0.7425,0.0,0.0,-0.7334,-0.7303,-0.7571,-0.7552,-0.7611,-0.7877,-0.8062,-0.8168,-0.8168,-0.8482,-0.8927,-0.9389,-0.9622,-1.003,-1.0555,-1.0561,-1.0681,-1.085,-1.0705,-1.0837,-1.1083,-1.0963,-1.0985,-1.0971,-1.0795,-1.0663,-1.0438,-1.0218,-1.0067,-0.9922,-0.9846,-0.9771,-0.962,-0.9544,-0.9397,-0.917,0.0,0.0,0.0,0.0,0.0,0.0,-0.1275,-0.127,-0.1266,-0.1039,-0.1052,-0.1073,-0.1025,-0.1028,-0.0947,-0.0783,-0.0522,-0.0348,-0.0348,-0.0348,-0.0347,-0.0343,-0.0343,-0.0341,-0.0337,-0.075,-0.1071,-0.1303,-0.1046,0.0,0.0,0.0,0.0,0.0,0.0,-0.2042,0.0,0.0,-0.2413,-0.2444,-0.2669,-0.273,-0.2786,-0.2818,-0.2849,-0.2871,-0.2841,-0.2685,-0.2433,-0.2458,-0.2419,-0.2393,-0.2442,-0.2511,-0.2511,-0.2511,-0.2511,-0.2511,-0.2511,-0.2668,-0.2818,-0.3018,-0.3284,-0.3533,-0.396,-0.4065,-0.4317,-0.4813,-0.5078,-0.5377,-0.5859,-0.6314,-0.6666,-0.6802,-0.7069,-0.729,-0.7382,-0.7465,-0.7541,0.0,0.0,0.0,-0.7744,-0.786,-0.7967,-0.8049,-0.8168,-0.8215,-0.8321,-0.8696,-0.9097,-0.9505,-0.9854,-1.0199,-1.0618,-1.0708,-1.0855,-1.0995,-1.1031,-1.1102,-1.1299,-1.1155,-1.1064,-1.1111,-1.0887,-1.0738,-1.0674,-1.0515,-1.0264,-1.0126,-1.0245,-1.0215,-1.0137,-1.0137,-0.998,-0.9792,0.0,-0.1205,0.0,0.0,-0.1277,-0.1293,-0.1341,-0.1353,-0.1348,-0.1324,-0.1342,-0.1369,-0.1399,-0.1402,-0.1411,-0.1433,-0.1076,-0.0807,-0.0807,-0.0807,-0.089,-0.0877,-0.0876,-0.0869,-0.0854,-0.085,-0.1009,-0.1322,-0.1397,-0.1377,-0.1346,0.0,0.0,0.0,0.0,-0.2372,-0.2613,-0.2676,-0.271,-0.2812,-0.2915,-0.2964,-0.2982,-0.2943,-0.2963,-0.2963,-0.2873,-0.2843,-0.2786,-0.2677,-0.2631,-0.2609,-0.2549,-0.253,-0.2527,-0.2514,-0.2511,-0.2511,-0.2511,-0.2589,-0.2826,-0.3062,-0.3174,-0.3429,-0.4013,-0.4033,-0.4119,-0.4801,-0.5102,-0.5422,-0.6037,-0.6489,-0.6741,-0.6783,-0.7057,-0.733,-0.7307,-0.7495,-0.767,0.0,0.0,0.0,-0.7901,-0.8062,-0.8221,-0.8221,-0.8275,-0.8321,-0.8421,-0.8864,-0.9276,-0.9512,-0.9967,-1.0321,-1.0618,-1.0848,-1.1022,-1.1089,-1.1261,-1.1397,-1.1389,-1.1243,-1.1111,-1.1111,-1.1022,-1.093,-1.0924,-1.0673,-1.0526,-1.0385,-1.0562,-1.0638,-1.0638,-1.0638,-1.0476,-1.0262,0.0,0.0,0.0,0.0,0.0,-0.1341,-0.1263,-0.1369,-0.1385,-0.1382,-0.1384,-0.1397,-0.1428,-0.1431,-0.1432,-0.1435,-0.1345,-0.1345,-0.1345,-0.1345,-0.1345,-0.1342,-0.1342,-0.1341,-0.1338,-0.1315,-0.1388,-0.1385,-0.1609,-0.1658,-0.1542,-0.1864,-0.2002,-0.2119,-0.2408,-0.2675,-0.2924,-0.2991,-0.3139,-0.3454,-0.3467,-0.3427,-0.3489,-0.3226,-0.3138,-0.3138,-0.2963,-0.2871,-0.2856,-0.2789,-0.2729,-0.2673,-0.2612,-0.2593,-0.2582,-0.2526,-0.2511,-0.2511,-0.2511,-0.2511,-0.2589,-0.2984,-0.3136,-0.3267,-0.38,-0.4068,-0.4252,-0.4584,-0.524,-0.5852,-0.6152,-0.6446,-0.6701,-0.704,-0.7077,-0.71,-0.7367,-0.745,-0.7568,-0.767,0.0,0.0,-0.7901,-0.8062,-0.8268,-0.8368,-0.8474,-0.8573,-0.8573,-0.9276,-0.9653,-0.9686,-1.0227,-1.0598,-1.0624,-1.0848,-1.1129,-1.139,-1.1499,-1.1571,-1.1668,-1.1471,-1.126,-1.1123,-1.1306,-1.1396,-1.1209,-1.0756,-1.06,-1.0606,-1.0627,-1.0638,-1.0638,-1.0638,-1.0552,-1.0546,-0.1348,0.0,-0.1353,-0.137,-0.1388,-0.1407,-0.1425,-0.1453,-0.1472,-0.1472,-0.1456,-0.1449,-0.1461,-0.1479,-0.1489,-0.1489,-0.1489,-0.1482,-0.1463,-0.1463,-0.1455,-0.1436,-0.1436,-0.1436,-0.1436,-0.1424,-0.1498,-0.1565,-0.1723,-0.1781,-0.1909,-0.2157,-0.2312,-0.2538,-0.2727,-0.2905,-0.2993,-0.323,-0.3361,-0.3478,-0.3524,-0.3559,-0.3587,-0.3497,-0.3408,-0.3408,-0.332,-0.332,-0.3315,-0.3109,-0.2883,-0.2736,-0.2676,-0.2655,-0.2651,-0.2627,-0.2594,-0.2565,-0.2565,-0.2538,-0.2589,-0.2982,-0.3062,-0.3288,-0.3874,-0.4128,-0.4298,-0.4622,-0.5179,-0.5703,-0.6048,-0.6428,-0.672,-0.6863,-0.7139,-0.7405,-0.7448,-0.7621,-0.7738,-0.7793,-0.7883,-0.7955,-0.8062,-0.8215,-0.8368,-0.8527,-0.8573,-0.8705,-0.8936,-0.9459,-0.9766,-0.9933,-1.0341,-1.0705,-1.0822,-1.1109,-1.1328,-1.155,-1.1624,-1.1598,-1.1484,-1.1335,-1.1202,-1.1147,-1.1414,-1.1346,-1.1047,-1.1029,-1.0925,-1.0859,-1.1009,-1.0979,-1.0979,-1.0979,-1.0979,-1.0979,-0.1398,-0.14,-0.1407,-0.1427,-0.1448,-0.1469,-0.1491,-0.1512,-0.1526,-0.1526,-0.1515,-0.1504,-0.1495,-0.1513,-0.1526,-0.1526,-0.1526,-0.1517,-0.1495,-0.1494,-0.148,-0.145,-0.1448,-0.1535,-0.1525,-0.1615,-0.1692,-0.1842,-0.193,-0.2082,-0.2208,-0.2446,-0.2692,-0.2778,-0.3049,-0.3228,-0.3318,-0.3476,-0.3682,-0.3774,-0.3831,-0.3765,-0.3765,-0.3676,-0.3678,-0.3678,-0.3587,-0.3587,-0.3587,-0.3406,-0.3197,-0.2973,-0.2824,-0.2719,-0.2715,-0.2698,-0.2661,-0.2628,-0.2628,-0.2583,-0.2616,-0.3015,-0.3079,-0.3297,-0.3923,-0.418,-0.4422,-0.4841,-0.528,-0.5688,-0.6018,-0.6443,-0.6696,-0.6834,-0.7196,-0.7479,-0.7507,-0.7757,-0.7886,-0.8006,-0.8076,-0.8129,-0.8349,-0.8507,-0.8664,-0.8773,-0.8882,-0.8996,-0.9176,-0.9606,-0.9907,-1.0107,-1.0408,-1.0701,-1.0989,-1.1215,-1.1438,-1.1585,-1.1573,-1.1602,-1.1539,-1.1317,-1.1349,-1.1459,-1.1474,-1.1351,-1.1106,-1.1271,-1.1259,-1.1106,-1.1284,-1.1262,-1.1262,-1.1262,-1.1262,-1.1262,-0.1518,-0.1524,-0.1524,-0.1524,-0.1525,-0.1525,-0.1525,-0.1525,-0.1526,-0.1526,-0.1552,-0.1559,-0.1529,-0.1525,-0.1526,-0.1526,-0.1526,-0.1526,-0.1525,-0.1525,-0.1512,-0.1481,-0.1665,-0.1833,-0.1795,-0.2064,-0.2154,-0.2153,-0.2423,-0.2486,-0.2432,-0.2806,-0.303,-0.3033,-0.3354,-0.3648,-0.3913,-0.3911,-0.4034,-0.4297,-0.43,-0.43,-0.43,-0.4036,-0.3859,-0.3859,-0.3678,-0.3587,-0.3587,-0.3587,-0.3587,-0.3484,-0.2976,-0.2782,-0.2771,-0.271,-0.2692,-0.2691,-0.2691,-0.2647,-0.2682,-0.3089,-0.3117,-0.3297,-0.3923,-0.4231,-0.4585,-0.5231,-0.5576,-0.5782,-0.6058,-0.6402,-0.6679,-0.6841,-0.7035,-0.7216,-0.7534,-0.7704,-0.7919,-0.828,-0.8392,-0.8557,-0.8669,-0.9014,-0.9182,-0.9182,-0.9492,-0.9546,-0.9196,-0.9793,-1.0114,-1.0114,-1.0408,-1.0701,-1.0989,-1.1073,-1.1292,-1.1585,-1.15,-1.1558,-1.1766,-1.1641,-1.1735,-1.1975,-1.1477,-1.1455,-1.1693,-1.1435,-1.1257,-1.1262,-1.1262,-1.1262,-1.1262,-1.1262,-1.1262,-1.1262,-0.1524,-0.1526,-0.1526,-0.1526,-0.1543,-0.1557,-0.1557,-0.1575,-0.1588,-0.1588,-0.1596,-0.1698,-0.1787,-0.1687,-0.1588,-0.1588,-0.1687,-0.1875,-0.1851,-0.2042,-0.2121,-0.208,-0.2052,-0.2031,-0.2109,-0.217,-0.2244,-0.2424,-0.2513,-0.2683,-0.2929,-0.3086,-0.3252,-0.3431,-0.3631,-0.3818,-0.3909,-0.4111,-0.421,-0.43,-0.43,-0.43,-0.4306,-0.4278,-0.4211,-0.4219,-0.4278,-0.4299,-0.4299,-0.4111,-0.3981,-0.3839,-0.3545,-0.3235,-0.3103,-0.3083,-0.2872,-0.2755,-0.2755,-0.2794,-0.2914,-0.3243,-0.3352,-0.3534,-0.4019,-0.4518,-0.4919,-0.5425,-0.5645,-0.5845,-0.6346,-0.6424,-0.6591,-0.7013,-0.7236,-0.749,-0.7817,-0.7934,-0.8154,-0.847,-0.8497,-0.8628,-0.8851,-0.9078,-0.9259,-0.9324,-0.9748,-0.994,-0.984,-1.0013,-1.0207,-1.0414,-1.0701,-1.0929,-1.108,-1.1305,-1.1443,-1.1432,-1.1646,-1.1695,-1.1647,-1.1578,-1.1569,-1.1488,-1.1584,-1.1536,-1.144,-1.1354,-1.1262,-1.1262,-1.1262,-1.1262,-1.1262,-1.1262,-1.1262,-1.1262,-0.1558,-0.156,-0.156,-0.156,-0.1576,-0.1589,-0.1589,-0.1605,-0.1617,-0.1617,-0.1718,-0.1819,-0.2022,-0.192,-0.1919,-0.1919,-0.202,-0.211,-0.2185,-0.2281,-0.2359,-0.2316,-0.2382,-0.235,-0.2316,-0.2468,-0.2533,-0.2694,-0.2691,-0.296,-0.3317,-0.3408,-0.3587,-0.3767,-0.3944,-0.4034,-0.4034,-0.421,-0.43,-0.43,-0.43,-0.432,-0.4357,-0.4414,-0.4457,-0.4493,-0.4645,-0.4666,-0.4573,-0.4569,-0.4436,-0.4299,-0.4115,-0.3781,-0.353,-0.3414,-0.3198,-0.308,-0.308,-0.3117,-0.3236,-0.3489,-0.368,-0.394,-0.4396,-0.478,-0.524,-0.5559,-0.5717,-0.594,-0.6488,-0.6531,-0.6628,-0.7112,-0.7324,-0.7551,-0.7932,-0.8058,-0.8217,-0.872,-0.8713,-0.8798,-0.9162,-0.9344,-0.9465,-0.9532,-0.9875,-1.0034,-1.0034,-1.0219,-1.0421,-1.0651,-1.0771,-1.0981,-1.1166,-1.1275,-1.1417,-1.1426,-1.1642,-1.1668,-1.1589,-1.1594,-1.1545,-1.1466,-1.1541,-1.144,-1.1262,-1.1262,-1.1262,-1.1262,-1.1262,-1.1262,-1.1262,-1.1262,-1.1262,-1.1262,-0.1611,-0.1617,-0.1617,-0.1617,-0.1617,-0.1617,-0.1617,-0.1617,-0.1617,-0.1617,-0.1819,-0.2021,-0.2021,-0.2322,-0.2422,-0.2422,-0.2422,-0.2422,-0.2422,-0.2422,-0.2502,-0.2458,-0.2649,-0.2702,-0.2606,-0.2871,-0.2931,-0.2963,-0.3139,-0.3406,-0.3587,-0.3767,-0.3948,-0.3946,-0.4212,-0.43,-0.43,-0.43,-0.43,-0.43,-0.4387,-0.4355,-0.4436,-0.4442,-0.4502,-0.4676,-0.4966,-0.4873,-0.4685,-0.4966,-0.4869,-0.4676,-0.4676,-0.4424,-0.4148,-0.3706,-0.359,-0.3587,-0.3587,-0.3536,-0.3568,-0.383,-0.4024,-0.427,-0.4816,-0.5105,-0.541,-0.5559,-0.5789,-0.6053,-0.6521,-0.6634,-0.6745,-0.7186,-0.7254,-0.7387,-0.7997,-0.8022,-0.8268,-0.891,-0.9028,-0.9151,-0.9484,-0.9676,-0.981,-0.9829,-0.9951,-1.0021,-1.004,-1.043,-1.0606,-1.0652,-1.0698,-1.0902,-1.1287,-1.1097,-1.1169,-1.1486,-1.1578,-1.1572,-1.16,-1.1673,-1.1699,-1.1699,-1.144,-1.1262,-1.1262,-1.1267,-1.1267,-1.1267,-1.1262,-1.1262,-1.1262,-1.1267,-1.1267,-1.1267,-0.1615,-0.1617,-0.1617,-0.1617,-0.1617,-0.1617,-0.1617,-0.1819,-0.1921,-0.1921,-0.2121,-0.2423,-0.2624,-0.2624,-0.2826,-0.3027,-0.2826,-0.2724,-0.2724,-0.2927,-0.3022,-0.3008,-0.2966,-0.3028,-0.3001,-0.3006,-0.3021,-0.3138,-0.3408,-0.3587,-0.3857,-0.3859,-0.4036,-0.421,-0.43,-0.43,-0.43,-0.448,-0.4569,-0.4659,-0.4743,-0.4894,-0.4995,-0.5073,-0.5168,-0.5266,-0.5436,-0.5464,-0.5365,-0.5464,-0.5415,-0.5257,-0.5257,-0.5186,-0.4989,-0.4244,-0.3812,-0.3587,-0.3587,-0.384,-0.409,-0.418,-0.4548,-0.4939,-0.5075,-0.5405,-0.5674,-0.5808,-0.6173,-0.6549,-0.6816,-0.6855,-0.7036,-0.7535,-0.7548,-0.7719,-0.8433,-0.8356,-0.8446,-0.9036,-0.9,-0.9081,-0.9344,-0.9606,-0.9885,-1.0095,-1.0233,-1.0388,-1.0596,-1.0676,-1.068,-1.0466,-1.0942,-1.116,-1.1078,-1.1065,-1.1141,-1.1358,-1.1336,-1.15,-1.1696,-1.1499,-1.1354,-1.1354,-1.1348,-1.1262,-1.1262,-1.1094,-1.1094,-1.1094,-1.0911,-1.0819,-1.0819,-1.1003,-1.1094,-1.1094,-0.1617,-0.1617,-0.1617,-0.1617,-0.1617,-0.1617,-0.1718,-0.1921,-0.2021,-0.2121,-0.2423,-0.2623,-0.2826,-0.2927,-0.3029,-0.323,-0.3029,-0.3027,-0.3027,-0.313,-0.323,-0.323,-0.3299,-0.3268,-0.324,-0.3361,-0.3465,-0.3634,-0.3694,-0.3855,-0.4123,-0.4123,-0.4121,-0.43,-0.4389,-0.448,-0.448,-0.4748,-0.4835,-0.4835,-0.4921,-0.5072,-0.5182,-0.5289,-0.5396,-0.5503,-0.57,-0.5737,-0.5636,-0.5737,-0.57,-0.5556,-0.5556,-0.5484,-0.5391,-0.4858,-0.4558,-0.4361,-0.4361,-0.451,-0.4654,-0.4746,-0.511,-0.5341,-0.5463,-0.5755,-0.5971,-0.6054,-0.6298,-0.6637,-0.6865,-0.6946,-0.7234,-0.7747,-0.7719,-0.7911,-0.8599,-0.8553,-0.8684,-0.9229,-0.9248,-0.9298,-0.9559,-0.9765,-0.9965,-1.0239,-1.0319,-1.0449,-1.0591,-1.0715,-1.0721,-1.071,-1.0993,-1.1068,-1.09,-1.0983,-1.114,-1.1291,-1.1288,-1.1305,-1.1354,-1.1267,-1.1089,-1.0997,-1.0997,-1.0997,-1.0997,-1.0911,-1.0824,-1.0824,-1.0733,-1.0727,-1.0727,-1.0824,-1.0916,-1.1008,-0.1617,-0.1617,-0.1617,-0.1617,-0.1617,-0.1718,-0.1921,-0.2021,-0.2222,-0.2422,-0.2724,-0.2826,-0.2826,-0.3029,-0.323,-0.323,-0.323,-0.323,-0.323,-0.323,-0.323,-0.323,-0.3534,-0.3607,-0.3549,-0.3829,-0.4039,-0.4064,-0.3999,-0.4047,-0.43,-0.43,-0.4389,-0.4389,-0.4659,-0.4748,-0.4748,-0.501,-0.5099,-0.5099,-0.5099,-0.5165,-0.5271,-0.538,-0.5492,-0.5696,-0.6004,-0.5937,-0.5734,-0.5939,-0.5937,-0.5734,-0.5734,-0.5678,-0.5608,-0.5608,-0.5561,-0.5395,-0.5271,-0.5182,-0.5188,-0.5458,-0.5563,-0.5742,-0.5981,-0.6142,-0.629,-0.6247,-0.6534,-0.6743,-0.6945,-0.7099,-0.7359,-0.7803,-0.7851,-0.8088,-0.8643,-0.873,-0.8922,-0.9422,-0.946,-0.9648,-0.9916,-0.9916,-1.0067,-1.0247,-1.0247,-1.0265,-1.0307,-1.0515,-1.0797,-1.0985,-1.0948,-1.0906,-1.0796,-1.092,-1.1029,-1.1149,-1.123,-1.1176,-1.0921,-1.0921,-1.0824,-1.0727,-1.0727,-1.0727,-1.0727,-1.0641,-1.0641,-1.0641,-1.0641,-1.0554,-1.0641,-1.0641,-1.0738,-1.0921,-0.1617,-0.1617,-0.1617,-0.1617,-0.1819,-0.1921,-0.2022,-0.2424,-0.2725,-0.2725,-0.2927,-0.313,-0.313,-0.313,-0.323,-0.323,-0.323,-0.323,-0.323,-0.3433,-0.3534,-0.3534,-0.3835,-0.3927,-0.3917,-0.4152,-0.4231,-0.4064,-0.4236,-0.4284,-0.43,-0.4569,-0.4661,-0.4661,-0.4835,-0.4921,-0.501,-0.5191,-0.5371,-0.5371,-0.5552,-0.5621,-0.5823,-0.5943,-0.6067,-0.6184,-0.6297,-0.6337,-0.6237,-0.6337,-0.6337,-0.6237,-0.6237,-0.6224,-0.6211,-0.6211,-0.6314,-0.6258,-0.5403,-0.5363,-0.5633,-0.5905,-0.6154,-0.6283,-0.6433,-0.6544,-0.6528,-0.6694,-0.6857,-0.7036,-0.713,-0.733,-0.7553,-0.7986,-0.8058,-0.8273,-0.8849,-0.898,-0.9078,-0.9311,-0.9422,-0.9508,-0.9578,-0.9712,-0.9862,-1.0145,-1.0156,-1.0254,-1.0461,-1.0507,-1.064,-1.0941,-1.0877,-1.0732,-1.0617,-1.1017,-1.1028,-1.0731,-1.0979,-1.0916,-1.0733,-1.0733,-1.0733,-1.0727,-1.0727,-1.0727,-1.0641,-1.0467,-1.0381,-1.0381,-1.0212,-1.0125,-1.0125,-1.0294,-1.0554,-1.0733,-0.1617,-0.1617,-0.1617,-0.1819,-0.1921,-0.2122,-0.2424,-0.2624,-0.2826,-0.3027,-0.313,-0.323,-0.323,-0.323,-0.323,-0.323,-0.323,-0.323,-0.3433,-0.3534,-0.3635,-0.3835,-0.4036,-0.4234,-0.4435,-0.4455,-0.445,-0.4414,-0.4366,-0.448,-0.448,-0.4661,-0.4748,-0.4835,-0.5102,-0.5191,-0.5191,-0.5463,-0.5552,-0.5552,-0.5644,-0.5765,-0.5822,-0.5942,-0.6064,-0.6187,-0.6304,-0.6385,-0.6437,-0.6539,-0.6639,-0.6639,-0.6739,-0.6836,-0.6836,-0.6836,-0.6698,-0.6507,-0.6135,-0.6085,-0.6077,-0.6257,-0.6435,-0.6596,-0.6708,-0.6724,-0.68,-0.7,-0.7078,-0.7172,-0.725,-0.7394,-0.7638,-0.8025,-0.8102,-0.8331,-0.8946,-0.901,-0.9095,-0.9394,-0.9522,-0.9672,-0.9891,-0.9958,-1.0081,-1.0336,-1.0347,-1.0393,-1.0507,-1.0656,-1.071,-1.0757,-1.084,-1.0892,-1.0983,-1.0957,-1.0879,-1.0846,-1.0864,-1.0733,-1.0467,-1.0467,-1.0467,-1.0299,-1.0299,-1.0299,-1.0299,-1.0207,-1.012,-1.0125,-1.0038,-1.0038,-1.0038,-1.0125,-1.0294,-1.0554,-0.1617,-0.1617,-0.1718,-0.1921,-0.2122,-0.2324,-0.2725,-0.2826,-0.2927,-0.313,-0.323,-0.323,-0.323,-0.323,-0.323,-0.323,-0.323,-0.3432,-0.3635,-0.3736,-0.3835,-0.4135,-0.432,-0.4608,-0.4806,-0.4722,-0.4632,-0.454,-0.4471,-0.4572,-0.4661,-0.4839,-0.4926,-0.5099,-0.5371,-0.5463,-0.5463,-0.5644,-0.5733,-0.5733,-0.5733,-0.5733,-0.5746,-0.5951,-0.6056,-0.6158,-0.641,-0.6519,-0.66,-0.683,-0.6942,-0.6942,-0.7138,-0.7238,-0.7238,-0.7238,-0.6949,-0.6623,-0.6713,-0.6653,-0.652,-0.652,-0.67,-0.6881,-0.6972,-0.6974,-0.7142,-0.7361,-0.7322,-0.7365,-0.7445,-0.756,-0.7687,-0.8034,-0.8102,-0.8331,-0.8865,-0.8946,-0.9099,-0.9397,-0.9473,-0.9695,-0.9992,-1.0067,-1.0143,-1.0368,-1.0368,-1.0391,-1.0453,-1.065,-1.0735,-1.0608,-1.0783,-1.0964,-1.1144,-1.0784,-1.0735,-1.0829,-1.0646,-1.0467,-1.0207,-1.0207,-1.012,-1.0038,-1.0038,-1.0038,-1.0038,-1.0038,-1.0038,-1.0038,-1.0038,-1.0038,-1.0038,-1.0038,-1.0125,-1.0381,-0.1617,-0.1819,-0.2022,-0.2022,-0.2424,-0.2725,-0.2826,-0.3027,-0.313,-0.323,-0.323,-0.323,-0.323,-0.323,-0.323,-0.323,-0.3433,-0.3633,-0.3932,-0.4237,-0.4338,-0.4338,-0.4565,-0.4718,-0.4718,-0.4628,-0.4538,-0.4447,-0.4625,-0.4756,-0.475,-0.5107,-0.5371,-0.5371,-0.5552,-0.5644,-0.5644,-0.5733,-0.5733,-0.5733,-0.5733,-0.5733,-0.5746,-0.6136,-0.6282,-0.6322,-0.6762,-0.6958,-0.6982,-0.7099,-0.7138,-0.7138,-0.7238,-0.7238,-0.7238,-0.7238,-0.7143,-0.7117,-0.6826,-0.6819,-0.6792,-0.6792,-0.6966,-0.7143,-0.7415,-0.7408,-0.7534,-0.7815,-0.7847,-0.7819,-0.7741,-0.7748,-0.7845,-0.8056,-0.8102,-0.8255,-0.8627,-0.8865,-0.9022,-0.9022,-0.9175,-0.9397,-0.962,-0.962,-0.9695,-0.9922,-0.9922,-1.0019,-1.0334,-1.0361,-1.0407,-1.0585,-1.0611,-1.0632,-1.0643,-1.0686,-1.0539,-1.0381,-1.0381,-1.0207,-1.0038,-1.0038,-1.0038,-1.0038,-1.0038,-1.0038,-1.0038,-1.0038,-1.0038,-1.0038,-1.0038,-1.0038,-1.0038,-1.0038,-1.0125,-1.0381,-0.1819,-0.1921,-0.2122,-0.2424,-0.2624,-0.2826,-0.3027,-0.313,-0.323,-0.323,-0.323,-0.323,-0.323,-0.323,-0.323,-0.323,-0.3433,-0.3736,-0.3932,-0.4236,-0.4416,-0.4563,-0.4576,-0.4624,-0.4624,-0.4589,-0.4622,-0.4623,-0.4715,-0.4938,-0.5104,-0.5282,-0.5463,-0.5552,-0.5644,-0.5733,-0.5733,-0.5733,-0.5822,-0.5908,-0.5908,-0.5994,-0.6174,-0.6314,-0.6385,-0.6468,-0.6662,-0.6902,-0.7055,-0.7296,-0.7368,-0.7441,-0.764,-0.7739,-0.772,-0.7628,-0.7495,-0.727,-0.7178,-0.7121,-0.6966,-0.6966,-0.7146,-0.7415,-0.7507,-0.7595,-0.7837,-0.8032,-0.8025,-0.7912,-0.8113,-0.7996,-0.8019,-0.823,-0.8273,-0.8389,-0.8646,-0.878,-0.8865,-0.8946,-0.9099,-0.9175,-0.9397,-0.9397,-0.9473,-0.9549,-0.9673,-0.9787,-0.988,-1.016,-1.0372,-1.0675,-1.0514,-1.0514,-1.0686,-1.0514,-1.0381,-1.0294,-1.0207,-1.0038,-1.0038,-1.0038,-1.0038,-1.0038,-1.0038,-1.0038,-1.0038,-1.0038,-1.0038,-1.0038,-1.0038,-1.0038,-1.0038,-1.0038,-1.0038,-1.0212,-0.2121,-0.2223,-0.2323,-0.2725,-0.2826,-0.3027,-0.313,-0.323,-0.323,-0.323,-0.323,-0.323,-0.323,-0.323,-0.323,-0.323,-0.3533,-0.3835,-0.4033,-0.429,-0.4546,-0.471,-0.4594,-0.4528,-0.4528,-0.4502,-0.4549,-0.4762,-0.4851,-0.5087,-0.5371,-0.5463,-0.5552,-0.5733,-0.5733,-0.5733,-0.5822,-0.5822,-0.5997,-0.6169,-0.6169,-0.6254,-0.6428,-0.652,-0.6582,-0.6669,-0.6803,-0.6945,-0.7117,-0.735,-0.7527,-0.7612,-0.7805,-0.7899,-0.7872,-0.7719,-0.7529,-0.736,-0.7312,-0.7224,-0.7231,-0.7231,-0.7326,-0.7507,-0.768,-0.7852,-0.8028,-0.8292,-0.8202,-0.8189,-0.83,-0.8187,-0.8205,-0.8426,-0.8475,-0.8568,-0.8754,-0.8803,-0.8856,-0.8875,-0.8941,-0.9018,-0.9175,-0.9234,-0.9346,-0.9423,-0.9546,-0.9702,-0.9852,-1.0128,-1.0399,-1.0549,-1.0294,-1.0294,-1.0467,-1.0294,-1.0207,-1.0207,-1.0038,-1.0038,-1.0038,-1.0038,-1.0038,-1.0038,-1.0038,-1.0038,-1.0038,-1.0038,-1.0038,-1.0038,-1.0038,-1.0038,-1.0038,-1.0038,-1.0038,-1.0038,-0.2422,-0.2623,-0.2826,-0.2826,-0.3027,-0.323,-0.323,-0.323,-0.323,-0.323,-0.323,-0.323,-0.323,-0.323,-0.323,-0.323,-0.3732,-0.4033,-0.4033,-0.4378,-0.4612,-0.4702,-0.4532,-0.4434,-0.4434,-0.4344,-0.4389,-0.4661,-0.4924,-0.5099,-0.5371,-0.5644,-0.5733,-0.5733,-0.5733,-0.5819,-0.6083,-0.6083,-0.6257,-0.6428,-0.6428,-0.6428,-0.6432,-0.6704,-0.6795,-0.6811,-0.7225,-0.737,-0.7394,-0.7546,-0.7597,-0.76,-0.76,-0.76,-0.7567,-0.7414,-0.737,-0.7336,-0.718,-0.7323,-0.7507,-0.7507,-0.7507,-0.7591,-0.8113,-0.8201,-0.8288,-0.8564,-0.8568,-0.8511,-0.8325,-0.8292,-0.84,-0.863,-0.8686,-0.8779,-0.8979,-0.9025,-0.8949,-0.8732,-0.8708,-0.8789,-0.8951,-0.9213,-0.9414,-0.9566,-0.9782,-1.0003,-1.0307,-1.0267,-1.0294,-1.0294,-1.0125,-1.0038,-1.0038,-1.0038,-1.0038,-1.0038,-1.0038,-1.0038,-1.0038,-1.0038,-1.0038,-1.0038,-1.0038,-1.0038,-1.0038,-1.0038,-1.0038,-1.0038,-1.0038,-1.0038,-1.0038,-1.0038,-1.0038,-1.0038,-0.2623,-0.2725,-0.2826,-0.3029,-0.313,-0.323,-0.323,-0.323,-0.323,-0.323,-0.323,-0.323,-0.323,-0.323,-0.323,-0.323,-0.3732,-0.4112,-0.4455,-0.4482,-0.4487,-0.4516,-0.4402,-0.434,-0.434,-0.4493,-0.4659,-0.4924,-0.5191,-0.5371,-0.5644,-0.5644,-0.5819,-0.5997,-0.5997,-0.6083,-0.6343,-0.6343,-0.6435,-0.6704,-0.6704,-0.6789,-0.6874,-0.6966,-0.7054,-0.7061,-0.7104,-0.7278,-0.738,-0.7424,-0.7509,-0.76,-0.76,-0.7526,-0.7431,-0.7387,-0.7295,-0.72,-0.7153,-0.7323,-0.7507,-0.7507,-0.7768,-0.8025,-0.8201,-0.838,-0.8476,-0.8568,-0.8568,-0.8552,-0.8495,-0.8657,-0.8763,-0.8822,-0.8963,-0.9151,-0.9185,-0.9233,-0.9209,-0.9148,-0.9138,-0.9138,-0.9223,-0.9275,-0.9313,-0.9389,-0.9596,-0.9812,-1.0105,-1.0091,-1.0125,-1.0125,-1.0038,-1.0038,-1.0038,-1.0038,-1.0038,-1.0038,-1.0038,-1.0038,-1.0038,-1.0038,-1.0038,-1.0038,-1.0038,-1.0038,-1.0038,-1.0038,-1.0038,-1.0038,-1.0038,-1.0038,-1.0038,-1.0038,-1.0038,-1.0038,-0.2927,-0.2927,-0.3027,-0.313,-0.323,-0.323,-0.323,-0.323,-0.323,-0.323,-0.323,-0.323,-0.323,-0.323,-0.323,-0.323,-0.3706,-0.4141,-0.4512,-0.4498,-0.442,-0.4383,-0.4328,-0.43,-0.43,-0.4569,-0.4837,-0.501,-0.528,-0.5463,-0.5733,-0.5822,-0.5908,-0.6083,-0.6169,-0.6346,-0.6523,-0.6523,-0.67,-0.6881,-0.6881,-0.6966,-0.7139,-0.7139,-0.7143,-0.7234,-0.7234,-0.7382,-0.7555,-0.7555,-0.7619,-0.7513,-0.7417,-0.7353,-0.7282,-0.7282,-0.7214,-0.7139,-0.7139,-0.7323,-0.7507,-0.7595,-0.794,-0.8201,-0.8292,-0.8476,-0.8568,-0.8568,-0.8568,-0.8656,-0.874,-0.8828,-0.896,-0.9181,-0.9334,-0.9441,-0.9395,-0.945,-0.9422,-0.9332,-0.9322,-0.9322,-0.9322,-0.9398,-0.9488,-0.9563,-0.9696,-0.9823,-1.0028,-1.0038,-1.0038,-1.0038,-1.0038,-1.0038,-1.0038,-1.0038,-1.0038,-1.0038,-1.0038,-1.0038,-1.0038,-1.0038,-1.0038,-1.0038,-1.0038,-1.0038,-1.0038,-1.0038,-1.0038,-1.0038,-1.0038,-1.0038,-1.0038,-1.0038,-1.0038,-1.0212,-0.3222,-0.3218,-0.3214,-0.3214,-0.3214,-0.3214,-0.3214,-0.3214,-0.3214,-0.3214,-0.3214,-0.3214,-0.3214,-0.3214,-0.3214,-0.3214,-0.3649,-0.4034,-0.4352,-0.4428,-0.4385,-0.4302,-0.43,-0.43,-0.43,-0.4569,-0.4837,-0.501,-0.528,-0.5552,-0.5733,-0.5997,-0.6083,-0.6171,-0.6343,-0.6612,-0.6792,-0.6792,-0.6969,-0.7139,-0.7139,-0.7143,-0.7143,-0.7139,-0.7323,-0.7507,-0.7507,-0.768,-0.7856,-0.7856,-0.768,-0.7415,-0.7143,-0.7139,-0.7139,-0.7139,-0.7139,-0.7139,-0.7139,-0.7323,-0.7591,-0.7856,-0.8028,-0.8288,-0.8564,-0.8568,-0.8568,-0.8568,-0.8656,-0.8652,-0.8823,-0.8911,-0.9082,-0.9515,-0.9602,-0.9625,-0.9616,-0.9672,-0.9601,-0.9403,-0.9379,-0.9379,-0.9379,-0.9559,-0.9752,-1.0024,-1.0038,-1.0038,-1.0038,-1.0038,-1.0038,-1.0038,-1.0038,-1.0038,-1.0038,-1.0038,-1.0038,-1.0038,-1.0038,-1.0038,-1.0038,-1.0038,-1.0038,-1.0038,-1.0038,-1.0038,-1.0038,-1.0038,-1.0038,-1.0038,-1.0038,-1.0038,-1.0038,-1.0038,-1.012,-1.0381,-0.3159,-0.3121,-0.3089,-0.3089,-0.3089,-0.3089,-0.3089,-0.3089,-0.3089,-0.3089,-0.3089,-0.3089,-0.3089,-0.3089,-0.3089,-0.3089,-0.3507,-0.3919,-0.4346,-0.4369,-0.432,-0.43,-0.43,-0.4389,-0.4569,-0.4835,-0.5099,-0.5282,-0.5552,-0.5644,-0.5733,-0.5997,-0.6169,-0.6343,-0.6615,-0.6789,-0.7054,-0.7054,-0.7051,-0.7139,-0.7323,-0.7415,-0.7415,-0.7676,-0.7764,-0.7856,-0.7856,-0.7856,-0.7856,-0.768,-0.7507,-0.7415,-0.7143,-0.7139,-0.7139,-0.7139,-0.7139,-0.7139,-0.7139,-0.7323,-0.7591,-0.7856,-0.8028,-0.8288,-0.8564,-0.8568,-0.8568,-0.8568,-0.874,-0.8828,-0.8911,-0.917,-0.9515,-0.9602,-0.9777,-0.9937,-0.9894,-0.9885,-0.9866,-0.9819,-0.9814,-0.9814,-0.9814,-0.9856,-0.9904,-1.0038,-1.0038,-1.0038,-1.0038,-1.0038,-1.0038,-1.0038,-1.0038,-1.0038,-1.0038,-1.0038,-1.0038,-1.0038,-1.0038,-1.0038,-1.0038,-1.0038,-1.0038,-1.0038,-1.0038,-1.0038,-1.0038,-1.0038,-1.0038,-1.0038,-1.0038,-1.0038,-1.0038,-1.0207,-1.0294,-1.0381,-0.3097,-0.3071,-0.3144,-0.3144,-0.3144,-0.3144,-0.3144,-0.3144,-0.3144,-0.3144,-0.3144,-0.3144,-0.3144,-0.3144,-0.3133,-0.3385,-0.3628,-0.3957,-0.4373,-0.4324,-0.43,-0.43,-0.43,-0.4478,-0.4835,-0.4921,-0.5099,-0.5371,-0.5644,-0.5733,-0.5908,-0.6169,-0.6346,-0.6612,-0.6877,-0.6966,-0.7139,-0.7231,-0.7323,-0.7323,-0.7591,-0.768,-0.768,-0.7856,-0.794,-0.8028,-0.8028,-0.8116,-0.8208,-0.7856,-0.768,-0.7591,-0.7231,-0.7139,-0.7139,-0.7139,-0.7139,-0.7139,-0.7139,-0.7231,-0.7411,-0.768,-0.7852,-0.8116,-0.8476,-0.8568,-0.8568,-0.8568,-0.874,-0.8911,-0.9087,-0.9345,-0.9602,-0.9777,-0.9951,-1.0038,-1.0038,-1.0038,-1.0038,-1.0038,-1.0038,-1.0038,-1.0038,-1.0038,-1.0038,-1.0038,-1.0038,-1.0038,-1.0038,-1.0038,-1.0038,-1.0038,-1.0038,-1.0038,-1.0038,-1.0038,-1.0038,-1.0038,-1.0038,-1.0038,-1.0038,-1.0038,-1.0038,-1.0038,-1.0038,-1.0038,-1.0038,-1.0038,-1.0038,-1.0038,-1.0038,-1.0038,-1.0125,-1.0294,-1.0467,-1.0809,-0.3129,-0.312,-0.3019,-0.3019,-0.3019,-0.3019,-0.3019,-0.3019,-0.3019,-0.3019,-0.3019,-0.3019,-0.3019,-0.3112,-0.3279,-0.3687,-0.3862,-0.4104,-0.4304,-0.43,-0.43,-0.43,-0.4389,-0.4567,-0.501,-0.501,-0.5191,-0.5463,-0.5644,-0.5822,-0.6083,-0.6343,-0.6523,-0.6795,-0.7054,-0.7139,-0.7143,-0.7415,-0.7507,-0.7595,-0.7856,-0.794,-0.794,-0.8032,-0.8116,-0.8288,-0.8288,-0.8384,-0.8476,-0.8032,-0.7856,-0.7768,-0.7231,-0.7139,-0.7139,-0.7139,-0.7139,-0.7139,-0.7139,-0.7139,-0.7143,-0.7415,-0.768,-0.8032,-0.8476,-0.8564,-0.8568,-0.8568,-0.874,-0.8999,-0.9262,-0.9432,-0.9689,-0.9951,-1.0038,-1.0038,-1.0038,-1.0038,-1.0038,-1.0038,-1.0038,-1.0038,-1.0038,-1.0038,-1.0038,-1.0038,-1.0038,-1.0038,-1.0038,-1.0038,-1.0038,-1.0038,-1.0038,-1.0038,-1.0038,-1.0038,-1.0038,-1.0038,-1.0038,-1.0038,-1.0038,-1.0038,-1.0038,-1.0038,-1.0038,-1.0038,-1.0038,-1.0038,-1.0038,-1.0038,-1.0038,-1.012,-1.0294,-1.0386,-1.0814,-1.1419,-0.297,-0.2932,-0.2898,-0.2898,-0.2898,-0.2898,-0.2898,-0.2898,-0.2898,-0.2898,-0.2898,-0.2898,-0.2898,-0.3076,-0.3342,-0.3875,-0.3873,-0.4047,-0.43,-0.43,-0.43,-0.43,-0.448,-0.4748,-0.501,-0.5191,-0.5463,-0.5644,-0.5644,-0.5822,-0.6083,-0.6343,-0.6523,-0.6795,-0.7054,-0.7231,-0.7415,-0.7507,-0.7595,-0.7856,-0.8113,-0.8201,-0.8201,-0.8384,-0.8476,-0.8564,-0.8564,-0.8384,-0.8201,-0.794,-0.7768,-0.7503,-0.7231,-0.7139,-0.7139,-0.7139,-0.7139,-0.7139,-0.7139,-0.7139,-0.7143,-0.7415,-0.768,-0.794,-0.8204,-0.8472,-0.8568,-0.8568,-0.874,-0.8999,-0.9262,-0.9432,-0.9689,-0.9951,-1.0038,-1.0038,-1.0038,-1.0038,-1.0038,-1.0038,-1.0038,-1.0038,-1.0038,-1.0038,-1.0038,-1.0038,-1.0038,-1.0038,-1.0038,-1.0038,-1.0038,-1.0038,-1.0038,-1.0038,-1.0038,-1.0038,-1.0038,-1.0038,-1.0038,-1.0038,-1.0038,-1.0038,-1.0038,-1.0038,-1.0038,-1.0038,-1.0038,-1.0038,-1.0038,-1.0038,-1.0207,-1.0294,-1.0381,-1.0738,-1.1176,-1.1693,-0.2912,-0.2891,-0.2875,-0.2875,-0.2875,-0.2875,-0.2875,-0.2875,-0.2875,-0.2875,-0.2875,-0.2875,-0.2875,-0.323,-0.3587,-0.3859,-0.4036,-0.421,-0.43,-0.43,-0.43,-0.43,-0.4569,-0.4837,-0.501,-0.528,-0.5463,-0.5733,-0.5733,-0.5908,-0.6254,-0.6343,-0.6609,-0.6966,-0.7051,-0.7234,-0.7507,-0.768,-0.7856,-0.8116,-0.8292,-0.8384,-0.8472,-0.8564,-0.8568,-0.8568,-0.8568,-0.8384,-0.8201,-0.794,-0.768,-0.7415,-0.7143,-0.7139,-0.7139,-0.7139,-0.7139,-0.7139,-0.7139,-0.7139,-0.7139,-0.7234,-0.7588,-0.794,-0.8028,-0.8296,-0.8568,-0.8568,-0.874,-0.8911,-0.9087,-0.9257,-0.9432,-0.9607,-0.9607,-0.9607,-0.9777,-0.9777,-0.9864,-0.9951,-1.0038,-1.0038,-1.0038,-1.0038,-1.0038,-1.0038,-1.0038,-1.0038,-1.0038,-1.0038,-1.0038,-1.0038,-1.0038,-1.0038,-1.0038,-1.0038,-1.0038,-1.0038,-1.0038,-1.0038,-1.0038,-1.0038,-1.0038,-1.0038,-1.0038,-1.0038,-1.0038,-1.0038,-1.0038,-1.0038,-1.0207,-1.0472,-1.0738,-1.1181,-1.1613,-1.1871]},{"header":{"parameterUnit":"m.s-1","parameterCategory":1,"la1":30.6,"la2":28.766,"lo1":-90.7593,"lo2":-88.6598,"dy":0.0162,"dx":0.0183,"nx":116,"ny":114,"refTime":"2023-05-16T12:00:00:Z","depth":0,"parameterNumber":3,"parameterNumberName":"V-component_of_WINDS"},"data":[0.0,0.0,0.0,0.0,0.0,0.0,0.0,0.0,0.0,0.0,0.0,0.0,0.0,0.0,0.0,0.0,0.0,0.0,0.0,0.0,0.0,0.0,0.0,0.0,0.0,0.0,0.0,0.0,0.0,0.0,0.0,0.0,0.0,0.0,0.0,0.0,0.0,0.0,0.0,0.0,0.0,0.0,0.0,0.0,0.0,0.0,0.0,0.0,0.0,0.0,0.0,0.0,0.0,0.0,0.0,0.0,0.0,0.0,0.0,0.0,0.0,0.0,0.0,0.0,0.0,0.0,0.0,0.0,0.0,0.0,0.0,0.0,0.0,0.0,0.0,0.0,0.0,0.0,0.0,0.0,0.0,0.0,0.0,0.0,0.0,0.0,0.0,0.0,0.0,0.0,0.0,0.0,0.0,0.0,0.0,0.0,0.0,0.0,0.0,0.0,0.0,0.0,0.0,0.0,0.0,0.0,0.0,0.0,0.0,0.0,0.0,0.0,0.0,0.0,0.0,0.0,0.0,0.0,0.0,0.0,0.0,0.0,0.0,0.0,0.0,0.0,0.0,0.0,0.0,0.0,0.0,0.0,0.0,0.0,0.0,0.0,0.0,0.0,0.0,0.0,0.0,0.0,0.0,0.0,0.0,0.0,0.0,0.0,0.0,0.0,0.0,0.0,0.0,0.0,0.0,0.0,0.0,0.0,0.0,0.0,0.0,0.0,0.0,0.0,0.0,0.0,0.0,0.0,0.0,0.0,0.0,0.0,0.0,0.0,0.0,0.0,0.0,0.0,0.0,0.0,0.0,0.0,0.0,0.0,0.0,0.0,0.0,0.0,0.0,0.0,0.0,0.0,0.0,0.0,0.0,0.0,0.0,0.0,0.0,0.0,0.0,0.0,0.0,0.0,0.0,0.0,0.0,0.0,0.0,0.0,0.0,0.0,0.0,0.0,0.0,0.0,0.0,0.0,0.0,0.0,0.0,0.0,0.0,0.0,0.0,0.0,0.0,0.0,0.0,0.0,0.0,0.0,0.0,0.0,0.0,0.0,0.0,0.0,0.0,0.0,0.0,0.0,0.0,0.0,0.0,0.0,0.0,0.0,0.0,0.0,0.0,0.0,0.0,0.0,0.0,0.0,0.0,0.0,0.0,0.0,0.0,0.0,0.0,0.0,0.0,0.0,0.0,0.0,0.0,0.0,0.0,0.0,0.0,0.0,0.0,0.0,0.0,0.0,0.0,0.0,0.0,0.0,0.0,0.0,0.0,0.0,0.0,0.0,0.0,0.0,0.0,0.0,0.0,0.0,0.0,0.0,0.0,0.0,0.0,0.0,0.0,0.0,0.0,0.0,0.0,0.0,0.0,0.0,0.0,0.0,0.0,0.0,0.0,0.0,0.0,0.0,0.0,0.0,0.0,0.0,0.0,0.0,0.0,0.0,0.0,0.0,0.0,0.0,0.0,0.0,0.0,0.0,0.0,0.0,0.0,0.0,0.0,0.0,0.0,0.0,0.0,0.0,0.0,0.0,0.0,0.0,0.0,0.0,0.0,0.0,0.0,0.0,0.0,0.0,0.0,0.0,0.0,0.0,0.0,0.0,0.0,0.0,0.0,0.0,0.0,0.0,0.0,0.0,0.0,0.0,0.0,0.0,0.0,0.0,0.0,0.0,0.0,0.0,0.0,0.0,0.0,0.0,0.0,0.0,0.0,0.0,0.0,0.0,0.0,0.0,0.0,0.0,0.0,0.0,0.0,0.0,0.0,0.0,0.0,0.0,0.0,0.0,0.0,0.0,0.0,0.0,0.0,0.0,0.0,0.0,0.0,0.0,0.0,0.0,0.0,0.0,0.0,0.0,0.0,0.0,0.0,0.0,0.0,0.0,0.0,0.0,0.0,0.0,0.0,0.0,0.0,0.0,0.0,0.0,0.0,0.0,0.0,0.0,0.0,0.0,0.0,0.0,0.0,0.0,0.0,0.0,0.0,0.0,0.0,0.0,0.0,0.0,0.0,0.0,0.0,0.0,0.0,0.0,0.0,0.0,0.0,0.0,0.0,0.0,0.0,0.0,0.0,0.0,0.0,0.0,0.0,0.0,0.0,0.0,0.0,0.0,0.0,0.0,0.0,0.0,0.0,0.0,0.0,0.0,0.0,0.0,0.0,0.0,0.0,0.0,0.0,0.0,0.0,0.0,0.0,0.0,0.0,0.0,0.0,0.0,0.0,0.0,0.0,0.0,0.0,0.0,0.0,0.0,0.0,0.0,0.0,0.0,0.0,0.0,0.0,0.0,0.0,0.0,0.0,0.0,0.0,0.0,0.0,0.0,0.0,0.0,0.0,0.0,0.0,0.0,0.0,0.0,0.0,0.0,0.0,0.0,0.0,0.0,0.0,0.0,0.0,0.0,0.0,0.0,0.0,0.0,0.0,0.0,0.0,0.0,0.0,0.0,0.0,0.0,0.0,0.0,0.0,0.0,0.0,0.0,0.0,0.0,0.0,0.0,0.0,0.0,0.0,0.0,0.0,0.0,0.0,0.0,0.0,0.0,0.0,0.0,0.0,0.0,0.0,0.0,0.0,0.0,0.0,0.0,0.0,0.0,0.0,0.0,0.0,0.0,0.0,0.0,0.0,0.0,0.0,0.0,0.0,0.0,0.0,0.0,0.0,0.0,0.0,0.0,0.0,0.0,0.0,0.0,0.0,0.0,0.0,0.0,0.0,0.0,0.0,0.0,0.0,0.0,0.0,0.0,0.0,0.0,0.0,0.0,0.0,0.0,0.0,0.0,0.0,0.0,0.0,0.0,0.0,0.0,0.0,0.0,0.0,0.0,0.0,0.0,0.0,0.0,0.0,0.0,0.0,0.0,0.0,0.0,0.0,0.0,0.0,0.0,0.0,0.0,0.0,0.0,0.0,0.0,0.0,0.0,0.0,0.0,0.0,0.0,0.0,0.0,0.0,0.0,0.0,0.0,0.0,0.0,0.0,0.0,0.0,0.0,0.0,0.0,0.0,0.0,0.0,0.0,0.0,0.0,0.0,0.0,0.0,0.0,0.0,0.0,0.0,0.0,0.0,0.0,0.0,0.0,0.0,0.0,0.0,0.0,0.0,0.0,0.0,0.0,0.0,0.0,0.0,0.0,0.0,0.0,0.0,0.0,0.0,0.0,0.0,0.0,0.0,0.0,0.0,0.0,0.0,0.0,0.0,0.0,0.0,0.0,0.0,0.0,0.0,0.0,0.0,0.0,0.0,0.0,0.0,0.0,0.0,0.0,0.0,0.0,0.0,0.0,0.0,0.0,0.0,0.0,0.0,0.0,0.0,0.0,0.0,0.0,0.0,0.0,0.0,0.0,0.0,0.0,0.0,0.0,0.0,0.0,0.0,0.0,0.0,0.0,0.0,0.0,0.0,0.0,0.0,0.0,0.0,0.0,0.0,0.0,0.0,0.0,0.0,0.0,0.0,0.0,0.0,0.0,0.0,0.0,0.0,0.0,0.0,0.0,0.0,0.0,0.0,0.0,0.0,0.0,0.0,0.0,0.0,0.0,0.0,0.0,0.0,0.0,0.0,0.0,0.0,0.0,0.0,0.0,0.0,0.0,0.0,0.0,0.0,0.0,0.0,0.0,0.0,0.0,0.0,0.0,0.0,0.0,0.0,0.0,0.0,0.0,0.0,0.0,0.0,0.0,0.0,0.0,0.0,0.0,0.0,0.0,0.0,0.0,0.0,0.0,0.0,0.0,0.0,0.0,0.0,0.0,0.0,0.0,0.0,0.0,0.0,0.0,0.0,0.0,0.0,0.0,0.0,0.0,0.0,0.0,0.0,0.0,0.0,0.0,0.0,0.0,0.0,0.0,0.0,0.0,0.0,0.0,0.0,0.0,0.0,0.0,0.0,0.0,0.0,0.0,0.0,0.0,0.0,0.0,0.0,0.0,0.0,0.0,0.0,0.0,0.0,0.0,0.0,0.0,0.0,0.0,0.0,0.0,0.0,0.0,0.0,0.0,0.0,0.0,0.0,0.0,0.0,0.0,0.0,0.0,0.0,0.0,0.0,0.0,0.0,0.0,0.0,0.0,0.0,0.0,0.0,0.0,0.0,0.0,0.0,0.0,0.0,0.0,0.0,0.0,0.0,0.0,0.0,0.0,0.0,0.0,0.0,0.0,0.0,0.0,0.0,0.0,0.0,0.0,0.0,0.0,0.0,0.0,0.0,0.0,0.0,0.0,0.0,0.0,0.0,0.0,0.0,0.0,0.0,0.0,0.0,0.0,0.0,0.0,0.0,0.0,0.0,0.0,0.0,0.0,0.0,0.0,0.0,0.0,0.0,0.0,0.0,0.0,0.0,0.0,0.0,0.0,0.0,0.0,0.0,0.0,0.0,0.0,0.0,0.0,0.0,0.0,0.0,0.0,0.0,0.0,0.0,0.0,0.0,0.0,0.0,0.0,0.0,0.0,0.0,0.0,0.0,0.0,0.0,0.0,0.0,0.0,0.0,0.0,0.0,0.0,0.0,0.0,0.0,0.0,0.0,0.0,0.0,0.0,0.0,0.0,0.0,0.0,0.0,0.0,0.0,0.0,0.0,0.0,0.0,0.0,0.0,0.0,0.0,0.0,0.0,0.0,0.0,0.0,0.0,0.0,0.0,0.0,0.0,0.0,0.0,0.0,0.0,0.0,0.0,0.0,0.0,0.0,0.0,0.0,0.0,0.0,0.0,0.0,0.0,0.0,0.0,0.0,0.0,0.0,0.0,0.0,0.0,0.0,0.0,0.0,0.0,0.0,0.0,0.0,0.0,0.0,0.0,0.0,0.0,0.0,0.0,0.0,0.0,0.0,0.0,0.0,0.0,0.0,0.0,0.0,0.0,0.0,0.0,0.0,0.0,0.0,0.0,0.0,0.0,0.0,0.0,0.0,0.0,0.0,0.0,0.0,0.0,0.0,0.0,0.0,0.0,0.0,0.0,0.0,0.0,0.0,0.0,0.0,0.0,0.0,0.0,0.0,0.0,0.0,0.0,0.0,0.0,0.0,0.0,0.0,0.0,0.0,0.0,0.0,0.0,0.0,0.0,0.0,0.0,0.0,0.0,0.0,0.0,0.0,0.0,0.0,0.0,0.0,0.0,0.0,0.0,0.0,0.0,0.0,0.0,0.0,0.0,0.0,0.0,0.0,0.0,0.0,0.0,0.0,0.0,0.0,0.0,0.0,0.0,0.0,0.0,0.0,0.0,0.0,0.0,0.0,0.0,0.0,0.0,0.0,0.0,0.0,0.0,0.0,0.0,0.0,0.0,0.0,0.0,0.0,0.0,0.0,0.0,0.0,0.0,0.0,0.0,0.0,0.0,0.0,0.0,0.0,0.0,0.0,0.0,0.0,0.0,0.0,0.0,0.0,0.0,0.0,0.0,0.0,0.0,0.0,0.0,0.0,0.0,0.0,0.0,0.0,0.0,0.0,0.0,0.0,0.0,0.0,0.0,0.0,0.0,0.0,0.0,0.0,0.0,0.0,0.0,0.0,0.0,0.0,0.0,0.0,0.0,0.0,0.0,0.0,0.0,0.0,0.0,0.0,0.0,0.0,0.0,0.0,0.0,0.0,0.0,0.0,0.0,0.0,0.0,0.0,0.0,0.0,0.0,0.0,0.0,0.0,0.0,0.0,0.0,0.0,0.0,0.0,0.0,0.0,0.0,0.0,0.0,0.0,0.0,0.0,0.0,0.0,0.0,0.0,0.0,0.0,0.0,0.0,0.0,0.0,0.0,0.0,0.0,0.0,0.0,0.0,0.0,0.0,0.0,0.0,0.0,0.0,0.0,0.0,0.0,0.0,0.0,0.0,0.0,0.0,0.0,0.0,0.0,0.0,0.0,0.0,0.0,0.0,0.0,0.0,0.0,0.0,0.0,0.0,0.0,0.0,0.0,0.0,0.0,0.0,0.0,0.0,0.0,0.0,0.0,0.0,0.0,0.0,0.0,0.0,0.0,0.0,0.0,0.0,0.0,0.0,0.0,0.0,0.0,0.0,0.0,0.0,0.0,0.0,0.0,0.0,0.0,0.0,0.0,0.0,0.0,0.0,0.0,0.0,0.0,0.0,0.0,0.0,0.0,0.0,-1.2576,-1.2191,0.0,0.0,0.0,0.0,0.0,0.0,0.0,0.0,0.0,0.0,0.0,0.0,0.0,0.0,0.0,0.0,0.0,0.0,0.0,0.0,0.0,0.0,0.0,0.0,0.0,0.0,0.0,0.0,0.0,0.0,0.0,0.0,0.0,0.0,0.0,0.0,0.0,0.0,0.0,0.0,0.0,0.0,0.0,0.0,0.0,0.0,0.0,0.0,0.0,0.0,0.0,0.0,0.0,0.0,0.0,0.0,0.0,0.0,0.0,0.0,0.0,0.0,0.0,0.0,0.0,0.0,0.0,0.0,0.0,0.0,0.0,0.0,0.0,0.0,0.0,0.0,0.0,0.0,0.0,0.0,0.0,0.0,0.0,0.0,0.0,0.0,0.0,0.0,0.0,0.0,0.0,0.0,0.0,0.0,0.0,0.0,0.0,0.0,0.0,0.0,0.0,0.0,0.0,0.0,0.0,0.0,0.0,0.0,0.0,0.0,0.0,0.0,0.0,0.0,-1.4641,-1.4272,0.0,0.0,0.0,0.0,0.0,0.0,0.0,0.0,0.0,0.0,0.0,0.0,0.0,0.0,0.0,0.0,0.0,0.0,0.0,0.0,0.0,0.0,0.0,0.0,0.0,0.0,0.0,0.0,0.0,0.0,0.0,0.0,0.0,0.0,0.0,0.0,0.0,0.0,0.0,0.0,0.0,0.0,0.0,0.0,0.0,0.0,0.0,0.0,0.0,0.0,0.0,0.0,0.0,0.0,0.0,0.0,0.0,0.0,0.0,0.0,0.0,0.0,0.0,0.0,0.0,0.0,0.0,0.0,0.0,0.0,0.0,0.0,0.0,0.0,0.0,0.0,0.0,0.0,0.0,0.0,0.0,0.0,0.0,0.0,0.0,0.0,0.0,0.0,0.0,0.0,0.0,0.0,0.0,0.0,0.0,0.0,0.0,0.0,0.0,0.0,0.0,0.0,0.0,0.0,0.0,0.0,0.0,0.0,-1.5816,-1.6167,-1.7153,-1.7418,-1.7595,-1.7664,-1.676,-1.6436,-1.6439,-1.5293,0.0,0.0,0.0,0.0,0.0,0.0,0.0,0.0,0.0,0.0,0.0,0.0,0.0,0.0,0.0,0.0,0.0,0.0,0.0,0.0,0.0,0.0,0.0,0.0,0.0,0.0,0.0,0.0,0.0,0.0,0.0,0.0,0.0,0.0,0.0,0.0,0.0,0.0,-2.0311,-2.0951,-2.1187,-2.0979,0.0,0.0,0.0,0.0,0.0,0.0,0.0,0.0,0.0,0.0,0.0,0.0,0.0,0.0,0.0,0.0,0.0,0.0,0.0,0.0,0.0,0.0,0.0,0.0,0.0,0.0,0.0,0.0,0.0,0.0,0.0,0.0,0.0,0.0,0.0,0.0,0.0,0.0,0.0,0.0,0.0,0.0,0.0,0.0,-1.1575,-1.1734,0.0,0.0,0.0,0.0,0.0,0.0,0.0,0.0,0.0,0.0,0.0,0.0,0.0,-1.6184,-1.6319,-1.694,-1.7311,-1.738,-1.7879,-1.8253,-1.8574,-1.9578,-1.992,-1.9704,-1.9559,0.0,-1.6237,-1.6062,0.0,0.0,0.0,0.0,0.0,0.0,0.0,0.0,0.0,0.0,0.0,0.0,0.0,0.0,0.0,0.0,0.0,0.0,0.0,0.0,0.0,0.0,0.0,0.0,0.0,0.0,0.0,0.0,0.0,0.0,0.0,0.0,0.0,0.0,0.0,0.0,-2.0583,-2.1279,-2.1577,-2.1891,-2.1996,-2.1909,-2.0257,-1.9373,-1.9021,-1.8297,0.0,0.0,0.0,0.0,0.0,0.0,0.0,0.0,0.0,0.0,0.0,0.0,0.0,0.0,0.0,0.0,0.0,0.0,0.0,0.0,0.0,0.0,0.0,0.0,0.0,0.0,0.0,0.0,0.0,0.0,0.0,0.0,0.0,0.0,0.0,0.0,0.0,0.0,0.0,-1.2191,-1.2679,-1.3206,-1.3993,-1.4526,0.0,0.0,0.0,0.0,0.0,0.0,0.0,0.0,0.0,-1.7156,-1.7552,-1.8034,-1.8586,-1.8946,-1.9395,-1.9899,-1.9217,-1.945,-2.0513,-2.1077,-2.1259,-2.1112,-2.1112,-2.0456,-1.9279,-1.7746,-1.7126,-1.7104,0.0,0.0,0.0,0.0,-1.6885,-1.6972,0.0,0.0,0.0,0.0,0.0,0.0,0.0,0.0,0.0,0.0,0.0,0.0,0.0,0.0,0.0,-1.6909,0.0,0.0,0.0,0.0,0.0,0.0,0.0,0.0,0.0,0.0,0.0,0.0,-2.248,-2.2929,-2.2886,-2.3259,-2.3434,-2.34,-2.3287,-2.2552,-2.1369,-2.0507,-1.9684,0.0,0.0,0.0,0.0,0.0,0.0,0.0,0.0,0.0,0.0,0.0,0.0,0.0,0.0,0.0,0.0,0.0,0.0,0.0,0.0,0.0,0.0,0.0,0.0,0.0,0.0,0.0,0.0,0.0,0.0,0.0,0.0,0.0,0.0,0.0,0.0,0.0,0.0,-1.3604,-1.4032,-1.4706,-1.5563,-1.6109,0.0,0.0,0.0,0.0,0.0,0.0,-1.7518,-1.8232,-1.8752,-1.8935,-1.947,-2.0089,-2.0759,-2.0811,-2.1154,-2.1793,-2.0645,-2.0625,-2.1676,-2.2372,-2.25,-2.2184,-2.224,-2.2277,-2.2113,-1.9797,-1.8845,-1.8802,-1.8246,-1.7986,-1.7904,-1.7921,-1.7895,-1.7858,0.0,0.0,0.0,0.0,0.0,0.0,0.0,0.0,0.0,0.0,0.0,0.0,0.0,0.0,-1.7819,-1.7741,-1.7774,-1.7796,0.0,0.0,0.0,0.0,0.0,0.0,0.0,0.0,0.0,-2.2438,-2.399,-2.4743,-2.4708,-2.629,-2.6992,-2.694,-2.687,-2.4942,-2.1766,-2.1498,-2.1237,-2.0871,0.0,0.0,0.0,0.0,0.0,0.0,0.0,0.0,0.0,0.0,0.0,0.0,0.0,0.0,0.0,0.0,0.0,0.0,0.0,0.0,0.0,0.0,0.0,0.0,0.0,0.0,0.0,0.0,0.0,0.0,0.0,0.0,0.0,0.0,0.0,0.0,0.0,0.0,0.0,-1.5807,-1.6656,0.0,0.0,0.0,0.0,-1.7273,-1.7917,-1.8647,-1.9431,-2.022,-2.099,-2.1767,-2.1823,-2.1909,-2.201,-2.201,-2.2044,-2.2088,-2.2566,-2.2252,-2.1306,-2.354,-2.397,-2.2961,-2.3216,-2.331,-2.3254,-2.2147,-2.1678,-2.1713,-2.1723,-2.1272,-2.0615,-2.0676,-2.0258,-1.9575,0.0,0.0,0.0,0.0,0.0,0.0,0.0,0.0,0.0,0.0,0.0,0.0,0.0,-1.8231,-1.8737,-1.8702,-1.9172,-1.9475,-1.9478,0.0,0.0,0.0,0.0,0.0,0.0,0.0,-2.4224,-2.4163,-2.5791,-2.656,-2.655,-2.7146,-2.7418,-2.7384,-2.7315,-2.6575,-2.526,-2.3928,-2.3235,-2.2897,-2.1362,-2.0446,0.0,0.0,0.0,0.0,0.0,0.0,0.0,0.0,0.0,0.0,0.0,0.0,0.0,0.0,0.0,0.0,0.0,0.0,0.0,0.0,0.0,0.0,0.0,0.0,0.0,0.0,0.0,0.0,0.0,0.0,0.0,0.0,0.0,0.0,0.0,0.0,0.0,-1.6914,-1.7728,0.0,-1.9049,-1.9602,-2.0144,-2.0669,-2.091,-2.1149,-2.1453,-2.1733,-2.2035,-2.2299,-2.2318,-2.2582,-2.3124,-2.3118,-2.3383,-2.3898,-2.4128,-2.4001,-2.362,-2.4445,-2.4615,-2.4228,-2.428,-2.4299,-2.428,-2.3917,-2.3116,-2.21,-2.2114,-2.2004,-2.1773,-2.1373,-2.1135,-2.0885,0.0,0.0,0.0,0.0,0.0,0.0,0.0,0.0,0.0,0.0,0.0,-1.7478,-1.8349,-1.9169,-1.9636,-1.9632,-2.0366,-2.0845,-2.0836,0.0,0.0,0.0,0.0,0.0,0.0,-2.5053,-2.5757,-2.5977,-2.7344,-2.7984,-2.797,-2.8565,-2.8817,-2.8836,-2.9057,-2.8969,-2.8547,-2.697,-2.5815,-2.4949,-2.3144,-2.2299,-2.1996,0.0,0.0,0.0,0.0,0.0,0.0,0.0,0.0,0.0,0.0,0.0,0.0,0.0,0.0,0.0,0.0,0.0,0.0,0.0,0.0,0.0,0.0,0.0,0.0,0.0,0.0,0.0,0.0,0.0,0.0,0.0,0.0,0.0,0.0,0.0,-1.8346,-1.8401,-1.9447,-2.0391,-2.0992,-2.1575,-2.2122,-2.2651,-2.2633,-2.2738,-2.3015,-2.3021,-2.3274,-2.3828,-2.3854,-2.411,-2.4631,-2.4636,-2.491,-2.5438,-2.5419,-2.5457,-2.5545,-2.5741,-2.5964,-2.6116,-2.5861,-2.5734,-2.5734,-2.5739,-2.4888,-2.3549,-2.322,-2.3143,-2.3164,-2.2748,-2.235,-2.1905,0.0,0.0,0.0,0.0,0.0,0.0,0.0,0.0,0.0,0.0,-1.7496,-1.837,-1.9243,-2.0046,-2.0513,-2.055,-2.1245,-2.1711,-2.1734,-2.2559,0.0,0.0,0.0,0.0,-2.6601,-2.6587,-2.6956,-2.7745,-2.8632,-2.904,-2.9014,-3.0677,-3.1441,-3.1479,-3.2256,-3.2133,-3.1302,-3.0453,-2.8985,-2.7079,-2.5221,-2.4411,-2.4082,0.0,0.0,0.0,0.0,0.0,0.0,0.0,0.0,0.0,0.0,0.0,0.0,0.0,0.0,0.0,0.0,0.0,0.0,0.0,0.0,0.0,0.0,0.0,0.0,0.0,0.0,0.0,0.0,0.0,0.0,0.0,0.0,0.0,-1.7719,-1.904,-2.0212,-2.028,-2.1787,-2.2829,-2.2924,-2.2979,-2.2998,-2.3016,-2.2982,-2.3327,-2.4174,-2.4168,-2.487,-2.6493,-2.6549,-2.6557,-2.6557,-2.6557,-2.6557,-2.6557,-2.6485,-2.6577,-2.6852,-2.7471,-2.8045,-2.8575,-2.7937,-2.7681,-2.7681,-2.7693,-2.7189,-2.6319,-2.5251,-2.4841,-2.4809,-2.4889,-2.3981,-2.2728,0.0,0.0,0.0,0.0,0.0,0.0,0.0,0.0,0.0,0.0,-1.8397,-1.9277,-2.0149,-2.0438,-2.0818,-2.1399,-2.1639,-2.2033,-2.2663,0.0,0.0,0.0,0.0,0.0,-2.7527,-2.8102,-2.8491,-2.8725,-3.0158,-3.0874,-3.0893,-3.1928,-3.2426,-3.2426,-3.2642,-3.2613,-3.2373,-3.2129,-3.1325,-3.0,-2.7503,-2.6418,-2.6113,0.0,0.0,0.0,0.0,0.0,0.0,0.0,0.0,0.0,0.0,0.0,0.0,0.0,0.0,0.0,0.0,0.0,0.0,0.0,0.0,0.0,0.0,0.0,0.0,0.0,0.0,0.0,0.0,0.0,0.0,0.0,0.0,-2.1369,-1.9676,-2.0952,-2.2084,-2.2156,-2.2624,-2.3203,-2.385,-2.448,-2.5118,-2.5754,-2.6326,-2.6754,-2.6986,-2.6985,-2.7176,-2.7663,-2.7611,-2.7583,-2.7583,-2.7584,-2.7585,-2.7586,-2.7528,-2.7536,-2.7621,-2.8168,-2.8522,-2.871,-2.9337,-2.9594,-2.955,-2.9569,-2.9423,-2.8969,-2.6817,-2.5596,-2.5091,-2.5111,-2.4976,-2.4788,0.0,0.0,0.0,0.0,0.0,0.0,0.0,0.0,0.0,0.0,-1.8737,-1.9604,-2.0508,-2.0566,-2.0894,-2.1739,-2.2135,-2.2708,-2.3595,0.0,0.0,0.0,0.0,-2.7658,-2.8473,-2.9273,-2.9858,-3.0229,-3.1545,-3.2186,-3.2205,-3.3045,-3.343,-3.3449,-3.3782,-3.3736,-3.3382,-3.3388,-3.2856,-3.1889,-3.0285,-2.8901,-2.767,-2.6283,-2.5716,-2.5377,-2.3699,-2.3092,-2.2818,-2.1156,0.0,0.0,0.0,0.0,0.0,0.0,0.0,0.0,0.0,0.0,0.0,0.0,0.0,0.0,0.0,0.0,0.0,0.0,0.0,0.0,0.0,0.0,0.0,0.0,-2.291,-2.3634,-2.3057,-2.3519,-2.3953,-2.4019,-2.4713,-2.5391,-2.5883,-2.6411,-2.693,-2.7413,-2.7877,-2.814,-2.815,-2.8135,-2.8312,-2.8664,-2.8618,-2.8585,-2.8585,-2.8589,-2.8586,-2.8581,-2.8517,-2.8684,-2.9033,-2.9332,-2.9456,-2.9503,-3.0128,-3.0386,-3.0344,-3.0321,-3.011,-2.961,0.0,0.0,0.0,0.0,-2.5434,-2.5615,0.0,0.0,0.0,0.0,0.0,0.0,0.0,0.0,0.0,0.0,0.0,-1.955,-2.0498,-2.0543,-2.0898,-2.1853,-2.2642,-2.3508,0.0,0.0,0.0,-2.7051,-2.7808,-2.8625,-2.9436,-3.024,-3.1042,-3.1813,-3.2709,-3.3153,-3.3172,-3.4041,-3.4446,-3.4484,-3.5193,-3.5085,-3.4371,-3.4353,-3.3872,-3.3063,-3.3063,-3.1482,-2.9003,-2.8075,-2.7656,-2.7346,-2.5716,-2.512,-2.4875,-2.3175,0.0,0.0,0.0,0.0,0.0,0.0,0.0,0.0,0.0,0.0,0.0,0.0,0.0,0.0,0.0,0.0,0.0,0.0,0.0,0.0,0.0,0.0,0.0,0.0,-2.5112,-2.5994,-2.6844,-2.6384,-2.5937,-2.5904,-2.7274,-2.8217,-2.8213,-2.8346,-2.8413,-2.8352,-2.8449,-2.8486,-2.8499,-2.8486,0.0,0.0,0.0,-2.9569,-2.9563,-2.9551,-2.9557,-2.9557,-2.9489,-2.9854,-3.0613,-3.0559,-3.0511,-3.0501,-3.0449,-3.0428,-3.0398,-3.0352,-2.9898,-2.9151,-2.8192,-2.7846,-2.7736,-2.6332,-2.5844,-2.5867,0.0,0.0,0.0,0.0,0.0,0.0,0.0,0.0,0.0,-1.78,-1.8669,-1.9542,-2.0419,-2.0508,-2.1123,-2.2712,-2.3007,-2.3778,0.0,0.0,-2.7201,-2.791,-2.8716,-2.9543,-3.0413,-3.1224,-3.17,-3.1874,-3.3383,-3.4127,-3.4146,-3.4977,-3.5345,-3.5364,-3.5508,-3.5488,-3.5334,-3.5322,-3.4859,-3.4116,-3.4116,-3.2887,-3.0957,-3.0075,-2.9276,-2.8464,-2.7426,-2.7056,-2.6801,-2.512,-2.4562,-2.4307,-2.2787,0.0,0.0,0.0,0.0,0.0,0.0,0.0,0.0,0.0,0.0,0.0,0.0,0.0,0.0,0.0,0.0,0.0,0.0,0.0,0.0,-2.6107,-2.6992,-2.766,-2.7904,-2.84,-2.8476,-2.7779,-2.8042,-2.8276,-2.8277,-2.8923,-2.9335,-2.9335,-2.9921,-3.0291,-3.0308,-3.0302,-3.0372,-3.0537,-3.0547,-3.0533,-3.052,-3.0526,-3.0531,-3.0534,-3.0458,0.0,-3.0676,-3.0665,-3.064,-3.0577,-3.0569,-3.052,-3.0481,-3.0469,-3.0362,-3.0064,-2.851,-2.7923,-2.795,-2.7691,-2.764,-2.7498,0.0,0.0,0.0,0.0,0.0,0.0,0.0,0.0,0.0,0.0,-1.8608,-1.948,-2.034,-2.0474,-2.104,-2.2346,-2.3259,0.0,0.0,-2.6891,-2.7787,-2.8184,-2.943,-3.0283,-3.0685,-3.193,-3.2538,-3.2548,-3.4226,-3.5049,-3.5049,-3.5456,-3.5649,-3.5649,-3.5649,-3.5649,-3.5649,-3.5649,-3.5417,-3.5049,-3.5049,-3.4244,-3.2894,-3.1515,-3.0706,-3.0143,-2.8828,-2.8344,-2.8159,-2.6926,-2.6209,-2.5636,-2.4379,-2.3717,-2.3331,0.0,0.0,0.0,0.0,0.0,0.0,0.0,0.0,0.0,0.0,0.0,0.0,0.0,0.0,-2.4974,0.0,0.0,-2.7187,-2.8521,-2.9156,-2.9775,-3.0665,-3.117,-3.0968,-2.9669,-2.9919,-3.0369,-3.0811,-3.1257,-3.1491,-3.1491,-3.1862,-3.2102,-3.2107,-3.2109,-3.2109,-3.2102,-3.2096,-3.2107,-3.2095,-3.1675,-3.1449,-3.1445,-3.0969,-3.0753,-3.0749,-3.0717,-3.0688,-3.0645,-3.0613,-3.0586,-3.0549,-3.054,-3.055,-3.0463,-2.9602,-2.9273,-2.9253,-2.8892,-2.8793,-2.8665,0.0,0.0,0.0,0.0,0.0,0.0,0.0,0.0,0.0,0.0,-1.8318,-1.9172,-2.0051,-2.0346,-2.0842,0.0,0.0,0.0,0.0,-2.7086,-2.811,-2.8203,-2.9706,-3.0604,-3.0709,-3.2357,-3.3223,-3.3219,-3.4911,-3.5736,-3.5736,-3.5736,-3.5736,-3.5736,-3.5736,-3.5736,-3.5736,-3.5736,-3.5736,-3.5736,-3.5736,-3.5348,-3.4592,-3.29,-3.2057,-3.1543,-3.013,-2.9531,-2.9261,-2.8443,-2.7701,-2.6949,-2.5974,-2.5192,-2.4463,-2.3659,-2.3292,0.0,0.0,0.0,0.0,0.0,0.0,0.0,0.0,0.0,-2.5085,-2.5785,-2.6621,-2.7497,-2.8373,-2.8706,-2.9382,-3.0969,-3.127,-3.1792,-3.3205,-3.3394,-3.2949,-3.1699,-3.2027,-3.2619,-3.3329,-3.3403,-3.3384,-3.3384,-3.3384,-3.3395,-3.3398,-3.34,-3.339,-3.3398,-3.3397,-3.3394,-3.3406,-3.2697,-3.2358,-3.2335,-3.1473,-3.1042,-3.1042,-3.0827,-3.0711,-3.0704,-3.0642,-3.061,-3.0602,-3.0602,-3.0621,-3.0613,-3.061,-3.0621,-3.0535,-2.988,-2.9706,-2.9638,0.0,0.0,0.0,0.0,0.0,0.0,0.0,0.0,0.0,0.0,0.0,0.0,0.0,0.0,0.0,0.0,0.0,0.0,-2.4542,-2.6172,-2.7497,-2.825,-2.9152,-3.001,-3.0779,-3.2439,-3.3284,-3.3284,-3.5035,-3.5891,-3.5891,-3.5891,-3.5891,-3.5891,-3.5891,-3.5891,-3.5891,-3.5891,-3.5891,-3.5891,-3.5891,-3.5813,-3.5631,-3.4656,-3.3281,-3.1835,-3.1584,-3.0994,-3.0211,-2.9409,-2.9079,-2.8709,-2.7137,-2.6578,-2.6327,-2.5467,0.0,-2.4135,-2.4077,-2.4045,-2.4238,-2.5014,-2.579,-2.6565,0.0,0.0,-2.7672,-2.7789,-2.8482,-2.9357,-3.0244,-3.1034,-3.1907,-3.2927,-3.3099,-3.3185,-3.3374,-3.3398,-3.36,-3.4189,-3.3679,-3.3294,-3.3395,-3.3405,-3.339,-3.3317,-3.3366,-3.3395,-3.3399,-3.3395,-3.3409,-3.3402,-3.3408,-3.3394,-3.3398,-3.3299,-3.3255,-3.3241,-3.236,-3.1952,-3.1934,-3.1145,-3.0759,-3.0697,-3.0685,-3.0661,-3.0602,-3.0602,-3.0637,-3.0692,-3.0695,-3.0685,-3.0685,-3.0594,-3.0598,-3.0633,0.0,0.0,0.0,0.0,0.0,0.0,0.0,0.0,0.0,0.0,0.0,0.0,0.0,0.0,0.0,0.0,0.0,0.0,-2.4336,-2.5556,-2.664,-2.7519,-2.8839,-2.9704,-3.0043,-3.1722,-3.2601,-3.2611,-3.4314,-3.5145,-3.5145,-3.5657,-3.5891,-3.5891,-3.5891,-3.5891,-3.5891,-3.5891,-3.5905,-3.5898,-3.5898,-3.5892,-3.5866,-3.5496,-3.425,-3.2647,-3.2116,-3.1363,0.0,0.0,-2.9788,-2.9239,-2.8541,-2.799,-2.754,-2.7181,-2.6836,0.0,-2.6548,-2.6518,-2.6615,0.0,-2.7354,-2.7704,-2.8071,-2.8932,-2.9677,-2.9677,-3.0734,-3.1796,-3.2196,-3.2572,-3.3112,0.0,-3.4166,-3.4333,-3.4843,-3.491,-3.5025,-3.5368,-3.5071,-3.4852,-3.4851,-3.4845,-3.4834,-3.4828,-3.4834,-3.4845,-3.4842,-3.4852,-3.4866,-3.4917,-3.4914,-3.4908,-3.4912,-3.4413,-3.416,-3.4158,-3.3268,-3.2865,-3.2833,-3.2474,-3.1996,-3.1423,-3.0924,-3.0672,-3.0658,-3.0658,-3.0665,-3.0691,-3.073,-3.0767,-3.0764,-3.0764,-3.0774,-3.0793,0.0,0.0,0.0,0.0,0.0,0.0,0.0,0.0,0.0,0.0,0.0,0.0,0.0,0.0,0.0,0.0,0.0,0.0,0.0,-2.4709,-2.5726,-2.6592,-2.8086,0.0,-2.9484,-3.0969,-3.1851,-3.2093,-3.3565,-3.4262,-3.4282,-3.5159,-3.5568,-3.5588,-3.5821,-3.5919,-3.5919,-3.5919,-3.5933,-3.5922,-3.5922,-3.5936,-3.5891,-3.5669,-3.4642,-3.3234,-3.259,-3.1657,0.0,0.0,-3.0302,-2.9736,-2.9493,-2.9036,-2.8505,-2.8283,-2.8225,-2.8225,-2.8236,0.0,0.0,-2.8851,-2.9104,-2.9338,-2.9589,-3.0603,-3.1514,-3.1514,-3.2669,-3.3691,-3.3758,-3.3961,-3.4326,-3.4956,-3.5058,-3.5351,-3.6235,-3.6332,-3.6406,-3.6596,-3.6384,-3.6236,-3.6236,-3.6002,-3.5872,-3.5864,-3.5872,-3.5866,-3.5866,-3.5897,-3.5914,-3.5968,-3.597,-3.5985,-3.5991,-3.5364,-3.5057,-3.5058,-3.4176,-3.3756,-3.3749,-3.3505,-3.3025,-3.2361,-3.1693,-3.1279,-3.1059,-3.1059,-3.0923,-3.0734,-3.0769,-3.0804,-3.0798,-3.0798,-3.0802,-3.0798,0.0,0.0,0.0,0.0,0.0,0.0,0.0,0.0,0.0,0.0,0.0,0.0,0.0,0.0,0.0,0.0,0.0,0.0,0.0,-2.3454,-2.4833,-2.5696,-2.6592,-2.7831,-2.9452,-3.0383,-3.1248,-3.2108,-3.3005,-3.3438,-3.3457,-3.4332,-3.4737,-3.4776,-3.5615,-3.6005,-3.6005,-3.6005,-3.6005,-3.6001,-3.6001,-3.6001,-3.5903,-3.5069,-3.4172,-3.3372,-3.3288,0.0,0.0,0.0,-3.0789,-3.0603,-2.9769,-2.9484,0.0,-2.8538,-2.8304,-2.8304,0.0,0.0,-2.9666,-3.0505,-3.1363,-3.2202,-3.3041,-3.3271,-3.3325,-3.3325,-3.4035,-3.4654,-3.4658,-3.5346,-3.5935,-3.5957,-3.5954,-3.6253,-3.7148,-3.7201,-3.7487,-3.8324,-3.7617,-3.7067,0.0,-3.6301,-3.5795,-3.5799,-3.5795,-3.5811,-3.5811,-3.5866,-3.5897,-3.5908,-3.5904,-3.5927,-3.5991,-3.5974,-3.5966,-3.5957,-3.5078,-3.4666,-3.4625,-3.3789,-3.3388,-3.3356,-3.3264,-3.2747,-3.1952,-3.1952,-3.149,-3.0799,-3.0793,-3.0794,-3.0807,-3.0807,-3.0799,-3.0795,0.0,0.0,0.0,0.0,0.0,0.0,0.0,0.0,0.0,0.0,0.0,0.0,0.0,0.0,0.0,0.0,0.0,0.0,0.0,-2.227,-2.3255,-2.4721,-2.5645,-2.6661,-2.7827,-2.8691,-2.9569,-3.0439,-3.1317,-3.2016,-3.2553,-3.3428,-3.3838,-3.3854,-3.4147,-3.4264,-3.4264,-3.4264,-3.4264,-3.4264,-3.4267,-3.4261,-3.4234,-3.3945,-3.3305,-3.2524,0.0,0.0,0.0,0.0,0.0,0.0,-3.0466,-3.0352,-3.0313,-3.0091,-3.0035,-3.0133,-3.0679,0.0,-3.1438,-3.2306,-3.2752,-3.3044,-3.3328,-3.3858,-3.4254,-3.4251,-3.4956,-3.5563,-3.5565,-3.5801,-3.5992,-3.6001,-3.6453,-3.6902,-3.7196,-3.7706,-3.8156,-3.8396,-3.8144,0.0,0.0,0.0,0.0,-3.5793,-3.5801,-3.5799,-3.5803,-3.5818,-3.5846,-3.5891,-3.5908,-3.5904,-3.5927,-3.5985,-3.5996,-3.6005,-3.5702,-3.5563,-3.5522,-3.4661,-3.4261,-3.4226,-3.3637,-3.3204,-3.2872,-3.2303,-3.1913,-3.1605,-3.1032,-3.0804,-3.081,-3.0852,-3.0839,-3.08,0.0,0.0,0.0,0.0,0.0,0.0,0.0,0.0,0.0,0.0,0.0,0.0,0.0,0.0,0.0,0.0,0.0,0.0,0.0,0.0,-2.2202,-2.3315,-2.4265,-2.5327,-2.6515,-2.7075,-2.7944,-2.914,-2.9707,-3.0233,-3.0774,-3.1924,-3.2469,-3.2508,-3.3112,-3.3402,-3.3402,-3.3402,-3.3402,-3.3402,-3.3402,-3.3398,-3.3367,-3.3054,-3.2589,0.0,0.0,0.0,0.0,0.0,0.0,0.0,-3.0838,-3.0838,-3.0897,-3.1235,-3.1335,-3.1511,-3.2331,-3.2567,-3.278,-3.3651,-3.3863,-3.3944,-3.4267,-3.4757,-3.5151,-3.5156,-3.5603,-3.601,-3.5991,-3.6003,-3.5988,-3.597,-3.6402,-3.6932,-3.7539,-3.8111,-3.8668,-3.9224,-3.9023,-3.8801,0.0,0.0,0.0,-3.6251,-3.595,-3.5793,-3.5799,-3.5795,-3.5818,-3.5866,-3.5891,-3.5908,-3.5904,-3.5947,-3.5985,-3.5994,-3.5994,-3.5995,-3.5986,-3.5411,-3.5168,-3.5139,-3.4573,-3.4144,-3.3812,-3.3255,-3.267,-3.2049,-3.1474,-3.1092,-3.0849,-3.0859,-3.0837,-3.081,0.0,0.0,0.0,0.0,0.0,0.0,0.0,0.0,0.0,0.0,0.0,0.0,0.0,0.0,0.0,0.0,0.0,0.0,0.0,0.0,0.0,-2.1701,-2.2557,-2.3813,-2.552,-2.5564,-2.642,-2.8168,-2.8175,-2.8219,-2.8339,-2.9922,-3.0664,-3.0742,-3.2401,-3.3142,-3.3141,-3.3199,-3.3218,-3.3218,-3.3257,-3.3272,-3.3183,-3.2343,0.0,0.0,0.0,0.0,0.0,0.0,0.0,0.0,0.0,-3.0934,-3.1129,-3.1871,-3.2125,-3.2359,-3.3238,-3.3474,-3.3688,-3.4549,-3.4763,-3.4978,-3.5801,-3.5996,-3.5996,-3.5996,-3.6001,-3.6005,0.0,0.0,-3.5973,-3.5909,-3.5933,-3.6546,-3.8163,-3.8439,-3.9069,0.0,0.0,0.0,0.0,0.0,0.0,-3.7191,-3.6387,-3.592,-3.5862,-3.5857,-3.5842,-3.5803,-3.5866,-3.5891,-3.5908,-3.5904,-3.5927,-3.5994,-3.5993,-3.5996,-3.5996,-3.6005,-3.5994,-3.5994,-3.5994,-3.5525,-3.4761,-3.4726,-3.3727,-3.2212,-3.2126,-3.1634,-3.0957,-3.0837,-3.0806,-3.0801,0.0,0.0,0.0,0.0,0.0,0.0,0.0,0.0,0.0,0.0,0.0,0.0,0.0,0.0,0.0,0.0,0.0,0.0,0.0,0.0,0.0,0.0,0.0,0.0,0.0,0.0,0.0,0.0,0.0,-2.7034,-2.8311,-2.8742,-2.8937,-2.8956,-2.9407,-2.9608,-2.9648,-3.0293,-3.0566,-3.0625,0.0,-3.1542,-3.1502,0.0,0.0,0.0,0.0,0.0,0.0,0.0,0.0,0.0,0.0,-3.1347,-3.1914,-3.2109,-3.2597,-3.3261,-3.4121,-3.4373,-3.458,-3.5458,-3.5679,-3.5721,-3.5955,-3.6009,-3.6001,-3.5994,-3.6004,-3.599,0.0,0.0,0.0,-3.5894,-3.6436,0.0,-3.8257,-3.8968,0.0,-4.0771,0.0,-4.0488,-4.0466,-3.9677,0.0,0.0,-3.8111,-3.7376,-3.6726,-3.6742,-3.6476,-3.5823,-3.5818,-3.584,-3.5891,-3.5899,-3.5927,-3.5991,-3.5999,-3.5991,-3.5996,-3.5995,-3.5993,-3.6007,-3.6007,-3.587,-3.5616,-3.4968,-3.4445,-3.3904,-3.2616,-3.1972,-3.1719,-3.1042,-3.0801,-3.0793,0.0,0.0,0.0,0.0,0.0,0.0,0.0,0.0,0.0,0.0,0.0,0.0,0.0,0.0,0.0,0.0,0.0,0.0,0.0,0.0,0.0,0.0,0.0,0.0,0.0,0.0,0.0,0.0,0.0,0.0,0.0,-2.6798,-2.7151,-2.719,-2.7952,-2.8309,-2.8336,0.0,0.0,0.0,0.0,0.0,0.0,0.0,0.0,0.0,0.0,0.0,0.0,0.0,0.0,-3.0895,-3.0897,-3.148,-3.2222,-3.2615,0.0,-3.4159,-3.5038,-3.5268,-3.5396,-3.5876,-3.5999,-3.6003,-3.6001,-3.5994,-3.6001,-3.5994,-3.5981,0.0,-3.5953,0.0,0.0,0.0,0.0,0.0,-3.7708,-3.8574,-3.9429,0.0,-4.0635,0.0,-4.0807,-4.0358,-4.0064,0.0,-3.8963,-3.8103,-3.7609,-3.7277,-3.6876,-3.6398,-3.5998,-3.5826,-3.5905,-3.5889,-3.5938,-3.6001,-3.6007,-3.6001,-3.5992,-3.5994,-3.5996,-3.5996,-3.5996,-3.5996,-3.5957,-3.5469,-3.5058,-3.4608,-3.3629,-3.3001,-3.2569,-3.1682,-3.1367,-3.1305,0.0,0.0,0.0,0.0,0.0,0.0,0.0,0.0,0.0,0.0,0.0,0.0,0.0,0.0,0.0,0.0,0.0,0.0,0.0,0.0,0.0,0.0,0.0,0.0,0.0,0.0,0.0,0.0,0.0,0.0,0.0,0.0,0.0,0.0,0.0,0.0,0.0,0.0,0.0,0.0,0.0,0.0,0.0,0.0,0.0,0.0,0.0,0.0,0.0,0.0,-3.0188,-3.0898,-3.0907,-3.1521,-3.2419,-3.3174,-3.4095,-3.5032,-3.5794,-3.6009,-3.6007,-3.5996,-3.5991,-3.6007,-3.5997,-3.5916,-3.5838,-3.583,0.0,-3.5577,-3.5558,-3.5548,-3.558,-3.5636,0.0,-3.597,-3.6964,-3.7741,-3.8568,-3.95,-4.0267,-4.0761,-4.0818,-4.0807,-4.0807,-4.0807,-3.945,-3.8588,-3.8491,-3.7812,-3.7333,-3.712,-3.6242,-3.5826,-3.5898,-3.5897,-3.5938,-3.5981,-3.6001,-3.5991,-3.5994,-3.6005,-3.6009,-3.6009,-3.6009,-3.6009,-3.6009,-3.6009,-3.5559,-3.4855,-3.4747,-3.4248,-3.3477,-3.2571,-3.2265,-3.2124,0.0,0.0,0.0,0.0,0.0,0.0,0.0,0.0,0.0,0.0,-1.499,-1.4987,0.0,0.0,0.0,0.0,0.0,0.0,0.0,0.0,0.0,0.0,0.0,0.0,0.0,0.0,0.0,0.0,0.0,0.0,0.0,0.0,0.0,0.0,0.0,0.0,0.0,0.0,0.0,0.0,0.0,0.0,0.0,0.0,0.0,0.0,0.0,0.0,0.0,0.0,-3.0185,-3.0896,-3.0894,-3.194,-3.32,-3.3358,-3.453,-3.5801,-3.5957,-3.5996,-3.5996,-3.5994,-3.6007,-3.6001,-3.6001,-3.5447,0.0,0.0,-3.4345,-3.3824,-3.3749,-3.3745,-3.399,-3.4683,0.0,0.0,0.0,0.0,-3.7916,0.0,0.0,0.0,0.0,-4.0837,0.0,0.0,-4.0576,-4.0121,-3.9403,-3.9296,-3.8596,-3.7159,-3.6242,-3.5811,-3.5818,-3.5872,-3.5922,-3.5919,-3.5962,-3.5997,-3.5991,-3.5996,-3.5996,-3.5996,-3.5996,-3.5996,-3.5996,-3.5996,-3.5918,-3.5703,-3.4989,-3.4615,-3.4358,-3.3424,-3.3092,-3.2964,0.0,0.0,0.0,0.0,0.0,0.0,0.0,-1.4655,-1.4963,-1.5006,-1.503,-1.5053,-1.5049,-1.5083,-1.5097,0.0,0.0,0.0,0.0,0.0,0.0,0.0,0.0,0.0,0.0,0.0,0.0,0.0,0.0,0.0,0.0,0.0,0.0,0.0,0.0,0.0,0.0,0.0,0.0,0.0,0.0,0.0,0.0,0.0,0.0,0.0,0.0,0.0,0.0,0.0,-2.9127,-3.0302,-3.0751,-3.1743,-3.2812,-3.3278,-3.4312,-3.5428,-3.5876,-3.5991,-3.5991,-3.6007,-3.5653,-3.5314,-3.5326,0.0,0.0,0.0,-3.3638,-3.3329,-3.3316,0.0,0.0,0.0,0.0,0.0,0.0,0.0,0.0,0.0,0.0,0.0,0.0,-4.0626,-4.0849,-4.0849,-4.0878,-4.0723,-4.0306,-3.9471,-3.8421,-3.7139,-3.6254,-3.5795,-3.5803,-3.5878,-3.5905,-3.5908,-3.5929,-3.5966,-3.6001,-3.6004,-3.6004,-3.6007,-3.5991,-3.5991,-3.5991,-3.5991,-3.5991,-3.5952,-3.5532,-3.5373,-3.5268,-3.4316,-3.3977,-3.3842,0.0,0.0,0.0,0.0,0.0,0.0,0.0,-1.4433,-1.4987,-1.5003,-1.5068,-1.5097,-1.5097,-1.5097,-1.5105,0.0,0.0,0.0,0.0,0.0,0.0,0.0,0.0,0.0,0.0,0.0,0.0,0.0,0.0,0.0,0.0,0.0,0.0,0.0,0.0,0.0,0.0,0.0,0.0,0.0,0.0,0.0,0.0,0.0,0.0,0.0,0.0,0.0,0.0,0.0,-2.7913,-2.9201,-3.0077,-3.1153,-3.2226,-3.2929,-3.3749,-3.4566,-3.5269,-3.5444,-3.5441,-3.5435,-3.4924,-3.4413,-3.4413,-3.3745,0.0,0.0,-3.2875,-3.274,-3.2746,0.0,0.0,0.0,0.0,0.0,0.0,0.0,0.0,0.0,0.0,0.0,0.0,-4.0159,0.0,-4.0635,-4.0791,-4.0898,-4.0898,-3.9305,-3.8091,-3.7392,-3.6343,-3.5799,-3.5795,-3.5845,-3.5892,-3.5903,-3.5899,-3.5929,-3.5981,-3.5994,-3.5997,-3.5997,-3.6007,-3.601,-3.601,-3.5991,-3.5991,-3.5991,-3.6001,-3.5994,-3.5903,-3.5162,-3.4886,-3.4743,0.0,0.0,0.0,0.0,0.0,0.0,0.0,-1.4437,-1.5003,-1.5,-1.5057,-1.5097,-1.5092,-1.5092,-1.5092,0.0,0.0,0.0,0.0,0.0,0.0,0.0,0.0,0.0,0.0,0.0,0.0,-1.6712,-1.7592,0.0,0.0,0.0,0.0,0.0,0.0,-2.1261,0.0,0.0,0.0,0.0,0.0,0.0,0.0,0.0,0.0,0.0,0.0,0.0,0.0,0.0,0.0,-2.7386,-2.8259,-3.0174,-3.2129,-3.2207,0.0,0.0,-3.3623,-3.3636,-3.3629,-3.3649,-3.3583,-3.3516,-3.3516,0.0,0.0,-3.2206,-3.1524,-3.0936,-3.093,-3.0951,-3.1195,0.0,0.0,-3.2776,0.0,0.0,0.0,0.0,0.0,0.0,0.0,-3.9302,-3.9818,-3.982,-4.0499,-4.0907,-4.0907,-3.9315,-3.8363,-3.8285,-3.6673,-3.5799,-3.5799,-3.5815,-3.5845,-3.5905,-3.5897,-3.5899,-3.5909,-3.5962,-3.6005,-3.6005,-3.5997,-3.6001,-3.6001,-3.601,-3.5991,-3.5991,-3.5994,-3.6005,-3.5981,-3.5825,-3.5781,-3.5638,0.0,0.0,0.0,0.0,0.0,0.0,-1.2925,-1.413,-1.5,-1.5008,-1.5064,-1.5105,-1.5092,-1.5092,-1.5092,-1.5092,0.0,0.0,0.0,0.0,0.0,0.0,0.0,0.0,0.0,0.0,0.0,-1.588,-1.6756,0.0,0.0,0.0,0.0,0.0,0.0,-2.0302,-2.1126,0.0,0.0,0.0,0.0,0.0,0.0,0.0,0.0,0.0,0.0,0.0,0.0,0.0,0.0,0.0,-2.7418,-2.8569,0.0,0.0,-3.1939,-3.2736,-3.3262,-3.3399,-3.3392,-3.3407,-3.3013,-3.2615,-3.263,0.0,-3.055,-3.0541,-2.981,-2.9352,-2.9886,-2.9971,-3.0257,0.0,0.0,0.0,0.0,0.0,0.0,0.0,0.0,0.0,0.0,0.0,-3.8913,-3.8926,-3.9217,-3.9392,-3.9392,-3.8751,-3.8402,-3.8402,-3.6712,-3.5799,-3.5799,-3.5795,-3.5811,-3.5838,-3.5879,-3.5897,-3.5903,-3.5929,-3.5934,-3.5938,-3.5986,-3.5994,-3.6001,-3.6004,-3.6007,-3.5991,-3.6001,-3.599,-3.5981,-3.5914,-3.5905,-3.584,0.0,0.0,0.0,0.0,0.0,-1.2496,-1.2496,-1.3921,-1.5008,-1.5008,-1.5064,-1.5092,-1.5092,-1.5092,-1.5099,-1.5099,-1.5099,0.0,0.0,0.0,0.0,0.0,0.0,0.0,0.0,0.0,0.0,-1.5394,-1.6002,-1.6313,0.0,0.0,-1.807,-1.8934,0.0,0.0,0.0,0.0,0.0,0.0,0.0,0.0,0.0,0.0,0.0,0.0,0.0,0.0,0.0,0.0,0.0,0.0,0.0,0.0,0.0,0.0,-3.0485,-3.1145,-3.2003,-3.2257,-3.2253,-3.2244,-3.1792,-3.1265,0.0,0.0,-2.9124,-2.9119,-2.8627,-2.8389,-2.8996,-2.9322,-2.9691,0.0,0.0,-3.1929,0.0,0.0,0.0,0.0,0.0,-3.6748,0.0,-3.7518,-3.8116,-3.838,-3.841,-3.8402,-3.8402,-3.8149,-3.8013,-3.8013,-3.6576,-3.5799,-3.5799,-3.5807,-3.5803,-3.5803,-3.5859,-3.5872,-3.5898,-3.5908,-3.5899,-3.5899,-3.5953,-3.5966,-3.597,-3.5997,-3.6004,-3.6007,-3.6001,-3.5994,-3.5981,-3.5924,-3.5897,-3.5885,0.0,0.0,0.0,0.0,0.0,0.0,-1.2496,-1.3921,-1.5008,-1.5008,-1.5064,-1.5092,-1.5092,-1.5092,-1.5099,-1.5094,-1.5094,0.0,0.0,0.0,0.0,0.0,0.0,0.0,0.0,0.0,0.0,-1.5394,-1.5409,-1.5403,-1.5422,-1.6313,-1.7178,-1.8059,0.0,0.0,0.0,0.0,0.0,0.0,0.0,0.0,0.0,0.0,0.0,0.0,0.0,0.0,0.0,0.0,0.0,0.0,0.0,0.0,0.0,0.0,-2.8298,-2.8423,-2.9301,-2.9546,-2.9537,-2.9537,-2.9533,-2.9299,0.0,0.0,-2.8212,-2.8212,-2.8203,-2.8194,-2.8213,-2.8924,-2.9497,-2.9516,-3.0197,0.0,0.0,0.0,0.0,0.0,0.0,-3.5903,-3.5911,-3.665,-3.7463,-3.8338,-3.8399,-3.8402,-3.8402,-3.7586,-3.712,-3.712,-3.6265,-3.5799,-3.5799,-3.5799,-3.5807,-3.5803,-3.5803,-3.5838,-3.5905,-3.5898,-3.5905,-3.5911,-3.5899,-3.5909,-3.5909,-3.5974,-3.6001,-3.6001,-3.6001,-3.5994,-3.5986,-3.5914,-3.5894,-3.5885,0.0,0.0,0.0,0.0,0.0,0.0,0.0,-1.3956,-1.5076,-1.5076,-1.5097,-1.5092,-1.5092,-1.5092,-1.5099,-1.5094,-1.5094,0.0,0.0,0.0,0.0,0.0,0.0,0.0,0.0,0.0,-1.5329,-1.5396,-1.5394,-1.5407,-1.541,-1.5675,-1.6286,-1.7148,-1.8027,0.0,0.0,0.0,0.0,0.0,0.0,0.0,0.0,0.0,0.0,0.0,0.0,0.0,0.0,0.0,0.0,0.0,0.0,0.0,0.0,0.0,0.0,0.0,-2.854,-2.8618,-2.8614,-2.8603,-2.8603,-2.8544,-2.8252,0.0,-2.7374,-2.7374,-2.6906,-2.6672,-2.7273,-2.8088,-2.8864,-2.9409,-3.0213,0.0,0.0,0.0,0.0,0.0,0.0,-3.5903,0.0,0.0,-3.639,-3.6608,-3.6623,-3.6615,-3.6615,-3.6362,-3.6479,-3.7081,-3.6246,-3.5799,-3.5799,-3.5799,-3.5799,-3.5807,-3.5795,-3.5811,-3.5838,-3.5878,-3.5911,-3.5892,-3.5891,-3.5908,-3.5899,-3.5914,-3.5966,-3.6001,-3.6001,-3.5997,-3.5994,-3.5986,-3.5943,-3.5897,0.0,0.0,0.0,0.0,0.0,0.0,0.0,-1.3697,-1.4728,-1.5052,-1.5105,-1.5092,-1.5092,-1.5099,-1.5106,-1.5107,-1.5114,0.0,0.0,0.0,0.0,0.0,0.0,0.0,0.0,-1.5311,-1.5359,-1.5402,-1.5399,-1.5409,-1.5392,-1.5404,-1.5878,-1.6737,-1.7609,0.0,0.0,0.0,0.0,0.0,0.0,0.0,-2.0605,0.0,0.0,0.0,0.0,0.0,0.0,0.0,0.0,0.0,0.0,0.0,0.0,0.0,-2.5467,0.0,0.0,-2.7748,-2.7748,-2.7755,-2.7755,0.0,0.0,0.0,-2.6507,-2.6507,-2.608,-2.5866,-2.6412,-2.7228,-2.8086,-2.8902,-2.9764,0.0,0.0,0.0,0.0,0.0,0.0,0.0,0.0,-3.5892,-3.5872,-3.5811,-3.5807,-3.5799,-3.5799,-3.5799,-3.6051,-3.6595,-3.609,-3.5799,-3.5799,-3.5799,-3.5799,-3.5799,-3.5807,-3.5795,-3.5795,-3.5838,-3.5872,-3.5872,-3.5892,-3.5905,0.0,-3.5894,-3.5914,-3.597,-3.5994,-3.5974,-3.597,-3.5962,-3.5948,-3.5908,0.0,0.0,0.0,0.0,0.0,0.0,0.0,-1.3144,-1.4015,-1.4823,-1.4971,-1.5004,-1.5004,-1.5075,-1.5107,-1.5114,0.0,0.0,0.0,0.0,0.0,0.0,0.0,0.0,0.0,-1.5361,-1.5404,-1.5404,-1.5401,-1.5409,-1.5391,-1.5404,-1.5879,-1.673,-1.7605,0.0,0.0,0.0,0.0,0.0,0.0,0.0,0.0,0.0,0.0,0.0,0.0,0.0,0.0,0.0,0.0,0.0,0.0,0.0,0.0,0.0,0.0,0.0,0.0,0.0,0.0,0.0,0.0,0.0,0.0,0.0,0.0,0.0,0.0,0.0,-2.569,-2.6451,-2.7368,-2.8164,-2.9023,0.0,0.0,0.0,0.0,0.0,-3.5899,0.0,-3.5911,-3.5892,-3.5872,-3.5811,-3.5807,-3.5791,-3.5791,-3.5791,-3.5791,-3.5791,-3.5791,-3.5791,-3.5799,-3.5799,-3.5791,-3.5791,-3.5791,-3.5791,-3.5791,-3.5788,-3.5803,-3.5803,-3.5864,-3.5885,-3.5885,-3.5903,-3.5894,-3.5909,-3.5977,-3.5958,-3.5909,-3.5909,-3.5899,-3.5908,0.0,0.0,0.0,0.0,0.0,0.0,0.0,0.0,0.0,0.0,-1.3774,-1.4182,-1.4175,-1.4737,-1.5114,0.0,0.0,0.0,0.0,0.0,0.0,0.0,0.0,0.0,0.0,-1.5361,-1.5407,-1.5409,-1.5403,-1.5394,-1.54,-1.5406,-1.5879,-1.6748,-1.7606,0.0,0.0,0.0,0.0,0.0,0.0,0.0,0.0,0.0,0.0,0.0,-2.0605,-2.0602,0.0,0.0,0.0,0.0,0.0,0.0,0.0,0.0,-2.3109,-2.3224,-2.3849,0.0,-2.5169,-2.5839,-2.6015,0.0,0.0,0.0,0.0,0.0,0.0,0.0,0.0,0.0,0.0,-2.8279,0.0,-3.0562,0.0,0.0,0.0,0.0,-3.5924,-3.5903,-3.5911,-3.5892,-3.5872,-3.5811,-3.5807,-3.581,-3.5793,-3.5812,-3.5784,-3.5727,-3.5727,-3.5745,-3.5791,-3.5799,-3.581,-3.5812,-3.5812,-3.5765,-3.5727,-3.5727,-3.5745,-3.5801,-3.5818,-3.5823,-3.5826,-3.5885,-3.5891,-3.5894,-3.5919,-3.5948,-3.5962,-3.5914,-3.5909,-3.5904,0.0,0.0,0.0,0.0,0.0,0.0,0.0,0.0,0.0,0.0,0.0,-1.3467,-1.3862,-1.4289,0.0,0.0,0.0,0.0,0.0,0.0,0.0,0.0,0.0,0.0,-1.5291,-1.5368,-1.5393,-1.539,-1.5403,-1.5394,-1.5402,-1.5816,-1.625,-1.6755,-1.804,0.0,0.0,0.0,0.0,0.0,-2.0601,0.0,0.0,0.0,0.0,0.0,-2.0605,-2.0605,0.0,-2.0598,-2.0596,-2.0671,0.0,0.0,0.0,0.0,-2.1959,-2.2037,-2.2449,-2.3168,-2.3927,-2.4397,-2.4807,-2.5102,0.0,0.0,0.0,0.0,0.0,0.0,0.0,0.0,0.0,0.0,-2.9396,0.0,0.0,0.0,0.0,0.0,-3.5919,-3.5891,0.0,-3.5878,-3.583,-3.5799,-3.581,-3.5793,-3.5766,-3.5747,-3.5737,-3.5708,-3.5708,-3.5718,-3.5745,-3.5745,-3.5756,-3.5747,-3.5747,-3.5737,-3.5708,-3.5708,-3.5718,-3.5747,-3.5756,-3.5773,-3.5799,-3.5842,-3.5852,-3.5859,-3.5885,-3.5922,-3.5938,-3.5914,-3.5894,-3.5899,0.0,0.0,0.0,0.0,0.0,0.0,0.0,0.0,0.0,0.0,0.0,0.0,0.0,0.0,0.0,0.0,0.0,0.0,0.0,0.0,0.0,0.0,0.0,-1.5291,-1.5291,-1.5375,-1.5399,-1.5409,-1.5539,-1.5609,-1.5617,-1.648,-1.6972,-1.7168,-1.8785,-1.9914,0.0,0.0,-2.0593,-2.0594,-2.0596,0.0,0.0,0.0,0.0,0.0,0.0,0.0,0.0,-2.0604,-2.0601,-2.0597,-2.0596,0.0,0.0,0.0,0.0,0.0,-2.1492,-2.2197,-2.2802,-2.3208,-2.3851,-2.444,0.0,0.0,0.0,0.0,0.0,0.0,0.0,0.0,0.0,0.0,0.0,0.0,0.0,0.0,0.0,-3.5714,-3.5903,0.0,-3.5898,-3.5838,-3.5807,-3.5803,-3.5794,-3.5766,-3.5699,-3.5699,-3.5699,-3.5699,-3.5699,-3.5699,-3.5699,-3.5699,-3.5708,-3.5699,-3.5699,-3.5699,-3.5699,-3.5689,-3.5689,-3.5699,-3.5699,-3.5708,-3.5775,-3.5773,-3.5779,-3.5811,-3.5864,-3.5885,-3.5898,-3.5905,-3.5891,-3.5903,0.0,0.0,0.0,0.0,0.0,0.0,0.0,0.0,0.0,0.0,0.0,0.0,0.0,0.0,0.0,0.0,0.0,0.0,0.0,0.0,0.0,0.0,-1.5302,-1.5291,-1.5291,-1.5375,-1.5399,-1.5404,-1.6142,-1.6504,-1.6513,-1.7398,-1.8182,-1.8945,-1.9941,-2.0467,-2.0601,-2.0596,-2.0593,-2.0594,-2.0604,0.0,0.0,0.0,0.0,0.0,0.0,0.0,0.0,-2.0605,-2.0605,-2.0605,-2.0602,0.0,0.0,0.0,0.0,0.0,-2.0752,-2.0894,-2.1503,-2.3668,-2.4307,-2.4592,0.0,0.0,0.0,0.0,0.0,0.0,0.0,0.0,0.0,0.0,0.0,0.0,0.0,0.0,-3.4846,-3.5797,0.0,-3.5872,-3.5818,-3.5815,-3.581,-3.5803,-3.5747,-3.5699,-3.5698,-3.5698,-3.5707,-3.5695,-3.5695,-3.5695,-3.5695,-3.5708,-3.5699,-3.5698,-3.5698,-3.5697,-3.5695,-3.5635,-3.5646,-3.5688,-3.5629,-3.5649,-3.5708,-3.5718,-3.5756,-3.5793,-3.5818,-3.5823,-3.5826,-3.5878,-3.5905,-3.5885,0.0,0.0,0.0,0.0,0.0,0.0,0.0,0.0,0.0,0.0,0.0,0.0,0.0,0.0,0.0,0.0,0.0,0.0,0.0,0.0,0.0,-1.5309,-1.5293,-1.5306,-1.5291,-1.5375,-1.563,-1.6103,-1.651,-1.6932,-1.7429,-1.8298,-1.9179,-2.0,-1.9922,-1.9902,-1.9862,-1.9392,-1.947,-1.99,0.0,0.0,0.0,0.0,0.0,0.0,0.0,0.0,0.0,0.0,-2.0605,-2.0605,-2.0605,0.0,0.0,0.0,0.0,0.0,-2.0605,-2.0937,-2.1695,-2.3299,-2.3691,0.0,0.0,0.0,0.0,0.0,0.0,0.0,0.0,0.0,0.0,0.0,0.0,-3.257,-3.3906,-3.4417,-3.4964,0.0,0.0,-3.5826,-3.5795,-3.5791,-3.5784,-3.5747,-3.5679,-3.5658,-3.5646,-3.5654,-3.5651,-3.5639,-3.5659,-3.5659,-3.5659,-3.5643,-3.5646,-3.5646,-3.5646,-3.5643,-3.5639,-3.5608,-3.562,-3.5643,-3.5601,-3.5612,-3.5646,-3.5657,-3.5658,-3.5708,-3.5728,-3.5765,-3.5799,-3.5838,-3.5845,-3.5838,0.0,0.0,0.0,0.0,0.0,0.0,0.0,0.0,0.0,0.0,0.0,0.0,0.0,0.0,0.0,0.0,0.0,0.0,0.0,0.0,-1.5226,-1.5299,-1.5303,-1.5302,-1.5291,-1.5546,-1.6016,-1.6706,-1.709,-1.7749,-1.862,-1.9294,-1.9844,-2.0273,-1.9609,-1.9199,-1.8945,-1.8281,-1.8398,-1.9004,0.0,0.0,0.0,0.0,0.0,0.0,0.0,0.0,0.0,0.0,0.0,0.0,0.0,0.0,0.0,-2.0599,-2.0601,-2.0601,-2.0601,-2.124,-2.2094,-2.2896,0.0,0.0,0.0,0.0,0.0,0.0,0.0,0.0,0.0,0.0,0.0,0.0,-3.257,-3.3188,-3.4507,-3.4813,-3.5157,-3.5827,-3.5845,-3.5788,-3.581,-3.5784,-3.5747,-3.5678,-3.5637,-3.5604,-3.5601,-3.5596,-3.5591,-3.5591,-3.5591,-3.5591,-3.5591,-3.5591,-3.5604,-3.5589,-3.5589,-3.5596,-3.5591,-3.5591,-3.5591,-3.5591,-3.5591,-3.5591,-3.5604,-3.5608,-3.5612,-3.5615,-3.5657,-3.5718,-3.5775,-3.5779,-3.5788,-3.5779,0.0,0.0,0.0,0.0,0.0,0.0,0.0,0.0,0.0,0.0,0.0,0.0,0.0,0.0,0.0,0.0,0.0,0.0,0.0,0.0,-1.5226,-1.5299,-1.5303,-1.5302,-1.5291,-1.6095,-1.6564,-1.67,-1.8253,-1.9502,-2.0417,-2.0477,-2.0112,-1.9394,-1.9336,-1.8848,-1.8086,-1.8027,-1.8047,-1.8164,-1.8965,0.0,0.0,0.0,0.0,0.0,0.0,0.0,0.0,0.0,0.0,0.0,0.0,0.0,-2.0593,-2.0594,-2.0594,-2.0594,-2.0594,-2.1237,-2.2094,-2.2896,0.0,0.0,0.0,0.0,0.0,0.0,0.0,0.0,0.0,0.0,0.0,0.0,-3.3997,-3.4553,-3.4683,0.0,-3.5819,-3.5885,-3.5842,-3.581,-3.5803,-3.5737,-3.5678,-3.5618,-3.5604,-3.5589,-3.5604,-3.5604,-3.5591,-3.5591,-3.5591,-3.5591,-3.5591,-3.5591,-3.5604,-3.5604,-3.5604,-3.5604,-3.5591,-3.5547,-3.5547,-3.5591,-3.5528,-3.5528,-3.5591,-3.5604,-3.5604,-3.5604,-3.562,-3.5646,-3.5718,-3.5708,-3.5718,-3.5718,0.0,0.0,0.0,0.0,0.0,0.0,0.0,0.0,0.0,0.0,0.0,0.0,0.0,0.0,0.0,0.0,0.0,0.0,0.0,0.0,-1.5215,-1.5245,-1.5284,-1.5303,-1.5302,-1.6149,-1.6871,-1.7446,-1.9166,-1.9924,-1.9786,-1.9789,-1.9327,-1.8472,-1.7929,-1.75,-1.7168,-1.6602,-1.6699,-1.7227,-1.7557,-1.8336,0.0,0.0,0.0,0.0,0.0,0.0,0.0,0.0,-2.0597,-2.0596,-2.0593,-2.0609,-2.0586,-2.0545,-2.0545,-2.0662,-2.1206,-2.1989,-2.2847,-2.3706,0.0,0.0,0.0,0.0,0.0,0.0,0.0,0.0,0.0,0.0,0.0,-3.4061,-3.4479,-3.4897,-3.542,-3.5738,-3.5872,-3.5845,-3.5826,-3.5784,-3.5737,-3.5688,-3.5626,-3.5604,-3.5558,-3.554,-3.5547,-3.5541,-3.5547,-3.5547,-3.5547,-3.5547,-3.5547,-3.5547,-3.5547,-3.5547,-3.5534,-3.5534,-3.5547,-3.5515,-3.5515,-3.5528,-3.5468,-3.5435,-3.5468,-3.5468,-3.5501,-3.5528,-3.5572,-3.562,-3.5635,-3.5646,-3.5648,-3.5639,0.0,0.0,0.0,0.0,0.0,0.0,0.0,0.0,0.0,0.0,0.0,0.0,0.0,0.0,0.0,0.0,0.0,0.0,0.0,-1.5193,-1.521,-1.5196,-1.525,-1.5309,-1.5293,-1.6141,-1.7035,-1.7905,-1.9377,-1.9687,-1.8882,-1.8888,-1.8423,-1.7566,-1.697,-1.6543,-1.625,-1.5644,-1.5741,-1.6308,-1.6598,-1.7414,0.0,0.0,0.0,0.0,0.0,0.0,0.0,0.0,-2.057,-2.0568,0.0,-2.0579,-2.056,-2.0519,-2.0497,-2.0692,-2.1569,-2.245,-2.3308,0.0,0.0,0.0,0.0,0.0,0.0,0.0,0.0,0.0,0.0,0.0,0.0,0.0,-3.5314,-3.5693,-3.6294,-3.6559,-3.6669,-3.662,-3.6597,-3.6445,-3.6104,-3.6033,-3.5883,-3.5596,-3.5528,-3.5489,-3.5476,-3.5455,-3.5446,-3.5446,-3.546,-3.546,-3.546,-3.5493,-3.5493,-3.5507,-3.5495,-3.5495,-3.5493,-3.5493,-3.546,-3.546,-3.5398,-3.5364,-3.5364,-3.5364,-3.5398,-3.5427,-3.5495,-3.5534,-3.554,-3.5534,-3.5538,-3.555,0.0,0.0,0.0,0.0,0.0,0.0,0.0,0.0,0.0,0.0,0.0,0.0,0.0,0.0,0.0,0.0,0.0,0.0,0.0,-1.5193,-1.5204,-1.5204,-1.5264,-1.5304,-1.5303,-1.6144,-1.7038,-1.7898,-1.8751,-1.8773,-1.7985,-1.7989,-1.7524,-1.6689,-1.6692,-1.6209,-1.5391,-1.5406,-1.5402,-1.5481,-1.6344,-1.6694,-1.6887,0.0,0.0,0.0,0.0,0.0,0.0,0.0,-2.0497,-2.0497,-2.0497,0.0,-2.0497,-2.0497,-2.0497,-2.0692,-2.1569,-2.2447,0.0,0.0,0.0,0.0,0.0,0.0,0.0,0.0,0.0,0.0,0.0,0.0,0.0,-3.5876,-3.67,-3.721,-3.7216,-3.7897,-3.8405,-3.8402,-3.8336,-3.7936,-3.698,-3.6899,-3.6504,-3.5573,-3.5501,-3.546,-3.5412,-3.535,-3.5315,-3.5315,-3.5364,-3.5398,-3.5398,-3.546,-3.5493,-3.5474,-3.5474,-3.5474,-3.5493,-3.5427,-3.5412,-3.5398,-3.533,-3.53,-3.53,-3.53,-3.53,-3.5315,-3.5364,-3.5398,-3.5393,-3.5397,-3.5391,-3.5391,0.0,0.0,0.0,0.0,0.0,0.0,0.0,0.0,0.0,0.0,0.0,0.0,0.0,0.0,0.0,0.0,0.0,0.0,0.0,-1.5195,-1.5207,-1.5204,-1.522,-1.5255,-1.5304,-1.6154,-1.7023,-1.7893,-1.8157,-1.7864,-1.7086,-1.7086,-1.6623,-1.5792,-1.5796,-1.5644,-1.5406,-1.5403,-1.5402,-1.5421,-1.5674,-1.6159,-1.682,0.0,0.0,0.0,0.0,0.0,0.0,0.0,0.0,0.0,-2.0492,0.0,-2.0503,-2.0497,-2.049,-2.0814,-2.2314,-2.2906,0.0,0.0,0.0,0.0,0.0,0.0,0.0,0.0,0.0,0.0,-3.4604,0.0,0.0,-3.6875,-3.7597,-3.8107,-3.8112,-3.8286,-3.8385,-3.8345,-3.8267,-3.7885,-3.6996,-3.6858,-3.6459,-3.5559,-3.546,-3.5412,-3.533,-3.5315,-3.5315,-3.5315,-3.5315,-3.533,-3.533,-3.5398,-3.5119,-3.4524,-3.4551,-3.4911,-3.5493,-3.5427,-3.5412,-3.5398,-3.5339,-3.5308,-3.5308,-3.5308,-3.5304,-3.5315,-3.5315,-3.533,-3.533,-3.5326,-3.5326,-3.5326,0.0,0.0,0.0,0.0,0.0,0.0,0.0,0.0,0.0,0.0,0.0,0.0,0.0,0.0,0.0,0.0,0.0,0.0,0.0,0.0,-1.5195,-1.5204,-1.5196,-1.5236,-1.5299,-1.5814,-1.6351,-1.6908,-1.7242,-1.7004,-1.6189,-1.6189,-1.5903,-1.5402,-1.5408,-1.539,-1.5402,-1.54,-1.54,-1.5398,-1.5394,-1.5919,-1.6795,0.0,0.0,0.0,0.0,0.0,0.0,0.0,0.0,0.0,0.0,0.0,0.0,-2.0499,-2.0745,-2.1325,-2.2726,0.0,0.0,0.0,0.0,0.0,0.0,0.0,0.0,0.0,0.0,-3.4906,-3.5619,-3.6582,0.0,-3.7753,-3.8495,-3.9004,-3.8984,-3.9234,-3.9388,-3.9306,-3.9254,-3.8733,-3.7501,-3.7307,-3.6771,-3.5556,-3.5398,-3.5335,-3.5304,-3.527,-3.5254,-3.5254,-3.5289,-3.5132,-3.4787,-3.4851,-3.4457,-3.3574,-3.3621,-3.3909,-3.4428,-3.4381,-3.4366,-3.4371,-3.4297,-3.4267,-3.4267,-3.4232,-3.4228,-3.4225,-3.4228,-3.4419,-3.469,-3.469,-3.492,-3.5226,0.0,0.0,0.0,0.0,0.0,0.0,0.0,0.0,0.0,0.0,0.0,0.0,0.0,0.0,0.0,0.0,0.0,0.0,0.0,0.0,-1.5189,-1.5204,-1.522,-1.5251,-1.5291,-1.5307,-1.5333,-1.5396,-1.62,-1.6171,-1.5409,-1.5392,-1.5398,-1.5404,0.0,-1.5409,-1.5401,-1.5397,-1.5394,-1.5413,-1.5487,-1.5992,-1.6809,-1.776,0.0,0.0,0.0,0.0,0.0,0.0,0.0,0.0,-2.0508,-2.0508,-2.0504,-2.0504,-2.1107,-2.1982,0.0,0.0,0.0,0.0,0.0,0.0,0.0,0.0,0.0,0.0,0.0,-3.5335,-3.6986,-3.7363,-3.7706,-3.857,-3.9392,-3.9897,-3.9825,-4.0493,-4.0943,-4.0818,-4.0792,-4.0087,-3.8286,-3.8031,-3.7267,-3.5513,-3.5339,-3.5312,-3.5277,-3.5226,-3.5209,-3.5209,-3.5184,-3.4814,-3.401,-3.3997,-3.3532,-3.2683,-3.2683,-3.2645,-3.2568,-3.2727,-3.2795,-3.2785,-3.2722,-3.2691,-3.2691,-3.2641,-3.2607,-3.2607,-3.2597,-3.3037,-3.3684,-3.3684,-3.4179,-3.4864,0.0,0.0,0.0,0.0,0.0,0.0,0.0,0.0,0.0,0.0,0.0,0.0,0.0,0.0,0.0,0.0,0.0,0.0,0.0,0.0,-1.5201,-1.5204,-1.526,-1.5289,-1.5291,-1.5295,-1.5339,-1.5402,-1.5582,-1.5589,0.0,0.0,0.0,-1.539,0.0,-1.5408,-1.5395,-1.5395,-1.5392,-1.5467,-1.6139,-1.6525,-1.6853,-1.8381,-1.9055,0.0,0.0,0.0,0.0,0.0,0.0,0.0,-2.0508,-2.05,-2.0491,-2.0491,-2.1089,-2.192,0.0,0.0,0.0,0.0,0.0,0.0,0.0,0.0,0.0,0.0,-3.5246,-3.6038,-3.7104,-3.7851,-3.8604,-3.949,-4.0309,-4.0794,-4.0721,-4.0882,-4.0943,-4.0818,-4.0742,-4.0024,-3.8267,-3.7998,-3.7198,-3.5465,-3.5324,-3.5277,-3.5226,-3.5209,-3.5209,-3.5209,-3.4614,-3.4194,-3.4002,-3.3379,-3.2642,-3.1785,-3.1845,-3.1468,-3.0808,-3.2168,-3.2766,-3.2707,-3.2657,-3.2622,-3.2622,-3.2613,-3.2597,-3.2597,-3.2616,-3.2714,-3.2847,-3.2811,-3.2909,-3.3044,0.0,0.0,0.0,0.0,0.0,0.0,0.0,0.0,0.0,0.0,0.0,0.0,0.0,0.0,0.0,0.0,0.0,0.0,0.0,0.0,0.0,-1.5255,-1.5279,-1.5306,-1.5307,-1.5326,-1.5365,-1.5407,-1.5394,0.0,0.0,0.0,0.0,-1.5391,0.0,-1.5403,-1.5433,-1.5859,-1.6029,-1.61,-1.6948,-1.7527,-1.7988,-1.887,-1.9465,-1.9873,-2.0336,0.0,0.0,0.0,0.0,0.0,0.0,0.0,-2.0497,-2.0497,-2.1371,-2.2416,0.0,0.0,0.0,0.0,0.0,0.0,0.0,0.0,0.0,0.0,-3.5676,-3.6387,-3.7689,-3.8281,-3.9014,-4.0271,-4.0836,-4.1086,-4.1013,-4.0972,-4.0915,-4.0798,-4.037,-3.9561,-3.8221,-3.7589,-3.6731,-3.54,-3.5261,-3.5231,-3.5196,-3.5179,-3.4988,-3.4585,-3.4165,-3.3589,-3.2802,-3.2393,-3.1738,-3.0882,-3.091,-3.068,-3.0232,-3.1145,-3.1518,-3.1455,-3.1405,-3.1405,-3.1394,-3.1381,-3.135,-3.135,-3.1317,-3.1547,-3.1889,-3.1838,-3.2067,-3.2389,0.0,0.0,0.0,0.0,0.0,0.0,0.0,0.0,0.0,0.0,0.0,0.0,0.0,0.0,0.0,0.0,0.0,0.0,0.0,0.0,0.0,0.0,-1.5302,-1.5303,-1.5306,-1.5514,-1.5627,-1.5626,0.0,0.0,0.0,0.0,0.0,-1.5624,0.0,-1.5841,-1.5898,-1.6612,-1.6917,-1.6984,-1.7796,-1.8565,-1.9216,-1.9359,-1.986,-2.0502,-2.0493,-2.0507,-2.0507,-2.0507,0.0,0.0,0.0,0.0,-2.0507,-2.0507,-2.1697,-2.2998,0.0,0.0,0.0,0.0,0.0,0.0,0.0,0.0,0.0,-3.5646,-3.6007,-3.6523,-3.8275,-3.8594,-3.9151,-4.0834,-4.1109,-4.1086,-4.1013,-4.0945,-4.082,-4.0604,-3.9874,-3.8994,-3.7963,-3.7098,-3.6239,-3.5353,-3.5231,-3.52,-3.5183,-3.4977,-3.4577,-3.3887,-3.3617,-3.2832,-3.1488,-3.135,-3.0911,-3.0204,-3.0204,-3.0204,-3.0204,-3.0185,-3.0157,-3.0109,-3.0094,-3.0098,-3.0087,-3.0007,-2.9991,-2.9975,-2.991,-3.0292,-3.0861,-3.0863,-3.1279,-3.1845,0.0,0.0,0.0,0.0,0.0,0.0,0.0,0.0,0.0,0.0,0.0,0.0,0.0,0.0,0.0,0.0,0.0,0.0,0.0,0.0,0.0,-1.5303,-1.5303,-1.5303,-1.5306,-1.6119,-1.6525,0.0,0.0,0.0,0.0,0.0,0.0,-1.6568,0.0,0.0,-1.7665,-1.7772,-1.7783,-1.7816,-1.8671,-1.9091,-1.9282,-2.0046,-2.0395,-2.0493,-2.0507,-2.0507,-2.0507,-2.0507,-2.0507,0.0,0.0,0.0,-2.0507,-2.0507,-2.1697,-2.2998,0.0,0.0,0.0,0.0,0.0,0.0,0.0,0.0,0.0,0.0,-3.6004,-3.6523,-3.8275,-3.8594,-3.9147,-4.0832,-4.1096,-4.1081,-4.102,-4.0937,-4.0586,-3.9769,-3.9514,-3.873,-3.7055,-3.6718,-3.6205,-3.5283,-3.5215,-3.5164,-3.5129,-3.4388,-3.3913,-3.3834,-3.2457,-3.163,-3.142,-3.0725,-3.0319,-3.0204,-3.0204,-3.0204,-3.0204,-3.0142,-3.0109,-3.0109,-3.0098,-3.0072,-3.0007,-2.9926,-2.9893,-2.9912,-2.9842,-2.9864,-2.9959,-2.9905,-2.9963,-3.0039,0.0,0.0,0.0,0.0,0.0,0.0,0.0,0.0,0.0,0.0,0.0,0.0,0.0,0.0,0.0,0.0,0.0,0.0,0.0,0.0,0.0,-1.5303,-1.5765,-1.6059,-1.6077,-1.6968,-1.7428,0.0,0.0,0.0,0.0,-1.812,-1.7896,0.0,0.0,0.0,0.0,0.0,-1.8653,-1.8702,-1.9581,-1.9938,-1.9968,-2.0352,-2.0507,-2.0507,-2.0507,-2.0507,-2.0507,-2.0507,-2.0507,-2.0507,-2.0507,0.0,0.0,0.0,-2.2076,0.0,0.0,0.0,0.0,0.0,0.0,0.0,0.0,0.0,-3.3754,-3.5009,-3.5652,-3.6384,-3.7635,-3.8261,-3.899,-4.0168,-4.0779,-4.0914,-4.0351,-4.0213,-3.9811,-3.8886,-3.8279,-3.7629,-3.6781,-3.6194,-3.5694,-3.5234,-3.4706,-3.4406,-3.4372,-3.3501,-3.2817,-3.2414,-3.1708,-3.1131,-3.0681,-3.0314,-3.0171,-3.0204,-3.0157,-3.0138,-3.0138,-3.0113,-3.0098,-3.0098,-3.0053,-3.0007,-2.9943,-2.9912,-2.9878,-2.9842,-2.9771,-2.9735,-2.9754,-2.97,-2.9683,-2.9626,0.0,0.0,0.0,0.0,0.0,0.0,0.0,0.0,0.0,0.0,0.0,0.0,0.0,0.0,0.0,0.0,0.0,0.0,0.0,0.0,0.0,-1.5624,-1.6276,-1.6759,-1.7017,-1.7877,0.0,0.0,0.0,0.0,-1.867,-1.9321,-1.9273,0.0,-1.8646,0.0,0.0,0.0,0.0,0.0,-2.0238,-2.0497,-2.0507,-2.0507,-2.0507,-2.0507,-2.0507,-2.0507,-2.0507,-2.0507,-2.0512,-2.0531,-2.0764,-2.0827,0.0,0.0,0.0,0.0,0.0,0.0,0.0,0.0,0.0,0.0,0.0,0.0,-3.3389,0.0,-3.5213,-3.5937,-3.6814,-3.7688,-3.8537,-3.9345,-4.0009,-4.0181,-3.9473,-3.9304,-3.8917,-3.7981,-3.7218,-3.667,-3.6373,-3.5687,-3.5149,-3.4859,-3.4215,-3.3707,-3.3464,-3.2594,-3.1836,-3.1282,-3.1089,-3.0684,-3.0079,-3.0079,-3.0128,-3.0157,-3.0128,-3.0094,-3.0094,-3.0083,-3.0072,-3.0038,-3.0007,-2.9943,-2.9895,-2.9859,-2.9825,-2.9771,-2.9718,-2.97,-2.97,-2.9701,-2.9664,-2.9588,0.0,0.0,0.0,0.0,0.0,0.0,0.0,0.0,0.0,0.0,0.0,0.0,0.0,0.0,0.0,-1.5204,-1.5264,-1.5289,-1.5311,-1.5292,-1.5666,-1.6503,-1.6634,0.0,-1.7901,-1.8787,0.0,0.0,0.0,0.0,-2.0477,-2.0508,-2.0462,-2.036,-2.0375,-2.0366,-2.0363,0.0,0.0,0.0,0.0,-2.0507,0.0,0.0,-2.0507,-2.0507,-2.0507,-2.0507,-2.0507,-2.0507,-2.0497,-2.0642,-2.1463,-2.1725,-2.1908,0.0,0.0,0.0,0.0,0.0,0.0,0.0,0.0,0.0,0.0,0.0,-3.2651,-3.4354,-3.4746,-3.5038,-3.591,-3.6781,-3.7628,-3.8438,-3.8603,-3.8598,-3.8486,-3.8404,-3.8023,-3.7093,-3.682,-3.6358,-3.545,-3.5277,-3.4833,-3.3949,-3.384,-3.3408,-3.252,-3.1705,-3.125,-3.1212,-3.0484,-3.0045,-3.0007,-3.0072,-3.0102,-3.0102,-3.0102,-3.0102,-3.0102,-3.0038,-2.9972,-2.9905,-2.9924,-2.9891,-2.9895,-2.9753,-2.9717,-2.9699,-2.9701,-2.9683,-2.9683,-2.9701,-2.9664,-2.9607,0.0,0.0,0.0,0.0,0.0,0.0,0.0,0.0,0.0,0.0,0.0,0.0,0.0,-1.5243,-1.5264,-1.5265,-1.5298,-1.554,-1.6099,-1.6179,-1.6583,-1.7455,-1.8061,-1.8501,-1.8828,-1.9684,0.0,0.0,0.0,-2.0603,-2.0605,-2.0562,-2.0516,-2.0492,-2.0506,-2.0503,-2.0497,-2.0503,0.0,0.0,0.0,0.0,0.0,0.0,0.0,0.0,0.0,0.0,0.0,-2.2168,-2.2172,-2.2215,-2.2539,-2.2621,-2.2804,-2.3673,-2.4557,0.0,0.0,0.0,0.0,0.0,0.0,0.0,0.0,-3.1323,-3.2282,-3.289,-3.347,-3.4139,-3.5002,-3.6309,-3.7323,-3.7629,-3.8105,-3.8225,-3.7653,-3.7463,-3.705,-3.611,-3.5919,-3.5494,-3.4557,-3.4404,-3.398,-3.3111,-3.2509,-3.2041,-3.1648,-3.0833,-3.0379,-3.0379,-3.0075,-2.9956,-3.0007,-3.0072,-3.0102,-3.0102,-3.0072,-3.0038,-3.0038,-2.9959,-2.9926,-2.9893,-2.9805,-2.977,-2.9771,-2.9717,-2.97,-2.9701,-2.9701,-2.9701,-2.9701,-2.9701,-2.9664,-2.9607,0.0,0.0,0.0,0.0,0.0,0.0,0.0,0.0,0.0,0.0,0.0,0.0,0.0,0.0,-1.5424,-1.5702,-1.5749,-1.612,-1.7009,-1.7118,-1.7521,-1.8405,-1.899,-1.9431,-1.9738,-2.0302,0.0,0.0,0.0,0.0,0.0,-2.0536,-2.0492,-2.0506,-2.0503,-2.0503,0.0,0.0,0.0,-2.0931,0.0,0.0,-2.2239,0.0,0.0,0.0,0.0,0.0,0.0,0.0,-2.3093,-2.3155,-2.3439,-2.3735,-2.4089,-2.4667,-2.5242,0.0,-2.5703,0.0,0.0,0.0,0.0,0.0,0.0,0.0,-3.1421,-3.1983,-3.2553,-3.3228,-3.4077,-3.5148,-3.6078,-3.6651,-3.7175,-3.7225,-3.6327,-3.6084,-3.5647,-3.4738,-3.4557,-3.428,-3.3647,-3.3497,-3.3108,-3.2222,-3.1602,-3.1132,-3.0776,-3.021,-2.9888,-2.9888,-2.9888,-2.9924,-2.9956,-3.0022,-3.0038,-3.0038,-2.9991,-2.9975,-2.9959,-2.9929,-2.9895,-2.9842,-2.9735,-2.9717,-2.9699,-2.97,-2.9701,-2.9701,-2.9701,-2.9701,-2.9701,-2.9701,-2.9664,-2.9626,0.0,0.0,0.0,0.0,0.0,0.0,0.0,0.0,0.0,0.0,0.0,0.0,0.0,0.0,0.0,-1.6564,-1.6636,-1.7037,-1.7986,-1.8035,-1.8434,-1.93,-1.9339,-1.9739,-2.0586,-2.0605,0.0,0.0,0.0,0.0,0.0,0.0,-2.0506,0.0,-2.0519,-2.0539,-2.0539,0.0,-2.1029,-2.1846,0.0,-2.236,-2.3139,0.0,0.0,0.0,-2.3182,-2.3186,0.0,-2.3173,0.0,0.0,0.0,0.0,-2.5704,-2.571,0.0,0.0,0.0,0.0,0.0,0.0,0.0,0.0,-2.914,0.0,-3.0056,-3.1682,-3.2034,-3.2304,-3.3101,-3.3252,-3.3796,-3.5441,-3.5713,-3.5408,-3.4496,-3.4234,-3.3853,-3.3006,-3.2837,-3.2766,-3.2664,-3.2607,-3.2203,-3.1317,-3.1191,-3.0795,-2.9945,-2.9888,-2.9888,-2.9888,-2.9888,-2.9888,-2.9888,-2.9888,-2.9888,-2.9888,-2.9888,-2.9891,-2.9895,-2.9895,-2.9806,-2.9717,-2.9699,-2.9699,-2.9699,-2.9701,-2.9701,-2.9701,-2.9701,-2.9701,-2.9701,-2.9701,-2.9701,-2.9701,0.0,0.0,0.0,0.0,0.0,0.0,0.0,0.0,0.0,0.0,0.0,0.0,0.0,0.0,-1.7297,-1.7585,-1.7616,-1.7994,-1.8873,-1.8941,-1.9335,-2.0209,-2.0248,-2.0351,-2.0586,-2.0603,0.0,0.0,0.0,0.0,0.0,0.0,0.0,0.0,-2.1162,-2.1435,-2.1435,-2.1432,0.0,0.0,-2.273,-2.326,0.0,0.0,0.0,0.0,0.0,-2.4982,-2.4982,0.0,-2.4976,-2.5021,0.0,0.0,0.0,0.0,0.0,0.0,-2.5703,0.0,0.0,0.0,0.0,0.0,0.0,0.0,-2.9655,-3.0115,-3.0687,-3.1343,-3.2195,-3.2314,-3.2632,-3.3683,-3.3858,-3.3732,-3.3418,-3.3311,-3.316,-3.2845,-3.2776,-3.2473,-3.1817,-3.1702,-3.1295,-3.0424,-3.03,-3.0135,-2.9907,-2.9888,-2.9888,-2.9888,-2.9888,-2.9888,-2.9888,-2.9888,-2.9888,-2.9888,-2.991,-2.9893,-2.9895,-2.9789,-2.9735,-2.9699,-2.9701,-2.9701,-2.9701,-2.9701,-2.9701,-2.9701,-2.9701,-2.9701,-2.9701,-2.9701,-2.9701,-2.9701,0.0,0.0,0.0,0.0,0.0,0.0,0.0,0.0,0.0,0.0,0.0,0.0,0.0,0.0,0.0,-1.8518,-1.8547,-1.8902,-1.9795,-1.9832,-2.0071,-2.0576,-2.0604,-2.0605,-2.0601,-2.0594,0.0,0.0,0.0,0.0,0.0,0.0,0.0,0.0,0.0,0.0,0.0,0.0,0.0,0.0,-2.3637,0.0,0.0,-2.5347,-2.5804,0.0,0.0,0.0,-2.6771,-2.6788,-2.654,0.0,0.0,0.0,0.0,0.0,0.0,0.0,0.0,0.0,0.0,0.0,0.0,0.0,-2.689,-2.7702,-2.8513,0.0,-2.9605,-3.0296,-3.0785,-3.1125,-3.1458,-3.1901,-3.1667,-3.1675,-3.2347,-3.234,-3.2146,-3.1761,-3.1671,-3.1386,-3.0879,-3.0779,-3.0538,-2.9994,-2.9905,-2.9888,-2.9888,-2.9888,-2.9888,-2.9888,-2.9888,-2.9888,-2.9888,-2.9888,-2.9907,-2.9891,-2.9893,-2.9859,-2.9806,-2.9735,-2.9699,-2.97,-2.9701,-2.9701,-2.9701,-2.9701,-2.9701,-2.9701,-2.9701,-2.9701,-2.9701,-2.9701,-2.9701,-2.9701,0.0,0.0,0.0,-1.7907,-1.7907,-1.7892,0.0,0.0,0.0,0.0,0.0,0.0,0.0,0.0,0.0,0.0,-1.9435,-1.977,-2.0543,-2.0602,-2.0605,-2.0605,-2.0605,-2.0601,-2.0601,-2.0582,0.0,0.0,0.0,0.0,0.0,0.0,0.0,0.0,0.0,0.0,0.0,0.0,0.0,-2.4689,-2.458,-2.507,0.0,0.0,-2.7059,-2.7259,-2.802,-2.8301,-2.8307,-2.8309,-2.7791,0.0,0.0,0.0,0.0,0.0,-2.5771,0.0,0.0,0.0,0.0,0.0,-2.5707,0.0,-2.6591,-2.6833,-2.7128,-2.7906,-2.8689,-2.9232,-2.9179,-2.9737,-3.019,-3.0121,-2.9452,-2.9517,-3.1167,-3.1161,-3.0715,-3.0013,-2.9846,-2.9787,-2.9722,-2.9722,-2.9728,-2.9772,-2.9851,-2.9888,-2.9888,-2.9888,-2.9888,-2.9888,-2.9888,-2.9888,-2.9907,-2.9907,-2.9891,-2.9895,-2.9876,-2.9825,-2.9717,-2.9699,-2.97,-2.9701,-2.9701,-2.9701,-2.9701,-2.9701,-2.9701,-2.9701,-2.9701,-2.9683,-2.9701,-2.9699,-2.9698,-2.9717,0.0,0.0,0.0,-1.7892,-1.7909,-1.7902,0.0,0.0,0.0,0.0,0.0,0.0,0.0,0.0,0.0,0.0,-2.0345,-2.0429,-2.0585,-2.0605,-2.0605,-2.0598,-2.0593,-2.0607,-2.0601,-2.056,-2.0514,0.0,0.0,0.0,0.0,0.0,0.0,0.0,0.0,0.0,0.0,0.0,0.0,-2.6435,-2.5733,0.0,-2.6766,-2.6944,-2.7437,-2.8069,-2.8234,-2.8295,-2.8297,-2.83,-2.8181,-2.8053,0.0,0.0,0.0,-2.6752,0.0,0.0,0.0,0.0,0.0,0.0,-2.5707,0.0,-2.5838,-2.6408,-2.6951,-2.7115,-2.775,-2.8268,-2.8255,-2.8329,-2.8382,-2.833,-2.8126,-2.8326,-2.9302,-2.8868,-2.8351,-2.8131,-2.8037,-2.8008,-2.7994,-2.7998,-2.8252,-2.8885,-2.9529,-2.9888,-2.9888,-2.9888,-2.9888,-2.9888,-2.9888,-2.9907,-2.9893,-2.9893,-2.9876,-2.9825,-2.9753,-2.9735,-2.9699,-2.9701,-2.9701,-2.9701,-2.9701,-2.9701,-2.9701,-2.9701,-2.9701,-2.9701,-2.9701,-2.9701,-2.9699,-2.9699,-2.9735,-2.9789,0.0,0.0,0.0,-1.9204,-1.9196,-1.9208,-1.9195,0.0,0.0,0.0,0.0,0.0,0.0,0.0,0.0,0.0,0.0,0.0,0.0,-2.1852,-2.1848,-2.1856,-2.1854,-2.185,-2.1842,-2.1815,-2.1805,0.0,0.0,0.0,0.0,0.0,0.0,0.0,0.0,0.0,0.0,0.0,-2.6564,-2.6952,-2.652,0.0,-2.7708,-2.8123,-2.8578,-2.9015,-2.9445,-2.9608,-2.9607,-2.9605,-2.9305,0.0,-2.8903,-2.8313,-2.7644,0.0,-2.6991,-2.6344,0.0,0.0,0.0,-2.5656,-2.5648,0.0,0.0,-2.5949,-2.6242,-2.6204,-2.6827,-2.7329,-2.7315,-2.7603,-2.7835,-2.7762,-2.7332,-2.7134,-2.7494,-2.7584,-2.7589,-2.7552,-2.749,-2.7426,-2.7392,-2.743,-2.7634,-2.8066,-2.8862,-2.9301,-2.9301,-2.968,-2.9907,-2.991,-2.991,-2.9893,-2.9842,-2.9842,-2.9825,-2.9754,-2.9717,-2.9699,-2.9701,-2.9701,-2.9701,-2.9701,-2.9701,-2.9701,-2.9701,-2.9701,-2.9701,-2.9701,-2.9701,-2.97,-2.9717,-2.9789,-2.9825,-2.9842,0.0,0.0,0.0,0.0,-2.0503,-2.0494,-2.0503,-2.0506,0.0,0.0,0.0,0.0,0.0,0.0,0.0,0.0,0.0,0.0,0.0,0.0,-2.3107,-2.3101,-2.3101,-2.3096,-2.3101,-2.3108,-2.3097,-2.3093,0.0,0.0,0.0,0.0,0.0,0.0,0.0,0.0,0.0,0.0,0.0,-2.7482,0.0,-2.792,-2.863,-2.9338,-2.9794,-3.0191,-3.1068,-3.1269,-3.1133,-3.1133,-3.0548,-2.9823,-2.9779,-2.9188,0.0,0.0,0.0,0.0,0.0,0.0,0.0,0.0,0.0,-2.5595,0.0,0.0,0.0,-2.5507,-2.5998,-2.6436,-2.6361,-2.6875,-2.7266,-2.7217,-2.6549,-2.6032,-2.5963,-2.6546,-2.6982,-2.6972,-2.6942,-2.6877,-2.6808,-2.7028,-2.7172,-2.7233,-2.7994,-2.8525,-2.8676,-2.9301,-2.972,-2.9895,-2.9895,-2.9842,-2.9771,-2.9771,-2.9754,-2.9699,-2.9699,-2.9682,-2.9701,-2.9701,-2.9701,-2.9701,-2.9701,-2.9701,-2.9701,-2.9701,-2.9701,-2.9717,-2.9717,-2.9717,-2.9753,-2.9859,-2.9912,-2.9893,-2.0348,-2.0434,0.0,0.0,-2.05,-2.0506,-2.0494,-2.0558,0.0,0.0,0.0,0.0,0.0,0.0,0.0,0.0,0.0,0.0,-2.3091,0.0,0.0,-2.3103,-2.3093,-2.3104,-2.3101,-2.3104,-2.3108,-2.31,0.0,0.0,0.0,0.0,0.0,0.0,-2.635,0.0,0.0,0.0,-2.8509,0.0,-2.9286,-2.935,0.0,-2.9552,-3.0511,-3.1923,-3.2809,-3.2619,-3.1953,0.0,-3.1385,-3.0657,0.0,-3.006,-2.9363,-2.934,0.0,0.0,0.0,0.0,0.0,0.0,-2.56,-2.5599,-2.5609,0.0,-2.5511,-2.5499,0.0,-2.5533,-2.5466,0.0,0.0,-2.5411,-2.5266,-2.511,-2.5064,-2.5078,-2.5125,-2.511,-2.511,-2.5091,-2.5077,-2.5789,-2.6239,-2.6265,-2.7059,-2.7853,-2.8572,-2.8685,-2.9066,-2.9789,-2.9808,-2.9771,-2.9717,-2.9717,-2.9718,-2.9701,-2.9701,-2.9701,-2.9701,-2.9701,-2.9701,-2.9701,-2.9701,-2.9701,-2.9683,-2.97,-2.9699,-2.9717,-2.9717,-2.9771,-2.9895,-2.9895,-2.991,-2.9907,-2.069,-2.0506,0.0,0.0,-2.0531,-2.0716,-2.1184,0.0,0.0,0.0,0.0,0.0,0.0,0.0,0.0,0.0,0.0,-2.4614,0.0,0.0,0.0,-2.46,-2.4609,-2.4619,-2.4615,-2.4561,-2.4553,-2.4549,-2.4885,0.0,0.0,0.0,0.0,0.0,-2.7264,0.0,-2.7706,0.0,-2.9198,0.0,0.0,0.0,0.0,-3.1055,-3.1793,-3.2908,-3.3266,-3.3161,-3.2851,-3.2851,-3.228,-3.1552,-3.1546,0.0,0.0,-3.0248,0.0,0.0,0.0,0.0,0.0,-2.6564,-2.6348,-2.6203,-2.5667,-2.5531,-2.5503,-2.5448,0.0,0.0,0.0,0.0,0.0,0.0,-2.4991,-2.4917,-2.4846,-2.4783,-2.4753,-2.4802,-2.4802,-2.4802,-2.4802,-2.5122,-2.5344,-2.5351,-2.6144,-2.6801,-2.7141,-2.8067,-2.8749,-2.9038,-2.9509,-2.9736,-2.9701,-2.9701,-2.9701,-2.9701,-2.9701,-2.9701,-2.9701,-2.9701,-2.9701,-2.9701,-2.9701,-2.9701,-2.9683,-2.97,-2.9717,-2.9771,-2.9789,-2.9859,-2.9912,-2.991,-2.9907,-2.9888,0.0,0.0,0.0,0.0,0.0,0.0,0.0,0.0,0.0,0.0,0.0,0.0,-2.5048,-2.5336,0.0,0.0,-2.641,-2.641,0.0,0.0,-2.6418,0.0,0.0,0.0,-2.6381,-2.6334,-2.6305,-2.6305,0.0,0.0,0.0,0.0,0.0,0.0,0.0,-2.8556,-2.8614,0.0,-3.0024,-3.0398,-3.1613,-3.2387,-3.281,-3.281,-3.3202,-3.3782,-3.4039,-3.3964,-3.3768,-3.3768,-3.3177,-3.2466,-3.2459,-3.1863,-3.1164,0.0,0.0,0.0,-2.9552,-2.9051,-2.8349,-2.7473,-2.7237,-2.7045,-2.6378,-2.6013,-2.582,-2.5771,-2.5515,0.0,0.0,0.0,-2.5082,0.0,0.0,-2.4842,-2.4772,-2.452,-2.4369,-2.4418,-2.4418,-2.4512,-2.4757,-2.4776,-2.4787,-2.4798,-2.5397,-2.585,-2.6057,-2.7452,-2.8303,-2.8477,-2.925,-2.9664,-2.9664,-2.9645,-2.9645,-2.9645,-2.9645,-2.9645,-2.9664,-2.9664,-2.9664,-2.9701,-2.9701,-2.9701,-2.9683,-2.9718,-2.9754,-2.9808,-2.9876,-2.9893,-2.9893,-2.9907,-2.9888,-2.9888,-2.3023,-2.3023,0.0,0.0,0.0,0.0,0.0,0.0,0.0,0.0,0.0,0.0,0.0,0.0,0.0,0.0,0.0,-2.8225,-2.8225,0.0,-2.8212,0.0,0.0,-2.8127,0.0,-2.8121,-2.8116,-2.8116,0.0,0.0,0.0,0.0,0.0,0.0,0.0,-2.9468,-2.9523,-3.0395,-3.1253,-3.2014,-3.2085,-3.3105,-3.4627,0.0,-3.4625,-3.4761,-3.56,-3.5369,-3.4666,-3.4666,-3.4072,-3.3356,-3.3356,-3.2756,-3.2055,-3.2055,-3.1447,-3.0565,-2.9727,-2.9479,-2.9244,-2.8388,-2.8119,-2.8061,-2.802,-2.7303,-2.6655,-2.665,-2.5929,-2.5271,-2.5198,-2.5156,-2.5076,0.0,0.0,0.0,0.0,-2.3982,-2.3442,-2.3442,-2.3442,-2.378,-2.4623,-2.4711,-2.4723,-2.4806,-2.4825,-2.5182,-2.5954,-2.6857,-2.7671,-2.8369,-2.9177,-2.9607,-2.9607,-2.955,-2.9512,-2.9512,-2.9512,-2.955,-2.9607,-2.9607,-2.9626,-2.9701,-2.9701,-2.9701,-2.972,-2.9773,-2.9808,-2.9808,-2.9874,-2.9888,-2.9888,-2.9888,-2.9888,-2.9888,0.0,0.0,0.0,0.0,0.0,0.0,0.0,-2.5191,0.0,0.0,0.0,0.0,0.0,-2.8115,-2.8301,0.0,0.0,-2.8303,-2.8303,-2.8298,0.0,0.0,0.0,-2.8278,0.0,0.0,-2.8271,-2.8271,0.0,0.0,0.0,0.0,0.0,0.0,0.0,-3.0352,0.0,0.0,0.0,0.0,0.0,-3.4527,-3.5561,-3.5561,-3.5561,-3.56,-3.5893,-3.5818,-3.5564,-3.5564,-3.4989,-3.425,-3.425,-3.3652,-3.2854,-3.227,-3.1895,-3.1466,-3.0599,-3.0331,-3.0075,-2.9213,-2.8981,-2.881,-2.8233,-2.7818,-2.7546,-2.7499,-2.6746,-2.6074,-2.6018,-2.5463,0.0,0.0,0.0,0.0,0.0,-2.3453,-2.2529,-2.2483,-2.2507,-2.2888,-2.3746,-2.3836,-2.4091,-2.4685,-2.4723,-2.4854,-2.5117,-2.5911,-2.6739,-2.751,-2.8334,-2.9008,-2.9531,-2.9512,-2.9492,-2.9492,-2.9492,-2.9512,-2.9531,-2.9588,-2.9607,-2.9626,-2.9683,-3.0002,-3.0509,-3.0584,-3.0922,-3.1468,-3.1522,-3.1557,-3.1421,-3.0305,-3.0267,-3.0852,-2.5707,0.0,0.0,0.0,0.0,0.0,0.0,0.0,0.0,0.0,-2.8496,0.0,-2.9219,0.0,-3.0108,0.0,-3.0101,-3.0118,-3.0118,-3.0116,0.0,-3.0111,-3.0105,-3.0102,0.0,0.0,0.0,0.0,0.0,-2.9491,0.0,0.0,0.0,0.0,0.0,-3.1257,-3.1313,0.0,-3.2734,0.0,0.0,-3.5493,0.0,-3.5991,-3.5991,-3.5991,-3.5991,-3.5991,-3.5991,-3.5991,-3.563,-3.5166,-3.5166,-3.4549,-3.3726,-3.3142,-3.2796,-3.2362,-3.149,-3.1201,-3.095,-3.0082,-2.9848,-2.9676,-2.9125,-2.8692,-2.8415,-2.8367,-2.7621,-2.6849,-2.6472,-2.5888,0.0,0.0,0.0,0.0,0.0,-2.2794,-2.1838,-2.1216,-2.1459,-2.2114,-2.3247,-2.3393,-2.3746,-2.4604,-2.466,-2.466,-2.466,-2.5433,-2.624,-2.7081,-2.7867,-2.8651,-2.9414,-2.9412,-2.9431,-2.9431,-2.9431,-2.9451,-2.9491,-2.9828,-2.9999,-3.0057,-3.0395,-3.0846,-3.1335,-3.1412,-3.177,-3.226,-3.2336,-3.2391,-3.2257,-3.1195,-3.1156,-3.1705,0.0,0.0,0.0,0.0,-2.6509,0.0,0.0,0.0,-2.8379,0.0,-2.9902,-3.0976,-3.1016,-3.2441,-3.3398,-3.3395,-3.3408,-3.3402,-3.34,-3.34,0.0,0.0,-3.3409,-3.3406,-3.3395,0.0,0.0,0.0,0.0,0.0,0.0,0.0,0.0,0.0,-3.1794,0.0,-3.2226,-3.3086,-3.3963,-3.4837,-3.5664,-3.601,-3.6069,-3.6069,-3.6088,-3.6108,-3.603,-3.5991,-3.5991,-3.5991,-3.6001,-3.6005,-3.6005,-3.5383,-3.4661,-3.4603,-3.4057,-3.3278,-3.2405,-3.2116,-3.1864,-3.097,-3.0707,-3.064,-3.0602,-2.9921,-2.9264,-2.9264,-2.8525,-2.7577,-2.6644,-2.6384,-2.5958,0.0,0.0,0.0,0.0,-2.208,-2.1421,-1.9843,-2.0364,-2.1473,0.0,-2.3294,-2.3699,-2.4543,-2.4599,-2.4599,-2.4599,-2.5327,-2.6149,-2.7046,-2.7774,-2.8497,-2.9293,-2.9286,-2.9302,-2.9302,-2.9302,-2.9365,-2.9485,-3.0325,-3.076,-3.0899,-3.1742,-3.2139,-3.2161,-3.222,-3.2277,-3.2315,-3.2392,-3.2468,-3.2524,-3.2483,-3.2463,-3.2482,-2.7638,-2.7805,-2.7891,0.0,-2.7827,-2.7968,0.0,0.0,0.0,0.0,-3.1191,-3.209,-3.2695,-3.3144,-3.3398,-3.3398,-3.3398,0.0,0.0,0.0,0.0,-3.3395,-3.3395,-3.3392,-3.3392,-3.3392,-3.3295,-3.308,0.0,0.0,-3.2723,0.0,0.0,0.0,0.0,0.0,-3.3129,-3.401,-3.4864,-3.5695,-3.5919,-3.6364,-3.6887,-3.6887,-3.7297,-3.771,-3.6456,-3.5991,-3.5991,-3.6004,-3.5994,-3.5981,-3.5938,-3.5768,-3.5441,-3.4798,-3.4447,-3.4096,-3.3223,-3.2972,-3.2765,-3.1871,-3.1627,-3.1405,-3.0737,-3.0385,-3.0171,-3.0171,-2.9371,-2.842,-2.7536,-2.6784,-2.5958,0.0,0.0,0.0,0.0,0.0,-2.1625,-2.0604,-2.0154,-2.0592,-2.2256,-2.2421,-2.3033,-2.4487,-2.4599,-2.4599,-2.4599,-2.4752,-2.5482,-2.6897,-2.7082,-2.7822,-2.9225,-2.9222,-2.924,-2.924,-2.928,-2.962,-3.0234,-3.0544,-3.1033,-3.1635,-3.1963,-3.2435,-3.2999,-3.3041,-3.3479,-3.4066,-3.4086,-3.4166,-3.4188,-3.3582,-3.3373,-3.3449,-2.8301,0.0,0.0,-2.9826,0.0,0.0,-2.9491,-3.0156,0.0,-3.1875,-3.2754,0.0,-3.4453,-3.4883,-3.5254,-3.5644,-3.5664,0.0,-3.5663,0.0,0.0,-3.5125,-3.5105,-3.4929,-3.4539,-3.4539,0.0,-3.3971,0.0,0.0,-3.3398,0.0,0.0,0.0,0.0,-3.3968,-3.403,-3.4908,-3.5549,-3.6029,-3.6376,-3.6805,0.0,-3.762,-3.8068,-3.838,-3.7437,-3.6859,-3.6469,-3.6111,-3.5986,-3.5958,-3.5909,-3.5899,-3.5791,-3.5304,-3.5168,-3.4973,-3.4119,-3.3868,-3.366,-3.2785,-3.2217,-3.177,-3.1288,-3.0848,-3.053,-3.0509,-2.9998,-2.9308,-2.8422,-2.7477,-2.6356,0.0,0.0,0.0,0.0,0.0,0.0,-2.1421,-2.0919,-2.1157,-2.2452,-2.2247,-2.2747,-2.4437,-2.4549,-2.4549,-2.4549,-2.4479,-2.5189,-2.6822,-2.6782,-2.7537,-2.9138,-2.9175,-2.9175,-2.9175,-2.957,-3.0021,-3.0524,-3.1336,-3.198,-3.2449,-3.2913,-3.3387,-3.3821,-3.3904,-3.421,-3.4666,-3.4687,-3.4747,-3.4752,-3.4339,-3.4207,-3.4282,-2.8967,0.0,0.0,0.0,0.0,0.0,0.0,-3.1892,0.0,-3.3613,0.0,-3.5254,-3.623,-3.7012,-3.7773,-3.8535,-3.8594,-3.8594,-3.8594,-3.8594,-3.8261,-3.7497,-3.7477,-3.7126,-3.6363,-3.6228,-3.5799,0.0,0.0,0.0,0.0,0.0,0.0,0.0,0.0,0.0,0.0,-3.5674,-3.604,-3.6216,-3.6918,-3.7342,-3.7615,-3.8376,-3.8746,-3.8824,-3.8707,-3.8049,-3.7093,-3.6391,-3.6036,-3.5909,-3.5909,-3.5899,-3.5908,-3.5908,-3.5908,-3.5733,-3.4976,-3.4769,-3.4555,-3.3679,-3.2854,-3.2175,-3.1956,-3.1312,-3.0704,-3.0539,-3.0394,-3.0042,-2.9155,-2.8082,-2.6792,0.0,-2.4735,-2.4337,-2.3577,0.0,0.0,0.0,-2.2052,0.0,-2.3128,-2.2571,-2.281,-2.4388,-2.45,-2.4482,-2.4482,-2.4522,-2.5227,-2.6725,-2.6814,-2.7567,-2.9067,-2.9085,-2.9122,-2.9255,-3.0023,-3.0531,-3.0857,-3.2312,-3.3069,-3.3287,-3.4064,-3.4409,-3.4495,-3.4561,-3.4583,-3.4623,-3.4666,-3.4687,-3.4727,-3.4768,-3.483,-3.4889,0.0,0.0,0.0,0.0,0.0,-3.3378,-3.3947,-3.3537,-3.3736,-3.5346,-3.5679,-3.6382,-3.7964,-3.8277,-3.8435,-3.8594,-3.8594,0.0,0.0,0.0,0.0,-3.8379,-3.8379,-3.8301,-3.8144,-3.7437,-3.6999,0.0,0.0,0.0,0.0,0.0,0.0,0.0,0.0,0.0,-3.5771,-3.588,0.0,-3.7001,-3.7147,-3.8057,-3.9363,-3.9519,-4.0025,-4.0552,-3.9831,-3.8561,-3.7171,-3.7045,-3.6494,-3.5909,-3.5894,-3.5889,-3.5908,-3.5908,-3.5908,-3.5869,-3.5713,-3.5663,-3.5451,-3.4594,-3.4217,-3.3666,-3.2227,-3.1738,-3.1381,-3.0655,-3.0444,-3.0105,-2.9168,-2.7597,-2.629,-2.5921,-2.5208,-2.4604,-2.4393,-2.3729,0.0,0.0,-2.2404,-2.2312,-2.3128,-2.3073,-2.3423,-2.4425,-2.4447,-2.4412,-2.4412,-2.4986,-2.5742,-2.6698,-2.7361,-2.8128,-2.8998,-2.9017,-2.9347,-3.0013,-3.0231,-3.1033,-3.2416,-3.2765,-3.3314,-3.4017,-3.4237,-3.434,-3.4409,-3.4495,-3.4539,-3.4602,-3.4623,-3.4645,-3.4687,-3.4708,-3.4768,-3.4829,0.0,0.0,0.0,0.0,0.0,0.0,-3.6521,-3.6364,-3.6247,-3.6626,-3.7075,-3.7836,-3.9127,-3.9264,-3.9442,-3.9856,-3.9899,-3.9901,-3.9901,-3.9901,-3.9705,-3.9295,-3.9276,-3.9061,-3.8612,-3.8196,-3.7758,-3.7301,-3.688,0.0,0.0,0.0,0.0,0.0,0.0,-3.5958,0.0,0.0,-3.6815,-3.7283,-3.8168,-3.9045,-3.9844,-4.0292,-4.074,-4.1052,-4.0623,-3.9636,-3.8399,-3.7498,-3.6913,-3.6504,-3.605,-3.5908,-3.5908,-3.5908,-3.5908,-3.5908,-3.5908,-3.5897,-3.5807,-3.5379,-3.4904,-3.433,-3.3458,-3.252,-3.1719,-3.1272,-3.0755,-3.011,-2.9123,-2.8188,-2.7243,-2.6303,-2.5706,-2.5217,-2.4722,-2.4228,-2.3917,0.0,0.0,0.0,-2.3832,-2.3835,-2.3985,-2.441,-2.4412,-2.4375,-2.4339,-2.5078,-2.5869,-2.6657,-2.7445,-2.8213,-2.8975,-2.942,-2.9824,-3.021,-3.1151,-3.2016,-3.2816,-3.3339,-3.3802,-3.4197,-3.4269,-3.4316,-3.4377,-3.4936,-3.5214,-3.5315,-3.5728,-3.5919,-3.5942,-3.5942,-3.5985,-3.5916,0.0,-3.451,0.0,0.0,-3.656,-3.7028,-3.8394,-3.8746,-3.8609,-3.7926,-3.8434,-3.9195,-4.0054,-4.0151,-4.0405,-4.103,-4.1099,-4.1105,-4.1105,-4.1105,-4.0811,-4.0186,-4.0166,-3.9834,-3.9151,-3.8955,-3.8541,-3.7848,-3.765,-3.7123,-3.6284,0.0,0.0,0.0,0.0,-3.6192,-3.6234,-3.7111,-3.7578,-3.7845,-3.9228,-3.989,-4.0124,-4.0812,-4.1085,-4.1085,-4.1091,-4.0662,-3.9844,-3.8285,-3.7623,-3.7311,-3.6454,-3.6181,-3.6142,-3.5947,-3.5908,-3.5908,-3.5908,-3.5903,-3.5905,-3.5905,-3.5385,-3.4812,-3.4553,-3.3449,-3.2376,-3.2124,-3.1325,-3.0359,-2.9346,-2.897,-2.835,-2.6953,-2.6337,-2.5775,-2.507,-2.4708,-2.4512,0.0,0.0,0.0,-2.45,-2.4447,-2.4394,-2.4394,-2.4376,-2.4339,-2.4284,-2.5206,-2.6013,-2.6675,-2.757,-2.8356,-2.8975,-2.9806,-3.0283,-3.0467,-3.2023,-3.2865,-3.3075,-3.3846,-3.4197,-3.4197,-3.4431,-3.4665,-3.4913,-3.5745,-3.6114,-3.6216,-3.6836,-3.7099,-3.7099,-3.7099,-3.7145,-3.7002,0.0,0.0,0.0,0.0,0.0,-3.8414,-3.8573,-3.9214,-3.9663,-3.9585,-3.9644,-4.0015,-4.0893,-4.0991,-4.101,-4.1088,-4.1091,-4.1091,-4.1091,-4.1091,-4.1072,-4.0994,-4.0994,-4.0955,-4.0876,-4.0154,-3.9741,-3.9663,-3.8795,-3.7972,-3.7175,-3.7121,-3.6664,-3.5934,-3.6737,-3.7091,-3.7151,-3.8007,-3.8799,-3.9478,-3.9634,-4.0186,-4.0906,-4.0986,-4.1013,-4.1013,-4.1085,-4.1052,-4.0838,-3.9883,-3.9026,-3.8227,-3.735,-3.7077,-3.6921,-3.6123,-3.5908,-3.5908,-3.5908,-3.5908,-3.5903,-3.5911,-3.584,-3.5553,-3.4695,-3.4369,-3.4013,-3.3141,-3.2174,-3.1194,-3.024,-2.9379,-2.8741,-2.8499,-2.7119,-2.6042,-2.5906,-2.515,-2.4564,-2.4512,0.0,0.0,-2.45,-2.4447,-2.4358,-2.4303,-2.4266,-2.421,-2.421,-2.566,-2.6521,-2.6612,-2.8099,-2.892,-2.8994,-2.9806,-3.0577,-3.1292,-3.2249,-3.3135,-3.3887,-3.4037,-3.4148,-3.4234,-3.5058,-3.587,-3.6664,-3.6902,-3.6967,-3.6986,-3.7061,-3.7099,-3.7099,-3.7099,-3.7103,-3.7084,-3.859,0.0,-3.8746,-3.9234,-3.9741,-4.0288,-4.0795,-4.1596,-4.2142,-4.2142,-4.1693,-4.1498,-4.1849,-4.2357,-4.265,-4.265,-4.265,-4.2435,-4.1908,-4.1888,-4.1654,-4.1127,-4.1108,-4.1108,-4.1108,-4.0776,-4.0363,-3.9832,-3.9455,-3.8846,-3.8018,-3.7986,-3.78,-3.7473,-3.7812,-3.7975,-3.8027,-3.887,-3.9408,-3.975,-4.0276,-4.0684,-4.0996,-4.1003,-4.1011,-4.1011,-4.1038,-4.1038,-4.0979,-4.0643,-3.9974,-3.9123,-3.8266,-3.7974,-3.7915,-3.7564,-3.7097,-3.6688,-3.6688,-3.6298,-3.5903,-3.5892,-3.5905,-3.5787,-3.5374,-3.4874,-3.4381,-3.3964,-3.2698,-3.1539,-3.1117,-3.0242,-2.9398,-2.8863,-2.8111,-2.7396,-2.6857,-2.5935,-2.5308,-2.5291,-2.4813,-2.4482,-2.4447,-2.4375,-2.4303,-2.4247,-2.421,-2.4412,-2.489,-2.5988,-2.6833,-2.7291,-2.8411,-2.9214,-2.9732,-3.0522,-3.1336,-3.2169,-3.3055,-3.3684,-3.4074,-3.4124,-3.4476,-3.5088,-3.5926,-3.6541,-3.6999,-3.7534,-3.7788,-3.7868,-3.8394,-3.8606,-3.8606,-3.8606,-3.8606,-3.8606,-4.0034,-4.0093,-4.0288,-4.0854,-4.1459,-4.2064,-4.2689,-4.3294,-4.3704,-4.3704,-4.3391,-4.3079,-4.2806,-4.3333,-4.3704,-4.3704,-4.3704,-4.343,-4.2825,-4.2786,-4.2396,-4.1518,-4.1479,-4.1358,-4.1104,-4.1101,-4.0805,-4.0173,-4.0188,-3.9731,-3.8883,-3.8614,-3.85,-3.8513,-3.8747,-3.885,-3.8902,-3.9731,-4.0065,-4.0116,-4.0719,-4.098,-4.098,-4.0988,-4.1007,-4.1007,-4.0996,-4.0996,-4.0996,-4.0991,-4.0616,-4.0007,-3.9156,-3.8889,-3.8831,-3.8578,-3.8052,-3.7584,-3.7584,-3.6941,-3.6273,-3.6281,-3.6099,-3.5884,-3.5821,-3.532,-3.4759,-3.4447,-3.3334,-3.2256,-3.1699,-3.0978,-3.0204,-2.9311,-2.8862,-2.8407,-2.7773,-2.6831,-2.6202,-2.6186,-2.5612,-2.5206,-2.5134,-2.506,-2.4986,-2.4948,-2.4909,-2.5055,-2.5384,-2.6392,-2.7218,-2.7769,-2.8594,-2.9402,-3.0191,-3.1023,-3.1857,-3.2716,-3.361,-3.4178,-3.4488,-3.4829,-3.5454,-3.6342,-3.6951,-3.7418,-3.7796,-3.8359,-3.8627,-3.8732,-3.9352,-3.9602,-3.9602,-3.9602,-3.9602,-3.9602,-4.3469,-4.3645,-4.3645,-4.3645,-4.3665,-4.3665,-4.3684,-4.3684,-4.3704,-4.3704,-4.4445,-4.4641,-4.3782,-4.3684,-4.3704,-4.3704,-4.3704,-4.3704,-4.3684,-4.3684,-4.3294,-4.2415,-4.2389,-4.1972,-4.1113,-4.11,-4.1096,-4.1076,-4.1081,-4.0647,-3.9769,-3.8903,-3.8494,-3.8533,-3.933,-3.9696,-3.973,-4.0613,-4.0954,-4.0888,-4.0907,-4.0907,-4.0907,-4.0974,-4.101,-4.101,-4.1007,-4.0996,-4.0996,-4.0996,-4.0996,-4.0848,-4.0046,-3.9786,-3.963,-3.8753,-3.85,-3.848,-3.848,-3.7857,-3.7188,-3.7176,-3.6547,-3.5884,-3.5821,-3.5747,-3.5427,-3.4488,-3.4236,-3.3647,-3.191,-3.1465,-3.1087,-3.0232,-2.9304,-2.8676,-2.8615,-2.778,-2.717,-2.7083,-2.7028,-2.6935,-2.6879,-2.6745,-2.6667,-2.6667,-2.662,-2.6227,-2.5439,-2.6906,-2.7787,-2.7787,-2.8594,-2.9402,-3.0191,-3.1054,-3.1888,-3.2716,-3.3635,-3.4543,-3.5421,-3.6366,-3.7217,-3.7981,-3.8134,-3.8671,-3.9476,-3.9552,-3.9583,-3.9602,-3.9602,-3.9602,-3.9602,-3.9602,-3.9602,-3.9602,-4.3645,-4.3704,-4.3704,-4.3704,-4.4192,-4.4582,-4.4582,-4.509,-4.546,-4.546,-4.5714,-4.5769,-4.5492,-4.5476,-4.546,-4.546,-4.5476,-4.5215,-4.4629,-4.4543,-4.4148,-4.3309,-4.2724,-4.2275,-4.1998,-4.1408,-4.1111,-4.11,-4.1095,-4.0928,-4.0617,-4.0331,-4.0201,-4.0225,-4.0482,-4.0582,-4.0593,-4.0829,-4.0917,-4.0907,-4.0907,-4.0907,-4.0966,-4.1577,-4.182,-4.1897,-4.248,-4.2694,-4.2694,-4.2693,-4.2313,-4.1777,-4.1568,-4.1103,-4.0565,-4.0292,-3.9818,-3.9396,-3.9396,-3.8747,-3.8092,-3.8026,-3.7369,-3.6705,-3.6695,-3.6144,-3.556,-3.5249,-3.466,-3.4013,-3.3426,-3.2297,-3.1346,-3.0994,-3.014,-2.9493,-2.9429,-2.8608,-2.7976,-2.7923,-2.7363,-2.6953,-2.684,-2.6743,-2.6702,-2.67,-2.7151,-2.731,-2.7034,-2.7512,-2.8044,-2.8613,-2.9402,-3.0233,-3.1072,-3.1925,-3.2766,-3.3679,-3.4555,-3.5465,-3.6384,-3.7287,-3.7841,-3.8172,-3.8796,-3.9258,-3.9571,-3.9596,-3.9602,-3.9602,-3.9602,-3.9602,-3.9602,-3.9602,-3.9602,-3.9602,-4.4602,-4.468,-4.468,-4.468,-4.5129,-4.55,-4.55,-4.5948,-4.63,-4.63,-4.6296,-4.6292,-4.6303,-4.6288,-4.6269,-4.6269,-4.6264,-4.6026,-4.5494,-4.5411,-4.5016,-4.4197,-4.3626,-4.3041,-4.2417,-4.1841,-4.1407,-4.1103,-4.1064,-4.1046,-4.0999,-4.1011,-4.0996,-4.0999,-4.0963,-4.0954,-4.0954,-4.0917,-4.0907,-4.0907,-4.0907,-4.1102,-4.1451,-4.1995,-4.2403,-4.2753,-4.3287,-4.3481,-4.351,-4.3471,-4.3112,-4.2694,-4.2732,-4.2155,-4.1393,-4.1089,-4.0636,-4.0253,-4.0253,-3.9604,-3.8948,-3.8906,-3.8222,-3.7489,-3.7143,-3.6308,-3.5593,-3.5604,-3.5104,-3.4571,-3.4175,-3.3212,-3.2216,-3.1432,-3.0801,-3.0284,-2.9863,-2.9303,-2.8893,-2.8746,-2.8278,-2.7904,-2.7786,-2.7725,-2.7684,-2.7682,-2.808,-2.8334,-2.8334,-2.8268,-2.8631,-2.9462,-3.0,-3.0796,-3.1974,-3.2515,-3.3395,-3.4649,-3.5832,-3.6726,-3.7324,-3.8221,-3.8665,-3.8709,-3.9277,-3.9571,-3.9602,-3.9602,-3.9602,-3.9602,-3.9602,-3.9602,-3.9602,-3.9602,-3.9602,-3.9602,-4.6144,-4.63,-4.63,-4.63,-4.63,-4.63,-4.63,-4.63,-4.63,-4.63,-4.6292,-4.6284,-4.6284,-4.6231,-4.6206,-4.6206,-4.6206,-4.6206,-4.6206,-4.6206,-4.583,-4.503,-4.4922,-4.4175,-4.2616,-4.2383,-4.1909,-4.1085,-4.1032,-4.0991,-4.0996,-4.0999,-4.1002,-4.0982,-4.0936,-4.0907,-4.0907,-4.0907,-4.0907,-4.0907,-4.0878,-4.1432,-4.2209,-4.2267,-4.283,-4.3578,-4.3585,-4.3615,-4.3656,-4.3585,-4.3576,-4.3578,-4.3578,-4.2996,-4.212,-4.1318,-4.1035,-4.0996,-4.0996,-4.0412,-3.9782,-3.9777,-3.911,-3.8219,-3.7209,-3.6323,-3.5666,-3.5604,-3.5547,-3.5226,-3.4347,-3.4127,-3.3527,-3.1756,-3.142,-3.1067,-3.0108,-2.994,-2.9812,-2.9606,-2.953,-2.9471,-2.9407,-2.9344,-2.932,-2.9376,-2.9314,-2.9311,-2.9366,-2.9251,-2.954,-3.0291,-3.042,-3.1218,-3.2779,-3.2926,-3.387,-3.5615,-3.7287,-3.8147,-3.824,-3.9095,-3.9495,-3.9495,-3.9571,-3.9602,-3.9602,-3.962,-3.962,-3.962,-3.9602,-3.9602,-3.9602,-3.962,-3.962,-3.962,-4.6261,-4.63,-4.63,-4.63,-4.63,-4.63,-4.63,-4.6292,-4.6308,-4.6308,-4.626,-4.6226,-4.6215,-4.6215,-4.6203,-4.619,-4.6203,-4.6189,-4.6189,-4.6196,-4.6112,-4.5898,-4.5254,-4.4702,-4.4312,-4.2981,-4.1883,-4.1013,-4.1011,-4.0996,-4.0991,-4.101,-4.0974,-4.0917,-4.0907,-4.0907,-4.0907,-4.0908,-4.0898,-4.0888,-4.0839,-4.1352,-4.2205,-4.2865,-4.366,-4.4494,-4.5084,-4.5316,-4.5328,-4.5316,-4.4909,-4.4416,-4.4416,-4.3815,-4.2953,-4.215,-4.1485,-4.0996,-4.0996,-4.0816,-4.0615,-4.0625,-3.9917,-3.8828,-3.7293,-3.6714,-3.6337,-3.5663,-3.5463,-3.5336,-3.5066,-3.4461,-3.3827,-3.3299,-3.2695,-3.2153,-3.1751,-3.1185,-3.0715,-3.0506,-2.9905,-2.9472,-2.9411,-2.9347,-2.9542,-3.0172,-3.0146,-3.0383,-3.0993,-3.1006,-3.0798,-3.0397,-3.1555,-3.241,-3.2871,-3.3555,-3.4803,-3.6578,-3.7667,-3.8515,-3.917,-3.9452,-3.9596,-3.9596,-3.9577,-3.9602,-3.9602,-3.9669,-3.9669,-3.9669,-3.9679,-3.9684,-3.9684,-3.9674,-3.9669,-3.9669,-4.63,-4.63,-4.63,-4.63,-4.63,-4.63,-4.6296,-4.6308,-4.6284,-4.626,-4.6226,-4.6195,-4.6203,-4.6196,-4.6209,-4.6196,-4.6209,-4.619,-4.619,-4.6203,-4.6196,-4.6196,-4.574,-4.5312,-4.4922,-4.3934,-4.2829,-4.154,-4.1182,-4.0971,-4.0945,-4.0945,-4.0926,-4.0907,-4.0898,-4.0908,-4.0908,-4.0877,-4.0848,-4.0848,-4.0818,-4.1311,-4.2202,-4.3075,-4.3947,-4.482,-4.5602,-4.5893,-4.5905,-4.5893,-4.5602,-4.5246,-4.5246,-4.4664,-4.3908,-4.3479,-4.2471,-4.149,-4.149,-4.1179,-4.0849,-4.0858,-4.0164,-3.9247,-3.8264,-3.7392,-3.6665,-3.6177,-3.5718,-3.5379,-3.5315,-3.4921,-3.4404,-3.3891,-3.3437,-3.295,-3.2374,-3.1921,-3.1582,-3.1406,-3.0973,-3.0652,-3.0551,-3.0506,-3.0668,-3.1051,-3.1065,-3.1228,-3.1654,-3.2024,-3.2043,-3.1552,-3.2384,-3.308,-3.3547,-3.4833,-3.6155,-3.7517,-3.8415,-3.9102,-3.9596,-3.962,-3.965,-3.9656,-3.9656,-3.9656,-3.9656,-3.9679,-3.9703,-3.9703,-3.9708,-3.9689,-3.9689,-3.9703,-3.9698,-3.9693,-4.63,-4.63,-4.63,-4.63,-4.63,-4.6296,-4.6308,-4.6284,-4.6255,-4.6206,-4.6189,-4.6203,-4.6203,-4.6209,-4.6196,-4.6196,-4.6196,-4.6196,-4.6196,-4.6196,-4.6196,-4.6196,-4.6193,-4.5835,-4.5095,-4.4895,-4.3955,-4.2207,-4.1527,-4.109,-4.0907,-4.0907,-4.0898,-4.0898,-4.0888,-4.0877,-4.0877,-4.0807,-4.0796,-4.0796,-4.0796,-4.1319,-4.2172,-4.3044,-4.3935,-4.4776,-4.5602,-4.5867,-4.5873,-4.5887,-4.5867,-4.5873,-4.5873,-4.5428,-4.4866,-4.4866,-4.371,-4.2412,-4.2172,-4.1455,-4.0784,-4.0769,-4.0222,-3.9605,-3.9432,-3.824,-3.7088,-3.6837,-3.6133,-3.5518,-3.532,-3.5289,-3.4996,-3.4139,-3.4008,-3.3691,-3.2827,-3.2581,-3.2448,-3.2327,-3.2194,-3.2056,-3.1933,-3.1933,-3.1927,-3.2013,-3.2013,-3.2069,-3.2199,-3.285,-3.3231,-3.3314,-3.3202,-3.3566,-3.4503,-3.6283,-3.7534,-3.8252,-3.9164,-3.9626,-3.9717,-3.9717,-3.9703,-3.9689,-3.9689,-3.9689,-3.9689,-3.9712,-3.9712,-3.9712,-3.9712,-3.9735,-3.9712,-3.9712,-3.9727,-3.9717,-4.63,-4.63,-4.63,-4.63,-4.6292,-4.6308,-4.6303,-4.6245,-4.6209,-4.6209,-4.6196,-4.6203,-4.6203,-4.6203,-4.6196,-4.6196,-4.6196,-4.6196,-4.6196,-4.6201,-4.6193,-4.6193,-4.6149,-4.6044,-4.5927,-4.5181,-4.3937,-4.2207,-4.2072,-4.1636,-4.0907,-4.0898,-4.0907,-4.0907,-4.0848,-4.0818,-4.0807,-4.0804,-4.08,-4.08,-4.0796,-4.1299,-4.2099,-4.297,-4.386,-4.4711,-4.5524,-4.5814,-4.5827,-4.5814,-4.5814,-4.5827,-4.5827,-4.5731,-4.5634,-4.5634,-4.4929,-4.3833,-4.247,-4.1432,-4.0725,-4.0726,-4.0571,-4.0235,-3.9499,-3.9105,-3.8493,-3.7017,-3.655,-3.6197,-3.5442,-3.5242,-3.5155,-3.4939,-3.4902,-3.4792,-3.4528,-3.3808,-3.3296,-3.3293,-3.2591,-3.2098,-3.2077,-3.2016,-3.2257,-3.2926,-3.2963,-3.328,-3.3952,-3.4101,-3.4531,-3.5235,-3.4498,-3.4563,-3.5558,-3.7192,-3.8145,-3.8371,-3.9255,-3.9698,-3.9708,-3.9708,-3.9708,-3.9689,-3.9689,-3.9689,-3.9712,-3.9758,-3.9781,-3.9781,-3.9845,-3.9867,-3.9867,-3.9804,-3.9735,-3.9708,-4.63,-4.63,-4.63,-4.6292,-4.6308,-4.6279,-4.6245,-4.6215,-4.6203,-4.619,-4.6203,-4.6196,-4.6196,-4.6196,-4.6196,-4.6196,-4.6196,-4.6196,-4.6201,-4.6193,-4.6185,-4.6149,-4.6132,-4.6075,-4.6056,-4.523,-4.419,-4.2898,-4.2432,-4.1752,-4.0908,-4.0907,-4.0877,-4.0848,-4.0815,-4.0804,-4.0804,-4.0808,-4.0796,-4.0796,-4.0803,-4.1023,-4.1429,-4.228,-4.315,-4.402,-4.4852,-4.5432,-4.58,-4.5805,-4.5791,-4.5791,-4.5776,-4.5742,-4.5742,-4.5742,-4.4815,-4.354,-4.2311,-4.1332,-4.0662,-4.0654,-4.0626,-4.0501,-4.0087,-3.9649,-3.9061,-3.8232,-3.7283,-3.6469,-3.6036,-3.5548,-3.5176,-3.511,-3.5092,-3.5039,-3.4907,-3.4527,-3.4242,-3.4162,-3.3761,-3.3454,-3.339,-3.335,-3.3496,-3.3807,-3.3844,-3.3994,-3.4367,-3.4853,-3.5306,-3.5741,-3.5736,-3.6189,-3.7079,-3.7901,-3.8573,-3.911,-3.951,-3.9708,-3.9758,-3.9758,-3.9758,-3.9823,-3.9823,-3.9823,-3.9823,-3.9826,-3.9848,-3.9867,-3.9889,-3.9889,-3.9889,-3.9867,-3.9804,-3.9735,-4.63,-4.63,-4.6296,-4.6308,-4.6279,-4.627,-4.6209,-4.6203,-4.6196,-4.6203,-4.6196,-4.6196,-4.6196,-4.6196,-4.6196,-4.6196,-4.6196,-4.6181,-4.6185,-4.6177,-4.6149,-4.6104,-4.591,-4.5765,-4.5725,-4.4928,-4.4074,-4.3199,-4.2539,-4.1743,-4.0907,-4.0886,-4.0856,-4.0796,-4.08,-4.0808,-4.0808,-4.0803,-4.079,-4.079,-4.079,-4.079,-4.0887,-4.1687,-4.2421,-4.3137,-4.4206,-4.4959,-4.552,-4.5703,-4.5765,-4.5765,-4.5715,-4.57,-4.57,-4.57,-4.45,-4.3028,-4.2382,-4.1422,-4.0593,-4.0593,-4.0583,-4.0573,-4.0577,-4.0062,-3.9496,-3.9237,-3.8112,-3.7028,-3.6594,-3.5952,-3.5405,-3.5148,-3.5092,-3.5039,-3.4907,-3.4907,-3.4868,-3.4768,-3.4747,-3.4666,-3.4561,-3.4539,-3.4517,-3.445,-3.445,-3.4525,-3.4731,-3.5385,-3.5951,-3.6396,-3.6996,-3.7614,-3.8233,-3.8559,-3.9039,-3.9722,-3.9731,-3.9758,-3.9826,-3.9826,-3.9848,-3.9889,-3.9889,-3.9889,-3.9889,-3.9889,-3.9889,-3.9889,-3.9889,-3.9889,-3.9889,-3.9889,-3.9867,-3.9781,-4.63,-4.6292,-4.6303,-4.6303,-4.6245,-4.6209,-4.6203,-4.619,-4.6203,-4.6196,-4.6196,-4.6196,-4.6196,-4.6196,-4.6196,-4.6196,-4.6201,-4.6166,-4.6102,-4.6114,-4.6105,-4.6105,-4.5337,-4.4889,-4.4889,-4.4035,-4.318,-4.2306,-4.2228,-4.1742,-4.0897,-4.0854,-4.08,-4.08,-4.0796,-4.0803,-4.0803,-4.079,-4.079,-4.079,-4.079,-4.079,-4.0887,-4.168,-4.2033,-4.2304,-4.3936,-4.4558,-4.4712,-4.5465,-4.5715,-4.5715,-4.57,-4.57,-4.57,-4.57,-4.4469,-4.3108,-4.3096,-4.187,-4.0588,-4.0588,-4.0539,-4.0508,-4.0499,-4.046,-4.0159,-3.9289,-3.9004,-3.8431,-3.6812,-3.6451,-3.6131,-3.5243,-3.5092,-3.5057,-3.4927,-3.4907,-3.4887,-3.4887,-3.4848,-3.4768,-3.4687,-3.4687,-3.4666,-3.4602,-3.4602,-3.494,-3.5743,-3.5837,-3.6596,-3.8169,-3.8263,-3.8338,-3.8376,-3.9194,-3.9679,-3.9781,-3.9781,-3.9826,-3.9889,-3.9889,-3.9889,-3.9889,-3.9889,-3.9889,-3.9889,-3.9889,-3.9889,-3.9889,-3.9889,-3.9889,-3.9889,-3.9889,-3.9867,-3.9781,-4.6292,-4.6308,-4.6279,-4.6245,-4.6215,-4.6203,-4.619,-4.6203,-4.6196,-4.6196,-4.6196,-4.6196,-4.6196,-4.6196,-4.6196,-4.6196,-4.6201,-4.6177,-4.6102,-4.6095,-4.5862,-4.5318,-4.4472,-4.3996,-4.3996,-4.3666,-4.3073,-4.2208,-4.2198,-4.172,-4.0834,-4.0812,-4.0808,-4.0796,-4.0803,-4.079,-4.079,-4.079,-4.0778,-4.0746,-4.0746,-4.0713,-4.0706,-4.1021,-4.1484,-4.2025,-4.2666,-4.3578,-4.4542,-4.48,-4.5244,-4.5687,-4.5654,-4.5637,-4.5522,-4.4983,-4.3618,-4.231,-4.2325,-4.1443,-4.0539,-4.0539,-4.0527,-4.0499,-4.0502,-4.0485,-4.0319,-3.9923,-3.9446,-3.8891,-3.8171,-3.7617,-3.6932,-3.6005,-3.5835,-3.5627,-3.5003,-3.4889,-3.4907,-3.4907,-3.4868,-3.4848,-3.4768,-3.4768,-3.4747,-3.4727,-3.5179,-3.5593,-3.5932,-3.6949,-3.8045,-3.9157,-3.9241,-3.9241,-3.9194,-3.9584,-3.9781,-3.9804,-3.9826,-3.9889,-3.9889,-3.9889,-3.9889,-3.9889,-3.9889,-3.9889,-3.9889,-3.9889,-3.9889,-3.9889,-3.9889,-3.9889,-3.9889,-3.9889,-3.9889,-3.9845,-4.626,-4.6275,-4.625,-4.6209,-4.6203,-4.619,-4.6203,-4.6196,-4.6196,-4.6196,-4.6196,-4.6196,-4.6196,-4.6196,-4.6196,-4.6196,-4.6174,-4.6149,-4.6093,-4.5599,-4.5143,-4.4812,-4.3704,-4.3083,-4.3083,-4.283,-4.2393,-4.18,-4.177,-4.1427,-4.08,-4.0808,-4.0796,-4.079,-4.079,-4.079,-4.0778,-4.0778,-4.0733,-4.0668,-4.0668,-4.0635,-4.0588,-4.0593,-4.0979,-4.1519,-4.1774,-4.2641,-4.3701,-4.392,-4.4386,-4.4886,-4.4833,-4.4797,-4.4643,-4.3778,-4.2701,-4.1739,-4.147,-4.0969,-4.0492,-4.0492,-4.0515,-4.0502,-4.0449,-4.0396,-4.0362,-4.0308,-3.9868,-3.9372,-3.9049,-3.8514,-3.7791,-3.6862,-3.671,-3.6388,-3.5439,-3.5306,-3.5192,-3.4945,-3.4888,-3.4868,-3.4848,-3.5074,-3.5186,-3.5166,-3.5941,-3.6526,-3.6769,-3.8131,-3.915,-3.9717,-3.9804,-3.9804,-3.9758,-3.9804,-3.9826,-3.9826,-3.9889,-3.9889,-3.9889,-3.9889,-3.9889,-3.9889,-3.9889,-3.9889,-3.9889,-3.9889,-3.9889,-3.9889,-3.9889,-3.9889,-3.9889,-3.9889,-3.9889,-3.9889,-4.6206,-4.6195,-4.6203,-4.6203,-4.619,-4.6196,-4.6196,-4.6196,-4.6196,-4.6196,-4.6196,-4.6196,-4.6196,-4.6196,-4.6196,-4.6196,-4.6138,-4.6093,-4.6093,-4.4453,-4.3879,-4.4734,-4.3122,-4.2189,-4.2189,-4.1335,-4.0898,-4.0907,-4.0837,-4.0796,-4.08,-4.0803,-4.079,-4.079,-4.079,-4.0759,-4.07,-4.07,-4.0654,-4.0588,-4.0588,-4.0588,-4.0607,-4.0603,-4.0607,-4.0703,-4.1505,-4.1797,-4.1931,-4.2797,-4.3085,-4.3104,-4.3104,-4.3104,-4.2912,-4.2047,-4.1797,-4.1604,-4.0719,-4.0495,-4.0502,-4.0502,-4.0502,-4.0466,-4.0325,-4.0307,-4.0289,-4.0291,-4.031,-4.0043,-3.9164,-3.9011,-3.8688,-3.7757,-3.7624,-3.7281,-3.6349,-3.6196,-3.5893,-3.5022,-3.4927,-3.4927,-3.4926,-3.5625,-3.6077,-3.6017,-3.6828,-3.7659,-3.8467,-3.9346,-3.9804,-3.9804,-3.9867,-3.9889,-3.9889,-3.9889,-3.9889,-3.9889,-3.9889,-3.9889,-3.9889,-3.9889,-3.9889,-3.9889,-3.9889,-3.9889,-3.9889,-3.9889,-3.9889,-3.9889,-3.9889,-3.9889,-3.9889,-3.9889,-3.9889,-3.9889,-4.6195,-4.6209,-4.6203,-4.6209,-4.6203,-4.6196,-4.6196,-4.6196,-4.6196,-4.6196,-4.6196,-4.6196,-4.6196,-4.6196,-4.6196,-4.6196,-4.6138,-4.5851,-4.523,-4.3559,-4.2694,-4.2966,-4.1879,-4.1296,-4.1296,-4.1024,-4.0888,-4.0837,-4.0804,-4.08,-4.0803,-4.0803,-4.0759,-4.0733,-4.0733,-4.07,-4.0621,-4.0621,-4.0626,-4.0603,-4.0603,-4.0569,-4.0534,-4.0539,-4.0523,-4.0562,-4.0812,-4.1277,-4.1854,-4.2104,-4.2585,-4.3104,-4.3104,-4.2681,-4.2143,-4.1893,-4.1373,-4.0835,-4.0566,-4.0495,-4.0502,-4.0502,-4.0432,-4.0342,-4.0307,-4.029,-4.031,-4.031,-4.031,-4.0234,-3.9966,-3.9872,-3.9528,-3.8594,-3.8441,-3.8116,-3.7183,-3.703,-3.6936,-3.6689,-3.6651,-3.6651,-3.665,-3.6859,-3.701,-3.6971,-3.7785,-3.8637,-3.9429,-3.9735,-3.9867,-3.9867,-3.9889,-3.9889,-3.9889,-3.9889,-3.9889,-3.9889,-3.9889,-3.9889,-3.9889,-3.9889,-3.9889,-3.9889,-3.9889,-3.9889,-3.9889,-3.9889,-3.9889,-3.9889,-3.9889,-3.9889,-3.9889,-3.9889,-3.9889,-3.9889,-4.6196,-4.6196,-4.619,-4.6203,-4.6196,-4.6196,-4.6196,-4.6196,-4.6196,-4.6196,-4.6196,-4.6196,-4.6196,-4.6196,-4.6196,-4.6196,-4.5807,-4.5064,-4.385,-4.2792,-4.2053,-4.1704,-4.1179,-4.0907,-4.0907,-4.0898,-4.0867,-4.0807,-4.0792,-4.0808,-4.079,-4.0778,-4.0746,-4.07,-4.0668,-4.064,-4.0612,-4.0612,-4.0583,-4.0573,-4.0573,-4.0539,-4.0489,-4.0489,-4.0508,-4.0511,-4.0511,-4.0822,-4.1267,-4.1267,-4.1613,-4.2069,-4.2066,-4.17,-4.1296,-4.1296,-4.0912,-4.0489,-4.0489,-4.0495,-4.0502,-4.0485,-4.0379,-4.0307,-4.0308,-4.031,-4.031,-4.031,-4.031,-4.0291,-4.0253,-4.0234,-4.0005,-3.9373,-3.9257,-3.895,-3.8036,-3.7902,-3.7788,-3.7428,-3.739,-3.739,-3.739,-3.7694,-3.8054,-3.8357,-3.8888,-3.9399,-3.9851,-3.9889,-3.9889,-3.9889,-3.9889,-3.9889,-3.9889,-3.9889,-3.9889,-3.9889,-3.9889,-3.9889,-3.9889,-3.9889,-3.9889,-3.9889,-3.9889,-3.9889,-3.9889,-3.9889,-3.9889,-3.9889,-3.9889,-3.9889,-3.9889,-3.9889,-3.9889,-3.9845,-4.6079,-4.602,-4.5962,-4.5962,-4.5962,-4.5962,-4.5962,-4.5962,-4.5962,-4.5962,-4.5962,-4.5962,-4.5962,-4.5962,-4.5962,-4.5962,-4.5106,-4.3897,-4.2296,-4.2131,-4.1723,-4.0927,-4.0907,-4.0907,-4.0907,-4.0898,-4.0867,-4.0807,-4.0792,-4.0796,-4.079,-4.0733,-4.07,-4.0687,-4.0621,-4.0598,-4.0588,-4.0588,-4.0558,-4.0489,-4.0489,-4.0508,-4.0508,-4.0489,-4.0495,-4.0502,-4.0502,-4.0449,-4.0415,-4.0415,-4.0449,-4.0499,-4.0508,-4.0489,-4.0489,-4.0489,-4.0489,-4.0489,-4.0489,-4.0495,-4.0466,-4.0415,-4.0362,-4.0289,-4.0291,-4.031,-4.031,-4.031,-4.0291,-4.0272,-4.0215,-4.0196,-4.0138,-4.0017,-3.9996,-3.9709,-3.8928,-3.8793,-3.8509,-3.7713,-3.7618,-3.7618,-3.7618,-3.8338,-3.9115,-3.9832,-3.9889,-3.9889,-3.9889,-3.9889,-3.9889,-3.9889,-3.9889,-3.9889,-3.9889,-3.9889,-3.9889,-3.9889,-3.9889,-3.9889,-3.9889,-3.9889,-3.9889,-3.9889,-3.9889,-3.9889,-3.9889,-3.9889,-3.9889,-3.9889,-3.9889,-3.9889,-3.9889,-3.9889,-3.9848,-3.9781,-4.5183,-4.4637,-4.4169,-4.4169,-4.4169,-4.4169,-4.4169,-4.4169,-4.4169,-4.4169,-4.4169,-4.4169,-4.4169,-4.4169,-4.4169,-4.4169,-4.3354,-4.2652,-4.2238,-4.1568,-4.1102,-4.0907,-4.0907,-4.0898,-4.0898,-4.0848,-4.0796,-4.0812,-4.0796,-4.0803,-4.079,-4.0733,-4.0668,-4.0621,-4.0617,-4.0569,-4.0523,-4.0523,-4.0504,-4.0489,-4.0495,-4.0499,-4.0499,-4.043,-4.0413,-4.0415,-4.0415,-4.0415,-4.0415,-4.0449,-4.0502,-4.0499,-4.0508,-4.0489,-4.0489,-4.0489,-4.0489,-4.0489,-4.0489,-4.0495,-4.0466,-4.0415,-4.0362,-4.0289,-4.0291,-4.031,-4.031,-4.031,-4.0253,-4.0234,-4.0196,-4.0118,-4.0017,-3.9996,-3.9954,-3.9854,-3.9683,-3.9646,-3.957,-3.938,-3.9361,-3.9361,-3.9361,-3.9532,-3.9721,-3.9889,-3.9889,-3.9889,-3.9889,-3.9889,-3.9889,-3.9889,-3.9889,-3.9889,-3.9889,-3.9889,-3.9889,-3.9889,-3.9889,-3.9889,-3.9889,-3.9889,-3.9889,-3.9889,-3.9889,-3.9889,-3.9889,-3.9889,-3.9889,-3.9889,-3.9889,-3.9889,-3.9889,-3.9826,-3.9804,-3.9781,-4.4286,-4.3916,-4.3598,-4.3598,-4.3598,-4.3598,-4.3598,-4.3598,-4.3598,-4.3598,-4.3598,-4.3598,-4.3598,-4.3598,-4.3442,-4.3011,-4.2541,-4.206,-4.1607,-4.114,-4.0907,-4.0907,-4.0907,-4.0888,-4.0848,-4.0818,-4.0796,-4.08,-4.0803,-4.079,-4.0746,-4.0668,-4.064,-4.0598,-4.0554,-4.0539,-4.0489,-4.0492,-4.0495,-4.0495,-4.0466,-4.0449,-4.0449,-4.0415,-4.0379,-4.0362,-4.0362,-4.0344,-4.0345,-4.0415,-4.0449,-4.0466,-4.0492,-4.0489,-4.0489,-4.0489,-4.0489,-4.0489,-4.0489,-4.0492,-4.0479,-4.0449,-4.0396,-4.0344,-4.031,-4.031,-4.031,-4.031,-4.0253,-4.0196,-4.0157,-4.0077,-3.9996,-3.9954,-3.9911,-3.9889,-3.9889,-3.9889,-3.9889,-3.9889,-3.9889,-3.9889,-3.9889,-3.9889,-3.9889,-3.9889,-3.9889,-3.9889,-3.9889,-3.9889,-3.9889,-3.9889,-3.9889,-3.9889,-3.9889,-3.9889,-3.9889,-3.9889,-3.9889,-3.9889,-3.9889,-3.9889,-3.9889,-3.9889,-3.9889,-3.9889,-3.9889,-3.9889,-3.9889,-3.9889,-3.9889,-3.9889,-3.9867,-3.9804,-3.9758,-3.9647,-4.3383,-4.3266,-4.3176,-4.3176,-4.3176,-4.3176,-4.3176,-4.3176,-4.3176,-4.3176,-4.3176,-4.3176,-4.3176,-4.315,-4.2863,-4.2144,-4.203,-4.1673,-4.0946,-4.0907,-4.0907,-4.0907,-4.0898,-4.0878,-4.0807,-4.0807,-4.0804,-4.0808,-4.0803,-4.0778,-4.07,-4.0621,-4.0612,-4.0607,-4.0523,-4.0489,-4.0508,-4.0499,-4.0502,-4.0485,-4.0415,-4.0379,-4.0379,-4.0381,-4.0344,-4.0289,-4.0289,-4.0309,-4.031,-4.0381,-4.0415,-4.0432,-4.0492,-4.0489,-4.0489,-4.0489,-4.0489,-4.0489,-4.0489,-4.0489,-4.0508,-4.0499,-4.0449,-4.0381,-4.031,-4.0291,-4.031,-4.031,-4.0253,-4.0176,-4.0117,-4.0057,-3.9975,-3.9911,-3.9889,-3.9889,-3.9889,-3.9889,-3.9889,-3.9889,-3.9889,-3.9889,-3.9889,-3.9889,-3.9889,-3.9889,-3.9889,-3.9889,-3.9889,-3.9889,-3.9889,-3.9889,-3.9889,-3.9889,-3.9889,-3.9889,-3.9889,-3.9889,-3.9889,-3.9889,-3.9889,-3.9889,-3.9889,-3.9889,-3.9889,-3.9889,-3.9889,-3.9889,-3.9889,-3.9889,-3.9889,-3.9848,-3.9804,-3.98,-3.9665,-3.9496,-4.2474,-4.1929,-4.1442,-4.1442,-4.1442,-4.1442,-4.1442,-4.1442,-4.1442,-4.1442,-4.1442,-4.1442,-4.1442,-4.139,-4.131,-4.1185,-4.1166,-4.109,-4.0907,-4.0907,-4.0907,-4.0907,-4.0908,-4.0877,-4.0807,-4.0804,-4.0808,-4.0803,-4.0803,-4.0778,-4.07,-4.0621,-4.0612,-4.0607,-4.0523,-4.0492,-4.0499,-4.0502,-4.0485,-4.0415,-4.0325,-4.0307,-4.0307,-4.0309,-4.031,-4.0291,-4.0291,-4.0309,-4.0307,-4.0379,-4.0432,-4.0482,-4.0492,-4.0489,-4.0489,-4.0489,-4.0489,-4.0489,-4.0489,-4.0489,-4.0508,-4.0499,-4.0449,-4.0379,-4.0326,-4.0291,-4.031,-4.031,-4.0253,-4.0176,-4.0117,-4.0057,-3.9975,-3.9911,-3.9889,-3.9889,-3.9889,-3.9889,-3.9889,-3.9889,-3.9889,-3.9889,-3.9889,-3.9889,-3.9889,-3.9889,-3.9889,-3.9889,-3.9889,-3.9889,-3.9889,-3.9889,-3.9889,-3.9889,-3.9889,-3.9889,-3.9889,-3.9889,-3.9889,-3.9889,-3.9889,-3.9889,-3.9889,-3.9889,-3.9889,-3.9889,-3.9889,-3.9889,-3.9889,-3.9889,-3.9826,-3.9804,-3.9781,-3.9727,-3.9626,-3.9476,-4.1637,-4.1344,-4.111,-4.111,-4.111,-4.111,-4.111,-4.111,-4.111,-4.111,-4.111,-4.111,-4.111,-4.1045,-4.0996,-4.101,-4.0974,-4.0917,-4.0907,-4.0907,-4.0907,-4.0907,-4.0898,-4.0867,-4.0807,-4.0792,-4.0808,-4.079,-4.079,-4.0746,-4.0635,-4.0621,-4.0579,-4.0539,-4.0504,-4.0511,-4.0502,-4.0449,-4.0415,-4.0344,-4.0308,-4.0309,-4.0291,-4.0291,-4.031,-4.031,-4.031,-4.0309,-4.0307,-4.0379,-4.0449,-4.0499,-4.0508,-4.0489,-4.0489,-4.0489,-4.0489,-4.0489,-4.0489,-4.0489,-4.0489,-4.0511,-4.0447,-4.0379,-4.0362,-4.0327,-4.031,-4.031,-4.0253,-4.0196,-4.0157,-4.0098,-4.0057,-4.0015,-4.0015,-4.0015,-3.9954,-3.9954,-3.9933,-3.9911,-3.9889,-3.9889,-3.9889,-3.9889,-3.9889,-3.9889,-3.9889,-3.9889,-3.9889,-3.9889,-3.9889,-3.9889,-3.9889,-3.9889,-3.9889,-3.9889,-3.9889,-3.9889,-3.9889,-3.9889,-3.9889,-3.9889,-3.9889,-3.9889,-3.9889,-3.9889,-3.9889,-3.9889,-3.9889,-3.9889,-3.9826,-3.9777,-3.9727,-3.9645,-3.952,-3.9444]}]]